<?xml version="1.0" encoding="UTF-8" standalone="no" ?>
<gpx xmlns="http://www.topografix.com/GPX/1/1" xmlns:xsi="http://www.w3.org/2001/XMLSchema-instance" xsi:schemaLocation="http://www.topografix.com/GPX/1/1 http://www.topografix.com/GPX/1/1/gpx.xsd" version="1.1" creator="VisuGPX - https://www.visugpx.com">
  <metadata>
    <name>Haut Verdon : gorges de St Pierre et cirque du Laupon</name>
    <desc><![CDATA[Après passage (Août 2019), si les gorges de St Pierre sont évidentes, le cirque du Laupon avec son sentier en dévers très raviné sur des schistes blancs est très exposé ...]]></desc>
  </metadata>
  <trk>
    <name><![CDATA[Cirque du Laupon]]></name>
    <trkseg>
      <trkpt lat="44.12891" lon="6.59834">
        <ele>1241.68</ele>
        <time>2019-08-03T06:40:27Z</time>
      </trkpt>
      <trkpt lat="44.12891" lon="6.59834">
        <ele>1238.32</ele>
        <time>2019-08-03T06:40:28Z</time>
      </trkpt>
      <trkpt lat="44.12891" lon="6.59834">
        <ele>1239.28</ele>
        <time>2019-08-03T06:40:29Z</time>
      </trkpt>
      <trkpt lat="44.12891" lon="6.59835">
        <ele>1238.32</ele>
        <time>2019-08-03T06:40:30Z</time>
      </trkpt>
      <trkpt lat="44.12855" lon="6.59853">
        <ele>1238.32</ele>
        <time>2019-08-03T06:40:49Z</time>
      </trkpt>
      <trkpt lat="44.12838" lon="6.59858">
        <ele>1237.35</ele>
        <time>2019-08-03T06:41:09Z</time>
      </trkpt>
      <trkpt lat="44.12823" lon="6.59857">
        <ele>1236.87</ele>
        <time>2019-08-03T06:41:35Z</time>
      </trkpt>
      <trkpt lat="44.12819" lon="6.59857">
        <ele>1236.87</ele>
        <time>2019-08-03T06:42:09Z</time>
      </trkpt>
      <trkpt lat="44.12816" lon="6.59857">
        <ele>1236.39</ele>
        <time>2019-08-03T06:42:34Z</time>
      </trkpt>
      <trkpt lat="44.12818" lon="6.59858">
        <ele>1237.83</ele>
        <time>2019-08-03T06:42:40Z</time>
      </trkpt>
      <trkpt lat="44.12826" lon="6.59863">
        <ele>1238.32</ele>
        <time>2019-08-03T06:42:49Z</time>
      </trkpt>
      <trkpt lat="44.12826" lon="6.59867">
        <ele>1238.8</ele>
        <time>2019-08-03T06:43:01Z</time>
      </trkpt>
      <trkpt lat="44.12805" lon="6.59869">
        <ele>1238.8</ele>
        <time>2019-08-03T06:43:21Z</time>
      </trkpt>
      <trkpt lat="44.12806" lon="6.59873">
        <ele>1238.8</ele>
        <time>2019-08-03T06:43:35Z</time>
      </trkpt>
      <trkpt lat="44.12816" lon="6.59874">
        <ele>1239.28</ele>
        <time>2019-08-03T06:43:50Z</time>
      </trkpt>
      <trkpt lat="44.12814" lon="6.59882">
        <ele>1240.24</ele>
        <time>2019-08-03T06:44:07Z</time>
      </trkpt>
      <trkpt lat="44.12815" lon="6.59886">
        <ele>1239.28</ele>
        <time>2019-08-03T06:44:30Z</time>
      </trkpt>
      <trkpt lat="44.12814" lon="6.59885">
        <ele>1239.76</ele>
        <time>2019-08-03T06:44:43Z</time>
      </trkpt>
      <trkpt lat="44.1281" lon="6.59891">
        <ele>1239.28</ele>
        <time>2019-08-03T06:44:51Z</time>
      </trkpt>
      <trkpt lat="44.12805" lon="6.59903">
        <ele>1240.72</ele>
        <time>2019-08-03T06:45:00Z</time>
      </trkpt>
      <trkpt lat="44.12797" lon="6.59916">
        <ele>1241.2</ele>
        <time>2019-08-03T06:45:14Z</time>
      </trkpt>
      <trkpt lat="44.12796" lon="6.59917">
        <ele>1241.2</ele>
        <time>2019-08-03T06:45:15Z</time>
      </trkpt>
      <trkpt lat="44.12785" lon="6.59936">
        <ele>1241.2</ele>
        <time>2019-08-03T06:45:31Z</time>
      </trkpt>
      <trkpt lat="44.12781" lon="6.59946">
        <ele>1241.68</ele>
        <time>2019-08-03T06:45:38Z</time>
      </trkpt>
      <trkpt lat="44.12768" lon="6.59963">
        <ele>1242.16</ele>
        <time>2019-08-03T06:45:54Z</time>
      </trkpt>
      <trkpt lat="44.12754" lon="6.59986">
        <ele>1242.16</ele>
        <time>2019-08-03T06:46:11Z</time>
      </trkpt>
      <trkpt lat="44.12751" lon="6.59989">
        <ele>1242.16</ele>
        <time>2019-08-03T06:46:25Z</time>
      </trkpt>
      <trkpt lat="44.12744" lon="6.59997">
        <ele>1243.6</ele>
        <time>2019-08-03T06:46:42Z</time>
      </trkpt>
      <trkpt lat="44.12735" lon="6.60015">
        <ele>1243.6</ele>
        <time>2019-08-03T06:46:56Z</time>
      </trkpt>
      <trkpt lat="44.12733" lon="6.60024">
        <ele>1244.08</ele>
        <time>2019-08-03T06:47:00Z</time>
      </trkpt>
      <trkpt lat="44.12729" lon="6.60042">
        <ele>1245.04</ele>
        <time>2019-08-03T06:47:10Z</time>
      </trkpt>
      <trkpt lat="44.12727" lon="6.60063">
        <ele>1245.04</ele>
        <time>2019-08-03T06:47:23Z</time>
      </trkpt>
      <trkpt lat="44.12724" lon="6.60078">
        <ele>1245.53</ele>
        <time>2019-08-03T06:47:33Z</time>
      </trkpt>
      <trkpt lat="44.12718" lon="6.60103">
        <ele>1246.97</ele>
        <time>2019-08-03T06:47:48Z</time>
      </trkpt>
      <trkpt lat="44.12717" lon="6.60109">
        <ele>1246.49</ele>
        <time>2019-08-03T06:47:52Z</time>
      </trkpt>
      <trkpt lat="44.12708" lon="6.60128">
        <ele>1247.93</ele>
        <time>2019-08-03T06:48:05Z</time>
      </trkpt>
      <trkpt lat="44.12696" lon="6.6015">
        <ele>1248.41</ele>
        <time>2019-08-03T06:48:19Z</time>
      </trkpt>
      <trkpt lat="44.12694" lon="6.60163">
        <ele>1249.37</ele>
        <time>2019-08-03T06:48:27Z</time>
      </trkpt>
      <trkpt lat="44.12695" lon="6.60169">
        <ele>1249.37</ele>
        <time>2019-08-03T06:48:31Z</time>
      </trkpt>
      <trkpt lat="44.127" lon="6.60195">
        <ele>1250.81</ele>
        <time>2019-08-03T06:48:47Z</time>
      </trkpt>
      <trkpt lat="44.12708" lon="6.60218">
        <ele>1250.81</ele>
        <time>2019-08-03T06:49:01Z</time>
      </trkpt>
      <trkpt lat="44.12712" lon="6.60221">
        <ele>1251.29</ele>
        <time>2019-08-03T06:49:04Z</time>
      </trkpt>
      <trkpt lat="44.12718" lon="6.60244">
        <ele>1252.25</ele>
        <time>2019-08-03T06:49:18Z</time>
      </trkpt>
      <trkpt lat="44.12717" lon="6.60248">
        <ele>1252.74</ele>
        <time>2019-08-03T06:49:21Z</time>
      </trkpt>
      <trkpt lat="44.12703" lon="6.60271">
        <ele>1253.7</ele>
        <time>2019-08-03T06:49:34Z</time>
      </trkpt>
      <trkpt lat="44.12697" lon="6.60279">
        <ele>1253.7</ele>
        <time>2019-08-03T06:49:47Z</time>
      </trkpt>
      <trkpt lat="44.12698" lon="6.60289">
        <ele>1253.7</ele>
        <time>2019-08-03T06:49:56Z</time>
      </trkpt>
      <trkpt lat="44.12703" lon="6.60307">
        <ele>1255.14</ele>
        <time>2019-08-03T06:50:10Z</time>
      </trkpt>
      <trkpt lat="44.12703" lon="6.60308">
        <ele>1255.14</ele>
        <time>2019-08-03T06:50:11Z</time>
      </trkpt>
      <trkpt lat="44.12699" lon="6.60326">
        <ele>1254.66</ele>
        <time>2019-08-03T06:50:22Z</time>
      </trkpt>
      <trkpt lat="44.12681" lon="6.60347">
        <ele>1254.18</ele>
        <time>2019-08-03T06:50:35Z</time>
      </trkpt>
      <trkpt lat="44.12682" lon="6.60358">
        <ele>1255.14</ele>
        <time>2019-08-03T06:50:41Z</time>
      </trkpt>
      <trkpt lat="44.12685" lon="6.60384">
        <ele>1254.18</ele>
        <time>2019-08-03T06:50:55Z</time>
      </trkpt>
      <trkpt lat="44.12684" lon="6.60389">
        <ele>1254.66</ele>
        <time>2019-08-03T06:50:58Z</time>
      </trkpt>
      <trkpt lat="44.12679" lon="6.60411">
        <ele>1254.66</ele>
        <time>2019-08-03T06:51:12Z</time>
      </trkpt>
      <trkpt lat="44.12676" lon="6.60418">
        <ele>1254.18</ele>
        <time>2019-08-03T06:51:16Z</time>
      </trkpt>
      <trkpt lat="44.12668" lon="6.60442">
        <ele>1257.54</ele>
        <time>2019-08-03T06:51:34Z</time>
      </trkpt>
      <trkpt lat="44.12665" lon="6.6045">
        <ele>1258.02</ele>
        <time>2019-08-03T06:51:38Z</time>
      </trkpt>
      <trkpt lat="44.12663" lon="6.6047">
        <ele>1259.94</ele>
        <time>2019-08-03T06:51:51Z</time>
      </trkpt>
      <trkpt lat="44.12663" lon="6.60472">
        <ele>1259.46</ele>
        <time>2019-08-03T06:51:52Z</time>
      </trkpt>
      <trkpt lat="44.12665" lon="6.60488">
        <ele>1260.91</ele>
        <time>2019-08-03T06:52:04Z</time>
      </trkpt>
      <trkpt lat="44.12666" lon="6.60491">
        <ele>1261.39</ele>
        <time>2019-08-03T06:52:06Z</time>
      </trkpt>
      <trkpt lat="44.12671" lon="6.60509">
        <ele>1264.27</ele>
        <time>2019-08-03T06:52:19Z</time>
      </trkpt>
      <trkpt lat="44.1267" lon="6.60512">
        <ele>1264.75</ele>
        <time>2019-08-03T06:52:22Z</time>
      </trkpt>
      <trkpt lat="44.12667" lon="6.60526">
        <ele>1264.75</ele>
        <time>2019-08-03T06:52:33Z</time>
      </trkpt>
      <trkpt lat="44.12663" lon="6.60546">
        <ele>1262.83</ele>
        <time>2019-08-03T06:52:48Z</time>
      </trkpt>
      <trkpt lat="44.12663" lon="6.60546">
        <ele>1267.16</ele>
        <time>2019-08-03T06:52:49Z</time>
      </trkpt>
      <trkpt lat="44.12664" lon="6.60546">
        <ele>1263.31</ele>
        <time>2019-08-03T06:52:53Z</time>
      </trkpt>
      <trkpt lat="44.12664" lon="6.60546">
        <ele>1263.31</ele>
        <time>2019-08-03T06:52:54Z</time>
      </trkpt>
      <trkpt lat="44.12664" lon="6.60546">
        <ele>1266.67</ele>
        <time>2019-08-03T06:52:55Z</time>
      </trkpt>
      <trkpt lat="44.12665" lon="6.60546">
        <ele>1264.75</ele>
        <time>2019-08-03T06:52:56Z</time>
      </trkpt>
      <trkpt lat="44.12661" lon="6.60547">
        <ele>1266.19</ele>
        <time>2019-08-03T06:53:15Z</time>
      </trkpt>
      <trkpt lat="44.1266" lon="6.6055">
        <ele>1265.71</ele>
        <time>2019-08-03T06:53:20Z</time>
      </trkpt>
      <trkpt lat="44.12662" lon="6.60557">
        <ele>1266.19</ele>
        <time>2019-08-03T06:53:24Z</time>
      </trkpt>
      <trkpt lat="44.1266" lon="6.60582">
        <ele>1267.64</ele>
        <time>2019-08-03T06:53:38Z</time>
      </trkpt>
      <trkpt lat="44.1266" lon="6.60584">
        <ele>1268.6</ele>
        <time>2019-08-03T06:53:48Z</time>
      </trkpt>
      <trkpt lat="44.12656" lon="6.60589">
        <ele>1267.64</ele>
        <time>2019-08-03T06:53:52Z</time>
      </trkpt>
      <trkpt lat="44.12655" lon="6.60595">
        <ele>1268.6</ele>
        <time>2019-08-03T06:53:55Z</time>
      </trkpt>
      <trkpt lat="44.1265" lon="6.60619">
        <ele>1270.52</ele>
        <time>2019-08-03T06:54:11Z</time>
      </trkpt>
      <trkpt lat="44.12648" lon="6.60636">
        <ele>1271</ele>
        <time>2019-08-03T06:54:25Z</time>
      </trkpt>
      <trkpt lat="44.12648" lon="6.60646">
        <ele>1271</ele>
        <time>2019-08-03T06:54:31Z</time>
      </trkpt>
      <trkpt lat="44.12651" lon="6.60665">
        <ele>1271.48</ele>
        <time>2019-08-03T06:54:44Z</time>
      </trkpt>
      <trkpt lat="44.12654" lon="6.6068">
        <ele>1272.44</ele>
        <time>2019-08-03T06:54:55Z</time>
      </trkpt>
      <trkpt lat="44.12656" lon="6.60702">
        <ele>1273.88</ele>
        <time>2019-08-03T06:55:12Z</time>
      </trkpt>
      <trkpt lat="44.1264" lon="6.60721">
        <ele>1275.33</ele>
        <time>2019-08-03T06:55:27Z</time>
      </trkpt>
      <trkpt lat="44.12628" lon="6.60748">
        <ele>1276.77</ele>
        <time>2019-08-03T06:55:45Z</time>
      </trkpt>
      <trkpt lat="44.12624" lon="6.60769">
        <ele>1278.21</ele>
        <time>2019-08-03T06:56:00Z</time>
      </trkpt>
      <trkpt lat="44.12629" lon="6.60776">
        <ele>1278.69</ele>
        <time>2019-08-03T06:56:04Z</time>
      </trkpt>
      <trkpt lat="44.12633" lon="6.6079">
        <ele>1279.17</ele>
        <time>2019-08-03T06:56:14Z</time>
      </trkpt>
      <trkpt lat="44.12642" lon="6.60812">
        <ele>1279.65</ele>
        <time>2019-08-03T06:56:27Z</time>
      </trkpt>
      <trkpt lat="44.12643" lon="6.60822">
        <ele>1280.13</ele>
        <time>2019-08-03T06:56:34Z</time>
      </trkpt>
      <trkpt lat="44.12649" lon="6.60844">
        <ele>1280.61</ele>
        <time>2019-08-03T06:56:47Z</time>
      </trkpt>
      <trkpt lat="44.12642" lon="6.60866">
        <ele>1281.57</ele>
        <time>2019-08-03T06:57:02Z</time>
      </trkpt>
      <trkpt lat="44.12635" lon="6.60878">
        <ele>1282.54</ele>
        <time>2019-08-03T06:57:10Z</time>
      </trkpt>
      <trkpt lat="44.12629" lon="6.60904">
        <ele>1283.5</ele>
        <time>2019-08-03T06:57:26Z</time>
      </trkpt>
      <trkpt lat="44.1263" lon="6.60911">
        <ele>1283.5</ele>
        <time>2019-08-03T06:57:31Z</time>
      </trkpt>
      <trkpt lat="44.12633" lon="6.6094">
        <ele>1285.42</ele>
        <time>2019-08-03T06:57:48Z</time>
      </trkpt>
      <trkpt lat="44.12633" lon="6.60949">
        <ele>1285.42</ele>
        <time>2019-08-03T06:57:54Z</time>
      </trkpt>
      <trkpt lat="44.12628" lon="6.60981">
        <ele>1286.38</ele>
        <time>2019-08-03T06:58:13Z</time>
      </trkpt>
      <trkpt lat="44.12629" lon="6.6099">
        <ele>1286.38</ele>
        <time>2019-08-03T06:58:18Z</time>
      </trkpt>
      <trkpt lat="44.12628" lon="6.61019">
        <ele>1287.34</ele>
        <time>2019-08-03T06:58:35Z</time>
      </trkpt>
      <trkpt lat="44.1263" lon="6.6103">
        <ele>1287.82</ele>
        <time>2019-08-03T06:58:42Z</time>
      </trkpt>
      <trkpt lat="44.12632" lon="6.61035">
        <ele>1288.78</ele>
        <time>2019-08-03T06:58:46Z</time>
      </trkpt>
      <trkpt lat="44.12634" lon="6.61047">
        <ele>1289.27</ele>
        <time>2019-08-03T06:58:54Z</time>
      </trkpt>
      <trkpt lat="44.12638" lon="6.61055">
        <ele>1289.75</ele>
        <time>2019-08-03T06:59:00Z</time>
      </trkpt>
      <trkpt lat="44.12641" lon="6.61067">
        <ele>1289.75</ele>
        <time>2019-08-03T06:59:07Z</time>
      </trkpt>
      <trkpt lat="44.1264" lon="6.61074">
        <ele>1290.23</ele>
        <time>2019-08-03T06:59:10Z</time>
      </trkpt>
      <trkpt lat="44.12636" lon="6.61094">
        <ele>1291.19</ele>
        <time>2019-08-03T06:59:25Z</time>
      </trkpt>
      <trkpt lat="44.12636" lon="6.61095">
        <ele>1290.71</ele>
        <time>2019-08-03T06:59:26Z</time>
      </trkpt>
      <trkpt lat="44.12632" lon="6.61114">
        <ele>1290.71</ele>
        <time>2019-08-03T06:59:39Z</time>
      </trkpt>
      <trkpt lat="44.12629" lon="6.61128">
        <ele>1291.67</ele>
        <time>2019-08-03T06:59:50Z</time>
      </trkpt>
      <trkpt lat="44.12624" lon="6.61151">
        <ele>1293.11</ele>
        <time>2019-08-03T07:00:05Z</time>
      </trkpt>
      <trkpt lat="44.12621" lon="6.61161">
        <ele>1292.63</ele>
        <time>2019-08-03T07:00:12Z</time>
      </trkpt>
      <trkpt lat="44.12613" lon="6.61177">
        <ele>1294.07</ele>
        <time>2019-08-03T07:00:27Z</time>
      </trkpt>
      <trkpt lat="44.12611" lon="6.61183">
        <ele>1294.55</ele>
        <time>2019-08-03T07:00:31Z</time>
      </trkpt>
      <trkpt lat="44.12608" lon="6.61194">
        <ele>1295.03</ele>
        <time>2019-08-03T07:00:38Z</time>
      </trkpt>
      <trkpt lat="44.12591" lon="6.61217">
        <ele>1295.99</ele>
        <time>2019-08-03T07:00:55Z</time>
      </trkpt>
      <trkpt lat="44.12579" lon="6.61235">
        <ele>1296.96</ele>
        <time>2019-08-03T07:01:09Z</time>
      </trkpt>
      <trkpt lat="44.12563" lon="6.61263">
        <ele>1298.4</ele>
        <time>2019-08-03T07:01:29Z</time>
      </trkpt>
      <trkpt lat="44.1256" lon="6.61277">
        <ele>1298.88</ele>
        <time>2019-08-03T07:01:38Z</time>
      </trkpt>
      <trkpt lat="44.12554" lon="6.61298">
        <ele>1300.32</ele>
        <time>2019-08-03T07:01:54Z</time>
      </trkpt>
      <trkpt lat="44.12547" lon="6.61305">
        <ele>1301.76</ele>
        <time>2019-08-03T07:02:12Z</time>
      </trkpt>
      <trkpt lat="44.12544" lon="6.61313">
        <ele>1301.76</ele>
        <time>2019-08-03T07:02:19Z</time>
      </trkpt>
      <trkpt lat="44.12538" lon="6.61326">
        <ele>1302.72</ele>
        <time>2019-08-03T07:02:31Z</time>
      </trkpt>
      <trkpt lat="44.12535" lon="6.61344">
        <ele>1304.65</ele>
        <time>2019-08-03T07:02:46Z</time>
      </trkpt>
      <trkpt lat="44.12531" lon="6.61347">
        <ele>1304.65</ele>
        <time>2019-08-03T07:02:59Z</time>
      </trkpt>
      <trkpt lat="44.12532" lon="6.61353">
        <ele>1305.61</ele>
        <time>2019-08-03T07:03:23Z</time>
      </trkpt>
      <trkpt lat="44.1253" lon="6.61345">
        <ele>1305.61</ele>
        <time>2019-08-03T07:03:44Z</time>
      </trkpt>
      <trkpt lat="44.12529" lon="6.61347">
        <ele>1305.61</ele>
        <time>2019-08-03T07:04:08Z</time>
      </trkpt>
      <trkpt lat="44.1253" lon="6.61358">
        <ele>1306.09</ele>
        <time>2019-08-03T07:04:19Z</time>
      </trkpt>
      <trkpt lat="44.12524" lon="6.6137">
        <ele>1307.05</ele>
        <time>2019-08-03T07:04:35Z</time>
      </trkpt>
      <trkpt lat="44.12519" lon="6.61386">
        <ele>1308.01</ele>
        <time>2019-08-03T07:04:46Z</time>
      </trkpt>
      <trkpt lat="44.12509" lon="6.61422">
        <ele>1308.01</ele>
        <time>2019-08-03T07:05:01Z</time>
      </trkpt>
      <trkpt lat="44.12521" lon="6.61442">
        <ele>1308.49</ele>
        <time>2019-08-03T07:05:13Z</time>
      </trkpt>
      <trkpt lat="44.12545" lon="6.61455">
        <ele>1308.97</ele>
        <time>2019-08-03T07:05:25Z</time>
      </trkpt>
      <trkpt lat="44.12576" lon="6.61482">
        <ele>1310.9</ele>
        <time>2019-08-03T07:05:38Z</time>
      </trkpt>
      <trkpt lat="44.12591" lon="6.61506">
        <ele>1311.86</ele>
        <time>2019-08-03T07:05:51Z</time>
      </trkpt>
      <trkpt lat="44.12599" lon="6.61516">
        <ele>1311.86</ele>
        <time>2019-08-03T07:05:56Z</time>
      </trkpt>
      <trkpt lat="44.1259" lon="6.61533">
        <ele>1311.86</ele>
        <time>2019-08-03T07:06:10Z</time>
      </trkpt>
      <trkpt lat="44.12572" lon="6.61537">
        <ele>1310.41</ele>
        <time>2019-08-03T07:06:19Z</time>
      </trkpt>
      <trkpt lat="44.12579" lon="6.6155">
        <ele>1311.38</ele>
        <time>2019-08-03T07:06:29Z</time>
      </trkpt>
      <trkpt lat="44.12595" lon="6.6156">
        <ele>1312.34</ele>
        <time>2019-08-03T07:06:41Z</time>
      </trkpt>
      <trkpt lat="44.12611" lon="6.61565">
        <ele>1313.3</ele>
        <time>2019-08-03T07:06:59Z</time>
      </trkpt>
      <trkpt lat="44.12618" lon="6.61575">
        <ele>1315.22</ele>
        <time>2019-08-03T07:07:10Z</time>
      </trkpt>
      <trkpt lat="44.12601" lon="6.6158">
        <ele>1314.74</ele>
        <time>2019-08-03T07:07:23Z</time>
      </trkpt>
      <trkpt lat="44.12585" lon="6.61587">
        <ele>1315.7</ele>
        <time>2019-08-03T07:07:37Z</time>
      </trkpt>
      <trkpt lat="44.12584" lon="6.61587">
        <ele>1315.7</ele>
        <time>2019-08-03T07:07:38Z</time>
      </trkpt>
      <trkpt lat="44.12573" lon="6.61593">
        <ele>1314.74</ele>
        <time>2019-08-03T07:07:49Z</time>
      </trkpt>
      <trkpt lat="44.1256" lon="6.61595">
        <ele>1315.22</ele>
        <time>2019-08-03T07:08:02Z</time>
      </trkpt>
      <trkpt lat="44.12555" lon="6.61602">
        <ele>1315.22</ele>
        <time>2019-08-03T07:08:11Z</time>
      </trkpt>
      <trkpt lat="44.12565" lon="6.61605">
        <ele>1315.7</ele>
        <time>2019-08-03T07:08:27Z</time>
      </trkpt>
      <trkpt lat="44.12579" lon="6.61592">
        <ele>1317.14</ele>
        <time>2019-08-03T07:08:42Z</time>
      </trkpt>
      <trkpt lat="44.1258" lon="6.61574">
        <ele>1318.59</ele>
        <time>2019-08-03T07:08:52Z</time>
      </trkpt>
      <trkpt lat="44.12577" lon="6.61556">
        <ele>1320.51</ele>
        <time>2019-08-03T07:09:05Z</time>
      </trkpt>
      <trkpt lat="44.12568" lon="6.61559">
        <ele>1321.95</ele>
        <time>2019-08-03T07:09:18Z</time>
      </trkpt>
      <trkpt lat="44.12563" lon="6.61557">
        <ele>1321.95</ele>
        <time>2019-08-03T07:09:24Z</time>
      </trkpt>
      <trkpt lat="44.12547" lon="6.61558">
        <ele>1323.87</ele>
        <time>2019-08-03T07:09:37Z</time>
      </trkpt>
      <trkpt lat="44.12542" lon="6.61555">
        <ele>1325.31</ele>
        <time>2019-08-03T07:09:44Z</time>
      </trkpt>
      <trkpt lat="44.12536" lon="6.61542">
        <ele>1326.28</ele>
        <time>2019-08-03T07:09:58Z</time>
      </trkpt>
      <trkpt lat="44.12536" lon="6.61535">
        <ele>1327.24</ele>
        <time>2019-08-03T07:10:02Z</time>
      </trkpt>
      <trkpt lat="44.12535" lon="6.61531">
        <ele>1328.2</ele>
        <time>2019-08-03T07:10:05Z</time>
      </trkpt>
      <trkpt lat="44.12554" lon="6.61546">
        <ele>1328.2</ele>
        <time>2019-08-03T07:10:21Z</time>
      </trkpt>
      <trkpt lat="44.12543" lon="6.61525">
        <ele>1329.64</ele>
        <time>2019-08-03T07:10:34Z</time>
      </trkpt>
      <trkpt lat="44.12542" lon="6.61523">
        <ele>1330.6</ele>
        <time>2019-08-03T07:10:38Z</time>
      </trkpt>
      <trkpt lat="44.12531" lon="6.61518">
        <ele>1332.04</ele>
        <time>2019-08-03T07:10:50Z</time>
      </trkpt>
      <trkpt lat="44.12521" lon="6.6151">
        <ele>1333.49</ele>
        <time>2019-08-03T07:11:00Z</time>
      </trkpt>
      <trkpt lat="44.12516" lon="6.61507">
        <ele>1334.45</ele>
        <time>2019-08-03T07:11:06Z</time>
      </trkpt>
      <trkpt lat="44.12509" lon="6.61506">
        <ele>1335.41</ele>
        <time>2019-08-03T07:11:12Z</time>
      </trkpt>
      <trkpt lat="44.12509" lon="6.6151">
        <ele>1334.93</ele>
        <time>2019-08-03T07:11:30Z</time>
      </trkpt>
      <trkpt lat="44.12503" lon="6.61517">
        <ele>1333.97</ele>
        <time>2019-08-03T07:11:47Z</time>
      </trkpt>
      <trkpt lat="44.12499" lon="6.61529">
        <ele>1331.56</ele>
        <time>2019-08-03T07:11:57Z</time>
      </trkpt>
      <trkpt lat="44.1249" lon="6.61543">
        <ele>1330.12</ele>
        <time>2019-08-03T07:12:13Z</time>
      </trkpt>
      <trkpt lat="44.12487" lon="6.61536">
        <ele>1330.6</ele>
        <time>2019-08-03T07:12:37Z</time>
      </trkpt>
      <trkpt lat="44.12489" lon="6.61526">
        <ele>1328.2</ele>
        <time>2019-08-03T07:12:50Z</time>
      </trkpt>
      <trkpt lat="44.12486" lon="6.61514">
        <ele>1325.31</ele>
        <time>2019-08-03T07:13:04Z</time>
      </trkpt>
      <trkpt lat="44.12482" lon="6.61508">
        <ele>1323.87</ele>
        <time>2019-08-03T07:13:10Z</time>
      </trkpt>
      <trkpt lat="44.12479" lon="6.61506">
        <ele>1322.91</ele>
        <time>2019-08-03T07:13:12Z</time>
      </trkpt>
      <trkpt lat="44.12471" lon="6.61491">
        <ele>1321.47</ele>
        <time>2019-08-03T07:13:26Z</time>
      </trkpt>
      <trkpt lat="44.12468" lon="6.61478">
        <ele>1318.59</ele>
        <time>2019-08-03T07:13:39Z</time>
      </trkpt>
      <trkpt lat="44.12463" lon="6.61461">
        <ele>1315.22</ele>
        <time>2019-08-03T07:13:54Z</time>
      </trkpt>
      <trkpt lat="44.12457" lon="6.61442">
        <ele>1312.82</ele>
        <time>2019-08-03T07:14:09Z</time>
      </trkpt>
      <trkpt lat="44.12457" lon="6.6144">
        <ele>1311.38</ele>
        <time>2019-08-03T07:14:12Z</time>
      </trkpt>
      <trkpt lat="44.12456" lon="6.61432">
        <ele>1310.9</ele>
        <time>2019-08-03T07:14:26Z</time>
      </trkpt>
      <trkpt lat="44.12459" lon="6.61421">
        <ele>1309.45</ele>
        <time>2019-08-03T07:14:41Z</time>
      </trkpt>
      <trkpt lat="44.12451" lon="6.61422">
        <ele>1309.45</ele>
        <time>2019-08-03T07:15:01Z</time>
      </trkpt>
      <trkpt lat="44.12447" lon="6.61407">
        <ele>1308.97</ele>
        <time>2019-08-03T07:15:31Z</time>
      </trkpt>
      <trkpt lat="44.12452" lon="6.6141">
        <ele>1308.49</ele>
        <time>2019-08-03T07:15:47Z</time>
      </trkpt>
      <trkpt lat="44.12452" lon="6.61417">
        <ele>1308.97</ele>
        <time>2019-08-03T07:16:01Z</time>
      </trkpt>
      <trkpt lat="44.1245" lon="6.61427">
        <ele>1308.97</ele>
        <time>2019-08-03T07:16:29Z</time>
      </trkpt>
      <trkpt lat="44.12454" lon="6.61431">
        <ele>1310.41</ele>
        <time>2019-08-03T07:16:46Z</time>
      </trkpt>
      <trkpt lat="44.12454" lon="6.61437">
        <ele>1311.86</ele>
        <time>2019-08-03T07:16:53Z</time>
      </trkpt>
      <trkpt lat="44.12454" lon="6.61442">
        <ele>1313.78</ele>
        <time>2019-08-03T07:16:58Z</time>
      </trkpt>
      <trkpt lat="44.12454" lon="6.61443">
        <ele>1313.78</ele>
        <time>2019-08-03T07:17:15Z</time>
      </trkpt>
      <trkpt lat="44.12451" lon="6.61446">
        <ele>1314.74</ele>
        <time>2019-08-03T07:17:39Z</time>
      </trkpt>
      <trkpt lat="44.12453" lon="6.6146">
        <ele>1316.18</ele>
        <time>2019-08-03T07:17:51Z</time>
      </trkpt>
      <trkpt lat="44.12458" lon="6.61472">
        <ele>1319.07</ele>
        <time>2019-08-03T07:18:03Z</time>
      </trkpt>
      <trkpt lat="44.12467" lon="6.6149">
        <ele>1322.43</ele>
        <time>2019-08-03T07:18:18Z</time>
      </trkpt>
      <trkpt lat="44.12469" lon="6.615">
        <ele>1323.39</ele>
        <time>2019-08-03T07:18:28Z</time>
      </trkpt>
      <trkpt lat="44.12475" lon="6.61513">
        <ele>1325.8</ele>
        <time>2019-08-03T07:18:41Z</time>
      </trkpt>
      <trkpt lat="44.12478" lon="6.61527">
        <ele>1328.68</ele>
        <time>2019-08-03T07:18:54Z</time>
      </trkpt>
      <trkpt lat="44.12481" lon="6.61539">
        <ele>1331.56</ele>
        <time>2019-08-03T07:19:08Z</time>
      </trkpt>
      <trkpt lat="44.12485" lon="6.61552">
        <ele>1332.04</ele>
        <time>2019-08-03T07:19:22Z</time>
      </trkpt>
      <trkpt lat="44.12473" lon="6.61542">
        <ele>1331.56</ele>
        <time>2019-08-03T07:19:42Z</time>
      </trkpt>
      <trkpt lat="44.1247" lon="6.61532">
        <ele>1331.56</ele>
        <time>2019-08-03T07:20:07Z</time>
      </trkpt>
      <trkpt lat="44.12466" lon="6.61529">
        <ele>1331.56</ele>
        <time>2019-08-03T07:20:34Z</time>
      </trkpt>
      <trkpt lat="44.12478" lon="6.61537">
        <ele>1332.52</ele>
        <time>2019-08-03T07:20:56Z</time>
      </trkpt>
      <trkpt lat="44.12485" lon="6.61527">
        <ele>1333.97</ele>
        <time>2019-08-03T07:21:09Z</time>
      </trkpt>
      <trkpt lat="44.1249" lon="6.61515">
        <ele>1335.89</ele>
        <time>2019-08-03T07:21:22Z</time>
      </trkpt>
      <trkpt lat="44.12491" lon="6.61513">
        <ele>1337.81</ele>
        <time>2019-08-03T07:21:34Z</time>
      </trkpt>
      <trkpt lat="44.12491" lon="6.61523">
        <ele>1338.77</ele>
        <time>2019-08-03T07:21:45Z</time>
      </trkpt>
      <trkpt lat="44.12489" lon="6.61537">
        <ele>1340.22</ele>
        <time>2019-08-03T07:21:57Z</time>
      </trkpt>
      <trkpt lat="44.12487" lon="6.61553">
        <ele>1342.62</ele>
        <time>2019-08-03T07:22:12Z</time>
      </trkpt>
      <trkpt lat="44.12487" lon="6.6157">
        <ele>1343.58</ele>
        <time>2019-08-03T07:22:26Z</time>
      </trkpt>
      <trkpt lat="44.12488" lon="6.61584">
        <ele>1345.5</ele>
        <time>2019-08-03T07:22:39Z</time>
      </trkpt>
      <trkpt lat="44.1249" lon="6.61603">
        <ele>1347.91</ele>
        <time>2019-08-03T07:22:52Z</time>
      </trkpt>
      <trkpt lat="44.1249" lon="6.61616">
        <ele>1348.87</ele>
        <time>2019-08-03T07:23:03Z</time>
      </trkpt>
      <trkpt lat="44.12485" lon="6.61633">
        <ele>1351.27</ele>
        <time>2019-08-03T07:23:18Z</time>
      </trkpt>
      <trkpt lat="44.12475" lon="6.61645">
        <ele>1352.71</ele>
        <time>2019-08-03T07:23:33Z</time>
      </trkpt>
      <trkpt lat="44.12469" lon="6.61651">
        <ele>1354.63</ele>
        <time>2019-08-03T07:23:48Z</time>
      </trkpt>
      <trkpt lat="44.12462" lon="6.61659">
        <ele>1356.56</ele>
        <time>2019-08-03T07:24:02Z</time>
      </trkpt>
      <trkpt lat="44.12458" lon="6.61665">
        <ele>1358</ele>
        <time>2019-08-03T07:24:16Z</time>
      </trkpt>
      <trkpt lat="44.12461" lon="6.61669">
        <ele>1358.48</ele>
        <time>2019-08-03T07:24:31Z</time>
      </trkpt>
      <trkpt lat="44.12449" lon="6.61668">
        <ele>1359.92</ele>
        <time>2019-08-03T07:24:49Z</time>
      </trkpt>
      <trkpt lat="44.12439" lon="6.61691">
        <ele>1361.36</ele>
        <time>2019-08-03T07:25:04Z</time>
      </trkpt>
      <trkpt lat="44.12431" lon="6.61709">
        <ele>1363.77</ele>
        <time>2019-08-03T07:25:21Z</time>
      </trkpt>
      <trkpt lat="44.12421" lon="6.61724">
        <ele>1365.21</ele>
        <time>2019-08-03T07:25:37Z</time>
      </trkpt>
      <trkpt lat="44.12414" lon="6.61733">
        <ele>1366.65</ele>
        <time>2019-08-03T07:25:49Z</time>
      </trkpt>
      <trkpt lat="44.12413" lon="6.61734">
        <ele>1367.13</ele>
        <time>2019-08-03T07:25:50Z</time>
      </trkpt>
      <trkpt lat="44.12409" lon="6.61755">
        <ele>1368.57</ele>
        <time>2019-08-03T07:26:05Z</time>
      </trkpt>
      <trkpt lat="44.12407" lon="6.61773">
        <ele>1370.5</ele>
        <time>2019-08-03T07:26:19Z</time>
      </trkpt>
      <trkpt lat="44.12413" lon="6.6179">
        <ele>1372.42</ele>
        <time>2019-08-03T07:26:33Z</time>
      </trkpt>
      <trkpt lat="44.12414" lon="6.61802">
        <ele>1374.34</ele>
        <time>2019-08-03T07:26:46Z</time>
      </trkpt>
      <trkpt lat="44.12414" lon="6.61815">
        <ele>1376.75</ele>
        <time>2019-08-03T07:26:58Z</time>
      </trkpt>
      <trkpt lat="44.12417" lon="6.61829">
        <ele>1378.19</ele>
        <time>2019-08-03T07:27:12Z</time>
      </trkpt>
      <trkpt lat="44.1242" lon="6.61841">
        <ele>1380.59</ele>
        <time>2019-08-03T07:27:24Z</time>
      </trkpt>
      <trkpt lat="44.12416" lon="6.61857">
        <ele>1381.55</ele>
        <time>2019-08-03T07:27:39Z</time>
      </trkpt>
      <trkpt lat="44.1241" lon="6.61871">
        <ele>1383.96</ele>
        <time>2019-08-03T07:27:54Z</time>
      </trkpt>
      <trkpt lat="44.12408" lon="6.61886">
        <ele>1385.88</ele>
        <time>2019-08-03T07:28:06Z</time>
      </trkpt>
      <trkpt lat="44.12407" lon="6.61901">
        <ele>1387.8</ele>
        <time>2019-08-03T07:28:18Z</time>
      </trkpt>
      <trkpt lat="44.12398" lon="6.61911">
        <ele>1388.28</ele>
        <time>2019-08-03T07:28:33Z</time>
      </trkpt>
      <trkpt lat="44.12395" lon="6.61918">
        <ele>1389.24</ele>
        <time>2019-08-03T07:28:46Z</time>
      </trkpt>
      <trkpt lat="44.12391" lon="6.61927">
        <ele>1390.68</ele>
        <time>2019-08-03T07:29:00Z</time>
      </trkpt>
      <trkpt lat="44.1239" lon="6.61928">
        <ele>1390.2</ele>
        <time>2019-08-03T07:29:29Z</time>
      </trkpt>
      <trkpt lat="44.12385" lon="6.61937">
        <ele>1392.13</ele>
        <time>2019-08-03T07:29:41Z</time>
      </trkpt>
      <trkpt lat="44.12383" lon="6.61941">
        <ele>1392.61</ele>
        <time>2019-08-03T07:29:45Z</time>
      </trkpt>
      <trkpt lat="44.12374" lon="6.61957">
        <ele>1395.97</ele>
        <time>2019-08-03T07:30:01Z</time>
      </trkpt>
      <trkpt lat="44.12365" lon="6.61972">
        <ele>1397.89</ele>
        <time>2019-08-03T07:30:18Z</time>
      </trkpt>
      <trkpt lat="44.12361" lon="6.61972">
        <ele>1397.89</ele>
        <time>2019-08-03T07:30:24Z</time>
      </trkpt>
      <trkpt lat="44.1235" lon="6.61973">
        <ele>1400.3</ele>
        <time>2019-08-03T07:30:37Z</time>
      </trkpt>
      <trkpt lat="44.12347" lon="6.61984">
        <ele>1401.74</ele>
        <time>2019-08-03T07:30:49Z</time>
      </trkpt>
      <trkpt lat="44.12347" lon="6.62002">
        <ele>1403.66</ele>
        <time>2019-08-03T07:31:04Z</time>
      </trkpt>
      <trkpt lat="44.12333" lon="6.62009">
        <ele>1405.58</ele>
        <time>2019-08-03T07:31:20Z</time>
      </trkpt>
      <trkpt lat="44.12316" lon="6.62008">
        <ele>1407.03</ele>
        <time>2019-08-03T07:31:36Z</time>
      </trkpt>
      <trkpt lat="44.12313" lon="6.6203">
        <ele>1408.95</ele>
        <time>2019-08-03T07:31:51Z</time>
      </trkpt>
      <trkpt lat="44.12304" lon="6.62044">
        <ele>1411.35</ele>
        <time>2019-08-03T07:32:06Z</time>
      </trkpt>
      <trkpt lat="44.12304" lon="6.6205">
        <ele>1411.83</ele>
        <time>2019-08-03T07:32:21Z</time>
      </trkpt>
      <trkpt lat="44.12303" lon="6.62053">
        <ele>1412.31</ele>
        <time>2019-08-03T07:32:29Z</time>
      </trkpt>
      <trkpt lat="44.12304" lon="6.62068">
        <ele>1414.72</ele>
        <time>2019-08-03T07:32:42Z</time>
      </trkpt>
      <trkpt lat="44.12298" lon="6.62076">
        <ele>1416.64</ele>
        <time>2019-08-03T07:32:57Z</time>
      </trkpt>
      <trkpt lat="44.12287" lon="6.62092">
        <ele>1419.04</ele>
        <time>2019-08-03T07:33:14Z</time>
      </trkpt>
      <trkpt lat="44.1229" lon="6.62116">
        <ele>1419.52</ele>
        <time>2019-08-03T07:33:31Z</time>
      </trkpt>
      <trkpt lat="44.12288" lon="6.62122">
        <ele>1419.04</ele>
        <time>2019-08-03T07:33:35Z</time>
      </trkpt>
      <trkpt lat="44.12287" lon="6.62139">
        <ele>1419.04</ele>
        <time>2019-08-03T07:33:44Z</time>
      </trkpt>
      <trkpt lat="44.12284" lon="6.62157">
        <ele>1419.04</ele>
        <time>2019-08-03T07:33:54Z</time>
      </trkpt>
      <trkpt lat="44.12282" lon="6.62171">
        <ele>1420.49</ele>
        <time>2019-08-03T07:34:08Z</time>
      </trkpt>
      <trkpt lat="44.12282" lon="6.62173">
        <ele>1420.97</ele>
        <time>2019-08-03T07:34:10Z</time>
      </trkpt>
      <trkpt lat="44.1228" lon="6.62183">
        <ele>1421.93</ele>
        <time>2019-08-03T07:34:28Z</time>
      </trkpt>
      <trkpt lat="44.12286" lon="6.62188">
        <ele>1421.93</ele>
        <time>2019-08-03T07:34:49Z</time>
      </trkpt>
      <trkpt lat="44.12288" lon="6.62202">
        <ele>1423.37</ele>
        <time>2019-08-03T07:35:05Z</time>
      </trkpt>
      <trkpt lat="44.12296" lon="6.62205">
        <ele>1423.85</ele>
        <time>2019-08-03T07:35:11Z</time>
      </trkpt>
      <trkpt lat="44.12306" lon="6.62204">
        <ele>1426.25</ele>
        <time>2019-08-03T07:35:24Z</time>
      </trkpt>
      <trkpt lat="44.12296" lon="6.62227">
        <ele>1429.14</ele>
        <time>2019-08-03T07:35:38Z</time>
      </trkpt>
      <trkpt lat="44.12276" lon="6.62243">
        <ele>1428.18</ele>
        <time>2019-08-03T07:35:45Z</time>
      </trkpt>
      <trkpt lat="44.12277" lon="6.62239">
        <ele>1428.66</ele>
        <time>2019-08-03T07:35:48Z</time>
      </trkpt>
      <trkpt lat="44.12275" lon="6.6224">
        <ele>1428.18</ele>
        <time>2019-08-03T07:35:52Z</time>
      </trkpt>
      <trkpt lat="44.12268" lon="6.62264">
        <ele>1428.18</ele>
        <time>2019-08-03T07:36:09Z</time>
      </trkpt>
      <trkpt lat="44.12272" lon="6.62265">
        <ele>1428.18</ele>
        <time>2019-08-03T07:36:34Z</time>
      </trkpt>
      <trkpt lat="44.12276" lon="6.62262">
        <ele>1428.18</ele>
        <time>2019-08-03T07:36:53Z</time>
      </trkpt>
      <trkpt lat="44.12272" lon="6.62261">
        <ele>1428.18</ele>
        <time>2019-08-03T07:37:16Z</time>
      </trkpt>
      <trkpt lat="44.12269" lon="6.62266">
        <ele>1429.62</ele>
        <time>2019-08-03T07:37:23Z</time>
      </trkpt>
      <trkpt lat="44.12269" lon="6.62266">
        <ele>1428.18</ele>
        <time>2019-08-03T07:37:24Z</time>
      </trkpt>
      <trkpt lat="44.12271" lon="6.6227">
        <ele>1427.7</ele>
        <time>2019-08-03T07:37:37Z</time>
      </trkpt>
      <trkpt lat="44.12275" lon="6.62272">
        <ele>1427.7</ele>
        <time>2019-08-03T07:37:54Z</time>
      </trkpt>
      <trkpt lat="44.12275" lon="6.6228">
        <ele>1427.7</ele>
        <time>2019-08-03T07:37:57Z</time>
      </trkpt>
      <trkpt lat="44.12276" lon="6.62283">
        <ele>1428.18</ele>
        <time>2019-08-03T07:37:59Z</time>
      </trkpt>
      <trkpt lat="44.1228" lon="6.62294">
        <ele>1427.7</ele>
        <time>2019-08-03T07:38:10Z</time>
      </trkpt>
      <trkpt lat="44.12277" lon="6.623">
        <ele>1427.7</ele>
        <time>2019-08-03T07:38:14Z</time>
      </trkpt>
      <trkpt lat="44.12268" lon="6.62304">
        <ele>1427.21</ele>
        <time>2019-08-03T07:38:21Z</time>
      </trkpt>
      <trkpt lat="44.12271" lon="6.62323">
        <ele>1427.7</ele>
        <time>2019-08-03T07:38:33Z</time>
      </trkpt>
      <trkpt lat="44.12268" lon="6.62335">
        <ele>1428.18</ele>
        <time>2019-08-03T07:38:45Z</time>
      </trkpt>
      <trkpt lat="44.12258" lon="6.62353">
        <ele>1429.14</ele>
        <time>2019-08-03T07:39:01Z</time>
      </trkpt>
      <trkpt lat="44.12257" lon="6.62377">
        <ele>1430.1</ele>
        <time>2019-08-03T07:39:14Z</time>
      </trkpt>
      <trkpt lat="44.12256" lon="6.62383">
        <ele>1431.54</ele>
        <time>2019-08-03T07:39:18Z</time>
      </trkpt>
      <trkpt lat="44.12257" lon="6.62398">
        <ele>1432.02</ele>
        <time>2019-08-03T07:39:28Z</time>
      </trkpt>
      <trkpt lat="44.12258" lon="6.6241">
        <ele>1433.46</ele>
        <time>2019-08-03T07:39:42Z</time>
      </trkpt>
      <trkpt lat="44.12263" lon="6.62408">
        <ele>1434.42</ele>
        <time>2019-08-03T07:40:01Z</time>
      </trkpt>
      <trkpt lat="44.12255" lon="6.62409">
        <ele>1436.83</ele>
        <time>2019-08-03T07:40:13Z</time>
      </trkpt>
      <trkpt lat="44.12202" lon="6.62361">
        <ele>1438.75</ele>
        <time>2019-08-03T07:40:25Z</time>
      </trkpt>
      <trkpt lat="44.12194" lon="6.62356">
        <ele>1439.71</ele>
        <time>2019-08-03T07:40:32Z</time>
      </trkpt>
      <trkpt lat="44.12164" lon="6.62333">
        <ele>1441.15</ele>
        <time>2019-08-03T07:40:44Z</time>
      </trkpt>
      <trkpt lat="44.12164" lon="6.62333">
        <ele>1441.63</ele>
        <time>2019-08-03T07:40:45Z</time>
      </trkpt>
      <trkpt lat="44.12132" lon="6.62322">
        <ele>1443.08</ele>
        <time>2019-08-03T07:41:00Z</time>
      </trkpt>
      <trkpt lat="44.12118" lon="6.62316">
        <ele>1443.56</ele>
        <time>2019-08-03T07:41:06Z</time>
      </trkpt>
      <trkpt lat="44.12102" lon="6.62321">
        <ele>1444.52</ele>
        <time>2019-08-03T07:41:19Z</time>
      </trkpt>
      <trkpt lat="44.12094" lon="6.62335">
        <ele>1446.44</ele>
        <time>2019-08-03T07:41:34Z</time>
      </trkpt>
      <trkpt lat="44.12096" lon="6.62334">
        <ele>1447.4</ele>
        <time>2019-08-03T07:41:47Z</time>
      </trkpt>
      <trkpt lat="44.12133" lon="6.62333">
        <ele>1447.88</ele>
        <time>2019-08-03T07:42:07Z</time>
      </trkpt>
      <trkpt lat="44.12127" lon="6.62339">
        <ele>1448.36</ele>
        <time>2019-08-03T07:42:11Z</time>
      </trkpt>
      <trkpt lat="44.12117" lon="6.62351">
        <ele>1449.32</ele>
        <time>2019-08-03T07:42:18Z</time>
      </trkpt>
      <trkpt lat="44.12116" lon="6.62355">
        <ele>1449.32</ele>
        <time>2019-08-03T07:42:20Z</time>
      </trkpt>
      <trkpt lat="44.12107" lon="6.6239">
        <ele>1450.77</ele>
        <time>2019-08-03T07:42:37Z</time>
      </trkpt>
      <trkpt lat="44.12129" lon="6.62466">
        <ele>1451.73</ele>
        <time>2019-08-03T07:42:51Z</time>
      </trkpt>
      <trkpt lat="44.1214" lon="6.62501">
        <ele>1451.73</ele>
        <time>2019-08-03T07:43:01Z</time>
      </trkpt>
      <trkpt lat="44.12149" lon="6.62515">
        <ele>1452.69</ele>
        <time>2019-08-03T07:43:07Z</time>
      </trkpt>
      <trkpt lat="44.12161" lon="6.62541">
        <ele>1455.09</ele>
        <time>2019-08-03T07:43:19Z</time>
      </trkpt>
      <trkpt lat="44.122" lon="6.62589">
        <ele>1457.5</ele>
        <time>2019-08-03T07:43:31Z</time>
      </trkpt>
      <trkpt lat="44.12211" lon="6.62595">
        <ele>1460.38</ele>
        <time>2019-08-03T07:43:43Z</time>
      </trkpt>
      <trkpt lat="44.12212" lon="6.62597">
        <ele>1461.82</ele>
        <time>2019-08-03T07:43:57Z</time>
      </trkpt>
      <trkpt lat="44.12215" lon="6.62594">
        <ele>1462.78</ele>
        <time>2019-08-03T07:44:06Z</time>
      </trkpt>
      <trkpt lat="44.12213" lon="6.62586">
        <ele>1464.23</ele>
        <time>2019-08-03T07:44:19Z</time>
      </trkpt>
      <trkpt lat="44.12193" lon="6.62569">
        <ele>1466.15</ele>
        <time>2019-08-03T07:44:37Z</time>
      </trkpt>
      <trkpt lat="44.12209" lon="6.62586">
        <ele>1467.59</ele>
        <time>2019-08-03T07:44:48Z</time>
      </trkpt>
      <trkpt lat="44.12223" lon="6.6259">
        <ele>1468.55</ele>
        <time>2019-08-03T07:45:08Z</time>
      </trkpt>
      <trkpt lat="44.12219" lon="6.6261">
        <ele>1470.47</ele>
        <time>2019-08-03T07:45:19Z</time>
      </trkpt>
      <trkpt lat="44.12213" lon="6.62625">
        <ele>1471.92</ele>
        <time>2019-08-03T07:45:31Z</time>
      </trkpt>
      <trkpt lat="44.12206" lon="6.62634">
        <ele>1472.4</ele>
        <time>2019-08-03T07:45:44Z</time>
      </trkpt>
      <trkpt lat="44.12205" lon="6.62655">
        <ele>1474.32</ele>
        <time>2019-08-03T07:45:59Z</time>
      </trkpt>
      <trkpt lat="44.12203" lon="6.62667">
        <ele>1474.8</ele>
        <time>2019-08-03T07:46:12Z</time>
      </trkpt>
      <trkpt lat="44.12195" lon="6.62684">
        <ele>1475.76</ele>
        <time>2019-08-03T07:46:27Z</time>
      </trkpt>
      <trkpt lat="44.12189" lon="6.62689">
        <ele>1477.68</ele>
        <time>2019-08-03T07:46:39Z</time>
      </trkpt>
      <trkpt lat="44.12189" lon="6.6269">
        <ele>1477.2</ele>
        <time>2019-08-03T07:46:40Z</time>
      </trkpt>
      <trkpt lat="44.12186" lon="6.62692">
        <ele>1478.65</ele>
        <time>2019-08-03T07:46:55Z</time>
      </trkpt>
      <trkpt lat="44.12187" lon="6.62695">
        <ele>1480.09</ele>
        <time>2019-08-03T07:47:15Z</time>
      </trkpt>
      <trkpt lat="44.12181" lon="6.62697">
        <ele>1481.05</ele>
        <time>2019-08-03T07:47:21Z</time>
      </trkpt>
      <trkpt lat="44.12166" lon="6.62695">
        <ele>1482.97</ele>
        <time>2019-08-03T07:47:35Z</time>
      </trkpt>
      <trkpt lat="44.12146" lon="6.62689">
        <ele>1484.89</ele>
        <time>2019-08-03T07:47:48Z</time>
      </trkpt>
      <trkpt lat="44.12136" lon="6.62708">
        <ele>1487.3</ele>
        <time>2019-08-03T07:48:02Z</time>
      </trkpt>
      <trkpt lat="44.12134" lon="6.62728">
        <ele>1490.18</ele>
        <time>2019-08-03T07:48:15Z</time>
      </trkpt>
      <trkpt lat="44.12135" lon="6.62741">
        <ele>1491.14</ele>
        <time>2019-08-03T07:48:27Z</time>
      </trkpt>
      <trkpt lat="44.12131" lon="6.62746">
        <ele>1490.66</ele>
        <time>2019-08-03T07:48:44Z</time>
      </trkpt>
      <trkpt lat="44.12132" lon="6.62762">
        <ele>1493.06</ele>
        <time>2019-08-03T07:48:57Z</time>
      </trkpt>
      <trkpt lat="44.12132" lon="6.62773">
        <ele>1494.51</ele>
        <time>2019-08-03T07:49:09Z</time>
      </trkpt>
      <trkpt lat="44.12131" lon="6.62788">
        <ele>1495.47</ele>
        <time>2019-08-03T07:49:18Z</time>
      </trkpt>
      <trkpt lat="44.12131" lon="6.62806">
        <ele>1496.43</ele>
        <time>2019-08-03T07:49:32Z</time>
      </trkpt>
      <trkpt lat="44.12129" lon="6.62824">
        <ele>1498.35</ele>
        <time>2019-08-03T07:49:47Z</time>
      </trkpt>
      <trkpt lat="44.12127" lon="6.6284">
        <ele>1500.76</ele>
        <time>2019-08-03T07:50:00Z</time>
      </trkpt>
      <trkpt lat="44.12127" lon="6.62842">
        <ele>1500.76</ele>
        <time>2019-08-03T07:50:01Z</time>
      </trkpt>
      <trkpt lat="44.12126" lon="6.62851">
        <ele>1501.72</ele>
        <time>2019-08-03T07:50:08Z</time>
      </trkpt>
      <trkpt lat="44.12124" lon="6.62862">
        <ele>1502.68</ele>
        <time>2019-08-03T07:50:19Z</time>
      </trkpt>
      <trkpt lat="44.12121" lon="6.62873">
        <ele>1505.08</ele>
        <time>2019-08-03T07:50:31Z</time>
      </trkpt>
      <trkpt lat="44.12119" lon="6.62886">
        <ele>1506.52</ele>
        <time>2019-08-03T07:50:44Z</time>
      </trkpt>
      <trkpt lat="44.1212" lon="6.62892">
        <ele>1507.97</ele>
        <time>2019-08-03T07:50:55Z</time>
      </trkpt>
      <trkpt lat="44.12119" lon="6.62891">
        <ele>1508.45</ele>
        <time>2019-08-03T07:50:59Z</time>
      </trkpt>
      <trkpt lat="44.12113" lon="6.62899">
        <ele>1509.89</ele>
        <time>2019-08-03T07:51:13Z</time>
      </trkpt>
      <trkpt lat="44.12111" lon="6.62914">
        <ele>1512.77</ele>
        <time>2019-08-03T07:51:32Z</time>
      </trkpt>
      <trkpt lat="44.12105" lon="6.62921">
        <ele>1513.73</ele>
        <time>2019-08-03T07:51:44Z</time>
      </trkpt>
      <trkpt lat="44.12093" lon="6.62938">
        <ele>1515.18</ele>
        <time>2019-08-03T07:51:59Z</time>
      </trkpt>
      <trkpt lat="44.12087" lon="6.62958">
        <ele>1517.58</ele>
        <time>2019-08-03T07:52:14Z</time>
      </trkpt>
      <trkpt lat="44.12082" lon="6.62968">
        <ele>1518.54</ele>
        <time>2019-08-03T07:52:27Z</time>
      </trkpt>
      <trkpt lat="44.1207" lon="6.62978">
        <ele>1521.42</ele>
        <time>2019-08-03T07:52:42Z</time>
      </trkpt>
      <trkpt lat="44.12061" lon="6.62995">
        <ele>1522.39</ele>
        <time>2019-08-03T07:52:58Z</time>
      </trkpt>
      <trkpt lat="44.12058" lon="6.63006">
        <ele>1522.39</ele>
        <time>2019-08-03T07:53:14Z</time>
      </trkpt>
      <trkpt lat="44.12051" lon="6.63024">
        <ele>1523.35</ele>
        <time>2019-08-03T07:53:29Z</time>
      </trkpt>
      <trkpt lat="44.12052" lon="6.63027">
        <ele>1524.31</ele>
        <time>2019-08-03T07:53:31Z</time>
      </trkpt>
      <trkpt lat="44.12057" lon="6.63045">
        <ele>1525.27</ele>
        <time>2019-08-03T07:53:43Z</time>
      </trkpt>
      <trkpt lat="44.12057" lon="6.63054">
        <ele>1525.75</ele>
        <time>2019-08-03T07:53:54Z</time>
      </trkpt>
      <trkpt lat="44.12052" lon="6.63065">
        <ele>1528.15</ele>
        <time>2019-08-03T07:54:06Z</time>
      </trkpt>
      <trkpt lat="44.12045" lon="6.6308">
        <ele>1530.08</ele>
        <time>2019-08-03T07:54:21Z</time>
      </trkpt>
      <trkpt lat="44.1204" lon="6.6309">
        <ele>1532</ele>
        <time>2019-08-03T07:54:36Z</time>
      </trkpt>
      <trkpt lat="44.12035" lon="6.63099">
        <ele>1534.4</ele>
        <time>2019-08-03T07:54:50Z</time>
      </trkpt>
      <trkpt lat="44.12031" lon="6.63107">
        <ele>1535.84</ele>
        <time>2019-08-03T07:54:59Z</time>
      </trkpt>
      <trkpt lat="44.12028" lon="6.63115">
        <ele>1537.29</ele>
        <time>2019-08-03T07:55:13Z</time>
      </trkpt>
      <trkpt lat="44.12021" lon="6.63129">
        <ele>1539.21</ele>
        <time>2019-08-03T07:55:32Z</time>
      </trkpt>
      <trkpt lat="44.12022" lon="6.6313">
        <ele>1539.21</ele>
        <time>2019-08-03T07:55:33Z</time>
      </trkpt>
      <trkpt lat="44.12025" lon="6.63141">
        <ele>1539.69</ele>
        <time>2019-08-03T07:55:42Z</time>
      </trkpt>
      <trkpt lat="44.12024" lon="6.63158">
        <ele>1541.61</ele>
        <time>2019-08-03T07:55:56Z</time>
      </trkpt>
      <trkpt lat="44.12029" lon="6.63171">
        <ele>1544.01</ele>
        <time>2019-08-03T07:56:08Z</time>
      </trkpt>
      <trkpt lat="44.12031" lon="6.63183">
        <ele>1545.46</ele>
        <time>2019-08-03T07:56:20Z</time>
      </trkpt>
      <trkpt lat="44.12022" lon="6.63192">
        <ele>1546.9</ele>
        <time>2019-08-03T07:56:32Z</time>
      </trkpt>
      <trkpt lat="44.12012" lon="6.63203">
        <ele>1548.34</ele>
        <time>2019-08-03T07:56:47Z</time>
      </trkpt>
      <trkpt lat="44.12016" lon="6.63205">
        <ele>1548.82</ele>
        <time>2019-08-03T07:56:57Z</time>
      </trkpt>
      <trkpt lat="44.12015" lon="6.63207">
        <ele>1548.34</ele>
        <time>2019-08-03T07:57:19Z</time>
      </trkpt>
      <trkpt lat="44.12012" lon="6.63213">
        <ele>1548.82</ele>
        <time>2019-08-03T07:57:47Z</time>
      </trkpt>
      <trkpt lat="44.12006" lon="6.63223">
        <ele>1550.26</ele>
        <time>2019-08-03T07:58:09Z</time>
      </trkpt>
      <trkpt lat="44.12" lon="6.63235">
        <ele>1551.22</ele>
        <time>2019-08-03T07:58:21Z</time>
      </trkpt>
      <trkpt lat="44.11994" lon="6.63245">
        <ele>1553.63</ele>
        <time>2019-08-03T07:58:30Z</time>
      </trkpt>
      <trkpt lat="44.12001" lon="6.6326">
        <ele>1555.55</ele>
        <time>2019-08-03T07:58:41Z</time>
      </trkpt>
      <trkpt lat="44.12019" lon="6.63263">
        <ele>1556.51</ele>
        <time>2019-08-03T07:58:54Z</time>
      </trkpt>
      <trkpt lat="44.12026" lon="6.63281">
        <ele>1557.47</ele>
        <time>2019-08-03T07:59:09Z</time>
      </trkpt>
      <trkpt lat="44.12019" lon="6.633">
        <ele>1559.4</ele>
        <time>2019-08-03T07:59:26Z</time>
      </trkpt>
      <trkpt lat="44.12026" lon="6.63314">
        <ele>1560.36</ele>
        <time>2019-08-03T07:59:39Z</time>
      </trkpt>
      <trkpt lat="44.12041" lon="6.63324">
        <ele>1561.8</ele>
        <time>2019-08-03T07:59:54Z</time>
      </trkpt>
      <trkpt lat="44.1204" lon="6.63328">
        <ele>1561.8</ele>
        <time>2019-08-03T07:59:58Z</time>
      </trkpt>
      <trkpt lat="44.12039" lon="6.63343">
        <ele>1560.36</ele>
        <time>2019-08-03T08:00:13Z</time>
      </trkpt>
      <trkpt lat="44.12038" lon="6.63345">
        <ele>1560.84</ele>
        <time>2019-08-03T08:00:15Z</time>
      </trkpt>
      <trkpt lat="44.12037" lon="6.63359">
        <ele>1561.8</ele>
        <time>2019-08-03T08:00:28Z</time>
      </trkpt>
      <trkpt lat="44.12025" lon="6.63374">
        <ele>1562.28</ele>
        <time>2019-08-03T08:00:40Z</time>
      </trkpt>
      <trkpt lat="44.12019" lon="6.63386">
        <ele>1563.24</ele>
        <time>2019-08-03T08:00:52Z</time>
      </trkpt>
      <trkpt lat="44.1201" lon="6.634">
        <ele>1563.72</ele>
        <time>2019-08-03T08:01:07Z</time>
      </trkpt>
      <trkpt lat="44.12009" lon="6.63402">
        <ele>1564.2</ele>
        <time>2019-08-03T08:01:09Z</time>
      </trkpt>
      <trkpt lat="44.1201" lon="6.63411">
        <ele>1564.2</ele>
        <time>2019-08-03T08:01:15Z</time>
      </trkpt>
      <trkpt lat="44.12013" lon="6.63431">
        <ele>1564.68</ele>
        <time>2019-08-03T08:01:31Z</time>
      </trkpt>
      <trkpt lat="44.12022" lon="6.63449">
        <ele>1566.12</ele>
        <time>2019-08-03T08:01:45Z</time>
      </trkpt>
      <trkpt lat="44.12024" lon="6.63454">
        <ele>1566.12</ele>
        <time>2019-08-03T08:01:49Z</time>
      </trkpt>
      <trkpt lat="44.12013" lon="6.63477">
        <ele>1567.57</ele>
        <time>2019-08-03T08:02:06Z</time>
      </trkpt>
      <trkpt lat="44.12031" lon="6.63492">
        <ele>1568.05</ele>
        <time>2019-08-03T08:02:19Z</time>
      </trkpt>
      <trkpt lat="44.12052" lon="6.63492">
        <ele>1568.05</ele>
        <time>2019-08-03T08:02:34Z</time>
      </trkpt>
      <trkpt lat="44.12068" lon="6.63494">
        <ele>1568.53</ele>
        <time>2019-08-03T08:02:47Z</time>
      </trkpt>
      <trkpt lat="44.12076" lon="6.63497">
        <ele>1568.05</ele>
        <time>2019-08-03T08:02:54Z</time>
      </trkpt>
      <trkpt lat="44.12084" lon="6.63498">
        <ele>1567.09</ele>
        <time>2019-08-03T08:03:01Z</time>
      </trkpt>
      <trkpt lat="44.12101" lon="6.635">
        <ele>1566.61</ele>
        <time>2019-08-03T08:03:17Z</time>
      </trkpt>
      <trkpt lat="44.12109" lon="6.63501">
        <ele>1566.61</ele>
        <time>2019-08-03T08:03:27Z</time>
      </trkpt>
      <trkpt lat="44.12122" lon="6.63505">
        <ele>1566.12</ele>
        <time>2019-08-03T08:03:41Z</time>
      </trkpt>
      <trkpt lat="44.12131" lon="6.63515">
        <ele>1566.61</ele>
        <time>2019-08-03T08:03:57Z</time>
      </trkpt>
      <trkpt lat="44.12139" lon="6.63531">
        <ele>1566.12</ele>
        <time>2019-08-03T08:04:14Z</time>
      </trkpt>
      <trkpt lat="44.12153" lon="6.63544">
        <ele>1566.61</ele>
        <time>2019-08-03T08:04:28Z</time>
      </trkpt>
      <trkpt lat="44.12162" lon="6.63553">
        <ele>1566.61</ele>
        <time>2019-08-03T08:04:40Z</time>
      </trkpt>
      <trkpt lat="44.12165" lon="6.63567">
        <ele>1567.09</ele>
        <time>2019-08-03T08:04:55Z</time>
      </trkpt>
      <trkpt lat="44.12177" lon="6.63587">
        <ele>1567.57</ele>
        <time>2019-08-03T08:05:12Z</time>
      </trkpt>
      <trkpt lat="44.12187" lon="6.63607">
        <ele>1567.57</ele>
        <time>2019-08-03T08:05:26Z</time>
      </trkpt>
      <trkpt lat="44.12193" lon="6.6363">
        <ele>1569.49</ele>
        <time>2019-08-03T08:05:39Z</time>
      </trkpt>
      <trkpt lat="44.12205" lon="6.63645">
        <ele>1570.45</ele>
        <time>2019-08-03T08:05:53Z</time>
      </trkpt>
      <trkpt lat="44.12206" lon="6.6366">
        <ele>1570.93</ele>
        <time>2019-08-03T08:06:08Z</time>
      </trkpt>
      <trkpt lat="44.12207" lon="6.6366">
        <ele>1571.89</ele>
        <time>2019-08-03T08:06:13Z</time>
      </trkpt>
      <trkpt lat="44.12213" lon="6.63647">
        <ele>1570.93</ele>
        <time>2019-08-03T08:06:36Z</time>
      </trkpt>
      <trkpt lat="44.12216" lon="6.6365">
        <ele>1571.41</ele>
        <time>2019-08-03T08:07:02Z</time>
      </trkpt>
      <trkpt lat="44.12211" lon="6.63662">
        <ele>1571.89</ele>
        <time>2019-08-03T08:07:22Z</time>
      </trkpt>
      <trkpt lat="44.12221" lon="6.63661">
        <ele>1573.33</ele>
        <time>2019-08-03T08:07:35Z</time>
      </trkpt>
      <trkpt lat="44.12228" lon="6.63663">
        <ele>1575.74</ele>
        <time>2019-08-03T08:07:48Z</time>
      </trkpt>
      <trkpt lat="44.12234" lon="6.63677">
        <ele>1579.1</ele>
        <time>2019-08-03T08:08:01Z</time>
      </trkpt>
      <trkpt lat="44.12245" lon="6.63684">
        <ele>1581.51</ele>
        <time>2019-08-03T08:08:20Z</time>
      </trkpt>
      <trkpt lat="44.12255" lon="6.63674">
        <ele>1583.43</ele>
        <time>2019-08-03T08:08:36Z</time>
      </trkpt>
      <trkpt lat="44.12257" lon="6.63662">
        <ele>1584.39</ele>
        <time>2019-08-03T08:08:50Z</time>
      </trkpt>
      <trkpt lat="44.12257" lon="6.63634">
        <ele>1585.83</ele>
        <time>2019-08-03T08:09:07Z</time>
      </trkpt>
      <trkpt lat="44.12258" lon="6.63632">
        <ele>1587.27</ele>
        <time>2019-08-03T08:09:22Z</time>
      </trkpt>
      <trkpt lat="44.12262" lon="6.63629">
        <ele>1587.27</ele>
        <time>2019-08-03T08:09:52Z</time>
      </trkpt>
      <trkpt lat="44.12259" lon="6.6364">
        <ele>1587.27</ele>
        <time>2019-08-03T08:10:11Z</time>
      </trkpt>
      <trkpt lat="44.12253" lon="6.63626">
        <ele>1588.72</ele>
        <time>2019-08-03T08:10:32Z</time>
      </trkpt>
      <trkpt lat="44.12252" lon="6.63625">
        <ele>1588.72</ele>
        <time>2019-08-03T08:10:33Z</time>
      </trkpt>
      <trkpt lat="44.12244" lon="6.63612">
        <ele>1591.6</ele>
        <time>2019-08-03T08:10:50Z</time>
      </trkpt>
      <trkpt lat="44.12234" lon="6.63607">
        <ele>1593.04</ele>
        <time>2019-08-03T08:11:05Z</time>
      </trkpt>
      <trkpt lat="44.12223" lon="6.636">
        <ele>1594.96</ele>
        <time>2019-08-03T08:11:20Z</time>
      </trkpt>
      <trkpt lat="44.12217" lon="6.63586">
        <ele>1596.89</ele>
        <time>2019-08-03T08:11:35Z</time>
      </trkpt>
      <trkpt lat="44.1222" lon="6.63572">
        <ele>1598.81</ele>
        <time>2019-08-03T08:11:49Z</time>
      </trkpt>
      <trkpt lat="44.12221" lon="6.63561">
        <ele>1600.73</ele>
        <time>2019-08-03T08:12:04Z</time>
      </trkpt>
      <trkpt lat="44.12217" lon="6.6355">
        <ele>1602.17</ele>
        <time>2019-08-03T08:12:22Z</time>
      </trkpt>
      <trkpt lat="44.12215" lon="6.6353">
        <ele>1603.62</ele>
        <time>2019-08-03T08:12:39Z</time>
      </trkpt>
      <trkpt lat="44.1221" lon="6.63521">
        <ele>1605.54</ele>
        <time>2019-08-03T08:12:54Z</time>
      </trkpt>
      <trkpt lat="44.1221" lon="6.63508">
        <ele>1606.98</ele>
        <time>2019-08-03T08:13:13Z</time>
      </trkpt>
      <trkpt lat="44.12214" lon="6.63488">
        <ele>1609.86</ele>
        <time>2019-08-03T08:13:34Z</time>
      </trkpt>
      <trkpt lat="44.1221" lon="6.63469">
        <ele>1611.79</ele>
        <time>2019-08-03T08:13:52Z</time>
      </trkpt>
      <trkpt lat="44.12205" lon="6.63454">
        <ele>1613.23</ele>
        <time>2019-08-03T08:14:09Z</time>
      </trkpt>
      <trkpt lat="44.12198" lon="6.63438">
        <ele>1614.67</ele>
        <time>2019-08-03T08:14:26Z</time>
      </trkpt>
      <trkpt lat="44.12198" lon="6.63434">
        <ele>1617.56</ele>
        <time>2019-08-03T08:14:42Z</time>
      </trkpt>
      <trkpt lat="44.12211" lon="6.6344">
        <ele>1619</ele>
        <time>2019-08-03T08:14:58Z</time>
      </trkpt>
      <trkpt lat="44.12219" lon="6.63445">
        <ele>1620.92</ele>
        <time>2019-08-03T08:15:15Z</time>
      </trkpt>
      <trkpt lat="44.12229" lon="6.63453">
        <ele>1621.88</ele>
        <time>2019-08-03T08:15:32Z</time>
      </trkpt>
      <trkpt lat="44.12235" lon="6.63461">
        <ele>1623.32</ele>
        <time>2019-08-03T08:15:49Z</time>
      </trkpt>
      <trkpt lat="44.1224" lon="6.63466">
        <ele>1625.25</ele>
        <time>2019-08-03T08:16:02Z</time>
      </trkpt>
      <trkpt lat="44.12245" lon="6.63477">
        <ele>1627.17</ele>
        <time>2019-08-03T08:16:18Z</time>
      </trkpt>
      <trkpt lat="44.12252" lon="6.6349">
        <ele>1628.61</ele>
        <time>2019-08-03T08:16:35Z</time>
      </trkpt>
      <trkpt lat="44.12256" lon="6.63498">
        <ele>1629.57</ele>
        <time>2019-08-03T08:16:51Z</time>
      </trkpt>
      <trkpt lat="44.12266" lon="6.63512">
        <ele>1632.46</ele>
        <time>2019-08-03T08:17:08Z</time>
      </trkpt>
      <trkpt lat="44.12273" lon="6.63522">
        <ele>1634.38</ele>
        <time>2019-08-03T08:17:22Z</time>
      </trkpt>
      <trkpt lat="44.12278" lon="6.63534">
        <ele>1635.34</ele>
        <time>2019-08-03T08:17:37Z</time>
      </trkpt>
      <trkpt lat="44.12287" lon="6.63545">
        <ele>1637.26</ele>
        <time>2019-08-03T08:17:54Z</time>
      </trkpt>
      <trkpt lat="44.12294" lon="6.63555">
        <ele>1638.7</ele>
        <time>2019-08-03T08:18:11Z</time>
      </trkpt>
      <trkpt lat="44.123" lon="6.63562">
        <ele>1640.63</ele>
        <time>2019-08-03T08:18:26Z</time>
      </trkpt>
      <trkpt lat="44.12312" lon="6.63571">
        <ele>1643.03</ele>
        <time>2019-08-03T08:18:45Z</time>
      </trkpt>
      <trkpt lat="44.12318" lon="6.63581">
        <ele>1644.95</ele>
        <time>2019-08-03T08:19:01Z</time>
      </trkpt>
      <trkpt lat="44.12328" lon="6.6358">
        <ele>1646.4</ele>
        <time>2019-08-03T08:19:17Z</time>
      </trkpt>
      <trkpt lat="44.12323" lon="6.6357">
        <ele>1648.32</ele>
        <time>2019-08-03T08:19:31Z</time>
      </trkpt>
      <trkpt lat="44.12317" lon="6.63553">
        <ele>1650.72</ele>
        <time>2019-08-03T08:19:48Z</time>
      </trkpt>
      <trkpt lat="44.12312" lon="6.6354">
        <ele>1652.16</ele>
        <time>2019-08-03T08:20:04Z</time>
      </trkpt>
      <trkpt lat="44.12312" lon="6.63523">
        <ele>1654.57</ele>
        <time>2019-08-03T08:20:22Z</time>
      </trkpt>
      <trkpt lat="44.12308" lon="6.63504">
        <ele>1657.93</ele>
        <time>2019-08-03T08:20:41Z</time>
      </trkpt>
      <trkpt lat="44.12303" lon="6.63489">
        <ele>1658.89</ele>
        <time>2019-08-03T08:20:55Z</time>
      </trkpt>
      <trkpt lat="44.123" lon="6.63471">
        <ele>1661.3</ele>
        <time>2019-08-03T08:21:13Z</time>
      </trkpt>
      <trkpt lat="44.12299" lon="6.63461">
        <ele>1663.22</ele>
        <time>2019-08-03T08:21:27Z</time>
      </trkpt>
      <trkpt lat="44.12297" lon="6.63448">
        <ele>1664.66</ele>
        <time>2019-08-03T08:21:42Z</time>
      </trkpt>
      <trkpt lat="44.12297" lon="6.63434">
        <ele>1667.06</ele>
        <time>2019-08-03T08:21:58Z</time>
      </trkpt>
      <trkpt lat="44.12296" lon="6.63423">
        <ele>1668.02</ele>
        <time>2019-08-03T08:22:11Z</time>
      </trkpt>
      <trkpt lat="44.12298" lon="6.63434">
        <ele>1669.95</ele>
        <time>2019-08-03T08:22:26Z</time>
      </trkpt>
      <trkpt lat="44.12305" lon="6.63446">
        <ele>1671.87</ele>
        <time>2019-08-03T08:22:40Z</time>
      </trkpt>
      <trkpt lat="44.12311" lon="6.63456">
        <ele>1673.31</ele>
        <time>2019-08-03T08:22:56Z</time>
      </trkpt>
      <trkpt lat="44.1232" lon="6.63467">
        <ele>1675.23</ele>
        <time>2019-08-03T08:23:12Z</time>
      </trkpt>
      <trkpt lat="44.12327" lon="6.63473">
        <ele>1677.16</ele>
        <time>2019-08-03T08:23:27Z</time>
      </trkpt>
      <trkpt lat="44.12333" lon="6.6348">
        <ele>1679.08</ele>
        <time>2019-08-03T08:23:43Z</time>
      </trkpt>
      <trkpt lat="44.12346" lon="6.63493">
        <ele>1681</ele>
        <time>2019-08-03T08:24:01Z</time>
      </trkpt>
      <trkpt lat="44.12354" lon="6.63508">
        <ele>1682.44</ele>
        <time>2019-08-03T08:24:18Z</time>
      </trkpt>
      <trkpt lat="44.12361" lon="6.63513">
        <ele>1684.37</ele>
        <time>2019-08-03T08:24:31Z</time>
      </trkpt>
      <trkpt lat="44.12369" lon="6.63518">
        <ele>1686.77</ele>
        <time>2019-08-03T08:24:45Z</time>
      </trkpt>
      <trkpt lat="44.12372" lon="6.63514">
        <ele>1687.73</ele>
        <time>2019-08-03T08:24:59Z</time>
      </trkpt>
      <trkpt lat="44.12366" lon="6.63503">
        <ele>1690.14</ele>
        <time>2019-08-03T08:25:13Z</time>
      </trkpt>
      <trkpt lat="44.12364" lon="6.6349">
        <ele>1692.54</ele>
        <time>2019-08-03T08:25:27Z</time>
      </trkpt>
      <trkpt lat="44.12361" lon="6.63479">
        <ele>1693.98</ele>
        <time>2019-08-03T08:25:42Z</time>
      </trkpt>
      <trkpt lat="44.1236" lon="6.63463">
        <ele>1694.94</ele>
        <time>2019-08-03T08:25:58Z</time>
      </trkpt>
      <trkpt lat="44.12357" lon="6.63442">
        <ele>1697.34</ele>
        <time>2019-08-03T08:26:18Z</time>
      </trkpt>
      <trkpt lat="44.12351" lon="6.63429">
        <ele>1699.75</ele>
        <time>2019-08-03T08:26:33Z</time>
      </trkpt>
      <trkpt lat="44.12346" lon="6.63416">
        <ele>1701.67</ele>
        <time>2019-08-03T08:26:47Z</time>
      </trkpt>
      <trkpt lat="44.12343" lon="6.63406">
        <ele>1703.11</ele>
        <time>2019-08-03T08:27:01Z</time>
      </trkpt>
      <trkpt lat="44.12349" lon="6.63415">
        <ele>1705.04</ele>
        <time>2019-08-03T08:27:16Z</time>
      </trkpt>
      <trkpt lat="44.12356" lon="6.63423">
        <ele>1706.96</ele>
        <time>2019-08-03T08:27:31Z</time>
      </trkpt>
      <trkpt lat="44.12362" lon="6.63431">
        <ele>1708.4</ele>
        <time>2019-08-03T08:27:46Z</time>
      </trkpt>
      <trkpt lat="44.1237" lon="6.63438">
        <ele>1710.32</ele>
        <time>2019-08-03T08:27:59Z</time>
      </trkpt>
      <trkpt lat="44.12373" lon="6.63444">
        <ele>1711.76</ele>
        <time>2019-08-03T08:28:12Z</time>
      </trkpt>
      <trkpt lat="44.12381" lon="6.63449">
        <ele>1713.21</ele>
        <time>2019-08-03T08:28:25Z</time>
      </trkpt>
      <trkpt lat="44.12387" lon="6.63456">
        <ele>1714.65</ele>
        <time>2019-08-03T08:28:38Z</time>
      </trkpt>
      <trkpt lat="44.12391" lon="6.63459">
        <ele>1715.61</ele>
        <time>2019-08-03T08:28:53Z</time>
      </trkpt>
      <trkpt lat="44.12396" lon="6.63462">
        <ele>1715.61</ele>
        <time>2019-08-03T08:29:18Z</time>
      </trkpt>
      <trkpt lat="44.12398" lon="6.63466">
        <ele>1715.61</ele>
        <time>2019-08-03T08:29:43Z</time>
      </trkpt>
      <trkpt lat="44.124" lon="6.63475">
        <ele>1715.61</ele>
        <time>2019-08-03T08:30:15Z</time>
      </trkpt>
      <trkpt lat="44.124" lon="6.63475">
        <ele>1716.09</ele>
        <time>2019-08-03T08:30:19Z</time>
      </trkpt>
      <trkpt lat="44.12395" lon="6.63473">
        <ele>1715.61</ele>
        <time>2019-08-03T08:30:47Z</time>
      </trkpt>
      <trkpt lat="44.12391" lon="6.6347">
        <ele>1716.57</ele>
        <time>2019-08-03T08:31:14Z</time>
      </trkpt>
      <trkpt lat="44.12402" lon="6.63473">
        <ele>1718.97</ele>
        <time>2019-08-03T08:31:29Z</time>
      </trkpt>
      <trkpt lat="44.12401" lon="6.63457">
        <ele>1720.9</ele>
        <time>2019-08-03T08:31:45Z</time>
      </trkpt>
      <trkpt lat="44.12397" lon="6.63438">
        <ele>1722.82</ele>
        <time>2019-08-03T08:32:03Z</time>
      </trkpt>
      <trkpt lat="44.12393" lon="6.63425">
        <ele>1724.74</ele>
        <time>2019-08-03T08:32:17Z</time>
      </trkpt>
      <trkpt lat="44.12386" lon="6.63412">
        <ele>1727.15</ele>
        <time>2019-08-03T08:32:31Z</time>
      </trkpt>
      <trkpt lat="44.12381" lon="6.63394">
        <ele>1728.59</ele>
        <time>2019-08-03T08:32:47Z</time>
      </trkpt>
      <trkpt lat="44.12377" lon="6.63382">
        <ele>1730.99</ele>
        <time>2019-08-03T08:33:01Z</time>
      </trkpt>
      <trkpt lat="44.12373" lon="6.63364">
        <ele>1732.91</ele>
        <time>2019-08-03T08:33:21Z</time>
      </trkpt>
      <trkpt lat="44.1237" lon="6.63347">
        <ele>1735.32</ele>
        <time>2019-08-03T08:33:38Z</time>
      </trkpt>
      <trkpt lat="44.12373" lon="6.63353">
        <ele>1736.76</ele>
        <time>2019-08-03T08:33:52Z</time>
      </trkpt>
      <trkpt lat="44.12381" lon="6.63362">
        <ele>1738.68</ele>
        <time>2019-08-03T08:34:09Z</time>
      </trkpt>
      <trkpt lat="44.12391" lon="6.63371">
        <ele>1740.12</ele>
        <time>2019-08-03T08:34:24Z</time>
      </trkpt>
      <trkpt lat="44.124" lon="6.63376">
        <ele>1743.01</ele>
        <time>2019-08-03T08:34:41Z</time>
      </trkpt>
      <trkpt lat="44.12408" lon="6.63385">
        <ele>1743.97</ele>
        <time>2019-08-03T08:34:58Z</time>
      </trkpt>
      <trkpt lat="44.12416" lon="6.63389">
        <ele>1745.89</ele>
        <time>2019-08-03T08:35:15Z</time>
      </trkpt>
      <trkpt lat="44.12423" lon="6.63394">
        <ele>1747.33</ele>
        <time>2019-08-03T08:35:28Z</time>
      </trkpt>
      <trkpt lat="44.12431" lon="6.63399">
        <ele>1749.26</ele>
        <time>2019-08-03T08:35:43Z</time>
      </trkpt>
      <trkpt lat="44.12439" lon="6.63402">
        <ele>1750.7</ele>
        <time>2019-08-03T08:35:57Z</time>
      </trkpt>
      <trkpt lat="44.12451" lon="6.63404">
        <ele>1752.62</ele>
        <time>2019-08-03T08:36:14Z</time>
      </trkpt>
      <trkpt lat="44.12465" lon="6.63409">
        <ele>1755.02</ele>
        <time>2019-08-03T08:36:29Z</time>
      </trkpt>
      <trkpt lat="44.12474" lon="6.63411">
        <ele>1756.47</ele>
        <time>2019-08-03T08:36:44Z</time>
      </trkpt>
      <trkpt lat="44.12487" lon="6.63419">
        <ele>1759.35</ele>
        <time>2019-08-03T08:37:05Z</time>
      </trkpt>
      <trkpt lat="44.12498" lon="6.63425">
        <ele>1761.27</ele>
        <time>2019-08-03T08:37:25Z</time>
      </trkpt>
      <trkpt lat="44.12508" lon="6.63428">
        <ele>1762.71</ele>
        <time>2019-08-03T08:37:40Z</time>
      </trkpt>
      <trkpt lat="44.12518" lon="6.6343">
        <ele>1764.64</ele>
        <time>2019-08-03T08:37:56Z</time>
      </trkpt>
      <trkpt lat="44.12523" lon="6.63435">
        <ele>1765.12</ele>
        <time>2019-08-03T08:38:15Z</time>
      </trkpt>
      <trkpt lat="44.12532" lon="6.63439">
        <ele>1767.04</ele>
        <time>2019-08-03T08:38:28Z</time>
      </trkpt>
      <trkpt lat="44.12541" lon="6.63437">
        <ele>1769.44</ele>
        <time>2019-08-03T08:38:42Z</time>
      </trkpt>
      <trkpt lat="44.12553" lon="6.63438">
        <ele>1771.37</ele>
        <time>2019-08-03T08:38:58Z</time>
      </trkpt>
      <trkpt lat="44.12563" lon="6.63438">
        <ele>1772.81</ele>
        <time>2019-08-03T08:39:14Z</time>
      </trkpt>
      <trkpt lat="44.12564" lon="6.63432">
        <ele>1774.73</ele>
        <time>2019-08-03T08:39:28Z</time>
      </trkpt>
      <trkpt lat="44.12557" lon="6.63421">
        <ele>1774.73</ele>
        <time>2019-08-03T08:39:41Z</time>
      </trkpt>
      <trkpt lat="44.12556" lon="6.6342">
        <ele>1778.1</ele>
        <time>2019-08-03T08:39:42Z</time>
      </trkpt>
      <trkpt lat="44.12556" lon="6.6342">
        <ele>1776.17</ele>
        <time>2019-08-03T08:39:43Z</time>
      </trkpt>
      <trkpt lat="44.1255" lon="6.63417">
        <ele>1776.65</ele>
        <time>2019-08-03T08:40:09Z</time>
      </trkpt>
      <trkpt lat="44.12549" lon="6.63422">
        <ele>1776.65</ele>
        <time>2019-08-03T08:40:40Z</time>
      </trkpt>
      <trkpt lat="44.12546" lon="6.63416">
        <ele>1778.1</ele>
        <time>2019-08-03T08:41:04Z</time>
      </trkpt>
      <trkpt lat="44.12541" lon="6.63403">
        <ele>1780.5</ele>
        <time>2019-08-03T08:41:21Z</time>
      </trkpt>
      <trkpt lat="44.12541" lon="6.634">
        <ele>1781.46</ele>
        <time>2019-08-03T08:41:25Z</time>
      </trkpt>
      <trkpt lat="44.12533" lon="6.63388">
        <ele>1782.9</ele>
        <time>2019-08-03T08:41:38Z</time>
      </trkpt>
      <trkpt lat="44.12529" lon="6.63381">
        <ele>1784.82</ele>
        <time>2019-08-03T08:41:47Z</time>
      </trkpt>
      <trkpt lat="44.12521" lon="6.63362">
        <ele>1787.23</ele>
        <time>2019-08-03T08:42:07Z</time>
      </trkpt>
      <trkpt lat="44.12513" lon="6.63344">
        <ele>1788.67</ele>
        <time>2019-08-03T08:42:24Z</time>
      </trkpt>
      <trkpt lat="44.12502" lon="6.63328">
        <ele>1791.55</ele>
        <time>2019-08-03T08:42:42Z</time>
      </trkpt>
      <trkpt lat="44.12493" lon="6.63325">
        <ele>1793.48</ele>
        <time>2019-08-03T08:42:58Z</time>
      </trkpt>
      <trkpt lat="44.12482" lon="6.6332">
        <ele>1795.88</ele>
        <time>2019-08-03T08:43:16Z</time>
      </trkpt>
      <trkpt lat="44.12473" lon="6.63313">
        <ele>1797.8</ele>
        <time>2019-08-03T08:43:30Z</time>
      </trkpt>
      <trkpt lat="44.12465" lon="6.63303">
        <ele>1800.21</ele>
        <time>2019-08-03T08:43:47Z</time>
      </trkpt>
      <trkpt lat="44.12458" lon="6.63291">
        <ele>1802.13</ele>
        <time>2019-08-03T08:44:04Z</time>
      </trkpt>
      <trkpt lat="44.12462" lon="6.63307">
        <ele>1802.13</ele>
        <time>2019-08-03T08:44:21Z</time>
      </trkpt>
      <trkpt lat="44.12469" lon="6.63314">
        <ele>1802.61</ele>
        <time>2019-08-03T08:44:43Z</time>
      </trkpt>
      <trkpt lat="44.1248" lon="6.6332">
        <ele>1804.05</ele>
        <time>2019-08-03T08:44:58Z</time>
      </trkpt>
      <trkpt lat="44.12492" lon="6.63322">
        <ele>1805.49</ele>
        <time>2019-08-03T08:45:13Z</time>
      </trkpt>
      <trkpt lat="44.12507" lon="6.63323">
        <ele>1806.45</ele>
        <time>2019-08-03T08:45:29Z</time>
      </trkpt>
      <trkpt lat="44.1252" lon="6.63324">
        <ele>1807.42</ele>
        <time>2019-08-03T08:45:45Z</time>
      </trkpt>
      <trkpt lat="44.12535" lon="6.6333">
        <ele>1809.34</ele>
        <time>2019-08-03T08:46:04Z</time>
      </trkpt>
      <trkpt lat="44.12545" lon="6.63331">
        <ele>1810.3</ele>
        <time>2019-08-03T08:46:18Z</time>
      </trkpt>
      <trkpt lat="44.12556" lon="6.63336">
        <ele>1812.22</ele>
        <time>2019-08-03T08:46:33Z</time>
      </trkpt>
      <trkpt lat="44.12573" lon="6.6334">
        <ele>1813.66</ele>
        <time>2019-08-03T08:46:50Z</time>
      </trkpt>
      <trkpt lat="44.12584" lon="6.63348">
        <ele>1815.11</ele>
        <time>2019-08-03T08:47:05Z</time>
      </trkpt>
      <trkpt lat="44.12597" lon="6.63357">
        <ele>1816.07</ele>
        <time>2019-08-03T08:47:19Z</time>
      </trkpt>
      <trkpt lat="44.12606" lon="6.63361">
        <ele>1817.51</ele>
        <time>2019-08-03T08:47:34Z</time>
      </trkpt>
      <trkpt lat="44.12615" lon="6.63366">
        <ele>1818.47</ele>
        <time>2019-08-03T08:47:47Z</time>
      </trkpt>
      <trkpt lat="44.12628" lon="6.63374">
        <ele>1819.43</ele>
        <time>2019-08-03T08:48:01Z</time>
      </trkpt>
      <trkpt lat="44.12641" lon="6.63374">
        <ele>1820.87</ele>
        <time>2019-08-03T08:48:17Z</time>
      </trkpt>
      <trkpt lat="44.12653" lon="6.63381">
        <ele>1821.84</ele>
        <time>2019-08-03T08:48:33Z</time>
      </trkpt>
      <trkpt lat="44.12673" lon="6.63392">
        <ele>1823.28</ele>
        <time>2019-08-03T08:48:52Z</time>
      </trkpt>
      <trkpt lat="44.12686" lon="6.63399">
        <ele>1824.24</ele>
        <time>2019-08-03T08:49:07Z</time>
      </trkpt>
      <trkpt lat="44.12702" lon="6.63406">
        <ele>1825.68</ele>
        <time>2019-08-03T08:49:22Z</time>
      </trkpt>
      <trkpt lat="44.12715" lon="6.63408">
        <ele>1826.64</ele>
        <time>2019-08-03T08:49:38Z</time>
      </trkpt>
      <trkpt lat="44.12734" lon="6.63413">
        <ele>1828.08</ele>
        <time>2019-08-03T08:49:55Z</time>
      </trkpt>
      <trkpt lat="44.12748" lon="6.63417">
        <ele>1829.53</ele>
        <time>2019-08-03T08:50:12Z</time>
      </trkpt>
      <trkpt lat="44.12762" lon="6.63426">
        <ele>1830.97</ele>
        <time>2019-08-03T08:50:28Z</time>
      </trkpt>
      <trkpt lat="44.12774" lon="6.63437">
        <ele>1832.41</ele>
        <time>2019-08-03T08:50:44Z</time>
      </trkpt>
      <trkpt lat="44.12784" lon="6.63449">
        <ele>1833.37</ele>
        <time>2019-08-03T08:51:01Z</time>
      </trkpt>
      <trkpt lat="44.12795" lon="6.63471">
        <ele>1834.81</ele>
        <time>2019-08-03T08:51:17Z</time>
      </trkpt>
      <trkpt lat="44.12803" lon="6.63486">
        <ele>1836.26</ele>
        <time>2019-08-03T08:51:31Z</time>
      </trkpt>
      <trkpt lat="44.12811" lon="6.63501">
        <ele>1836.74</ele>
        <time>2019-08-03T08:51:45Z</time>
      </trkpt>
      <trkpt lat="44.12819" lon="6.63512">
        <ele>1838.66</ele>
        <time>2019-08-03T08:52:02Z</time>
      </trkpt>
      <trkpt lat="44.12827" lon="6.63533">
        <ele>1839.62</ele>
        <time>2019-08-03T08:52:17Z</time>
      </trkpt>
      <trkpt lat="44.12834" lon="6.6355">
        <ele>1841.54</ele>
        <time>2019-08-03T08:52:31Z</time>
      </trkpt>
      <trkpt lat="44.12838" lon="6.63569">
        <ele>1843.95</ele>
        <time>2019-08-03T08:52:46Z</time>
      </trkpt>
      <trkpt lat="44.1284" lon="6.63582">
        <ele>1844.91</ele>
        <time>2019-08-03T08:53:02Z</time>
      </trkpt>
      <trkpt lat="44.12838" lon="6.63601">
        <ele>1845.87</ele>
        <time>2019-08-03T08:53:18Z</time>
      </trkpt>
      <trkpt lat="44.12837" lon="6.63624">
        <ele>1848.27</ele>
        <time>2019-08-03T08:53:37Z</time>
      </trkpt>
      <trkpt lat="44.12838" lon="6.63648">
        <ele>1850.19</ele>
        <time>2019-08-03T08:53:54Z</time>
      </trkpt>
      <trkpt lat="44.12843" lon="6.63662">
        <ele>1851.16</ele>
        <time>2019-08-03T08:54:07Z</time>
      </trkpt>
      <trkpt lat="44.12846" lon="6.63675">
        <ele>1852.12</ele>
        <time>2019-08-03T08:54:22Z</time>
      </trkpt>
      <trkpt lat="44.12855" lon="6.63693">
        <ele>1854.04</ele>
        <time>2019-08-03T08:54:38Z</time>
      </trkpt>
      <trkpt lat="44.12861" lon="6.63708">
        <ele>1855.48</ele>
        <time>2019-08-03T08:54:52Z</time>
      </trkpt>
      <trkpt lat="44.12863" lon="6.63725">
        <ele>1856.44</ele>
        <time>2019-08-03T08:55:08Z</time>
      </trkpt>
      <trkpt lat="44.12866" lon="6.63742">
        <ele>1857.89</ele>
        <time>2019-08-03T08:55:23Z</time>
      </trkpt>
      <trkpt lat="44.1287" lon="6.63759">
        <ele>1860.29</ele>
        <time>2019-08-03T08:55:40Z</time>
      </trkpt>
      <trkpt lat="44.12874" lon="6.6378">
        <ele>1862.21</ele>
        <time>2019-08-03T08:55:58Z</time>
      </trkpt>
      <trkpt lat="44.1288" lon="6.63798">
        <ele>1863.65</ele>
        <time>2019-08-03T08:56:14Z</time>
      </trkpt>
      <trkpt lat="44.12881" lon="6.63818">
        <ele>1865.09</ele>
        <time>2019-08-03T08:56:32Z</time>
      </trkpt>
      <trkpt lat="44.12881" lon="6.63837">
        <ele>1867.02</ele>
        <time>2019-08-03T08:56:47Z</time>
      </trkpt>
      <trkpt lat="44.12879" lon="6.63851">
        <ele>1867.98</ele>
        <time>2019-08-03T08:57:00Z</time>
      </trkpt>
      <trkpt lat="44.12882" lon="6.63864">
        <ele>1868.94</ele>
        <time>2019-08-03T08:57:15Z</time>
      </trkpt>
      <trkpt lat="44.12878" lon="6.63891">
        <ele>1869.9</ele>
        <time>2019-08-03T08:57:32Z</time>
      </trkpt>
      <trkpt lat="44.1287" lon="6.63906">
        <ele>1871.82</ele>
        <time>2019-08-03T08:57:46Z</time>
      </trkpt>
      <trkpt lat="44.12861" lon="6.6392">
        <ele>1873.75</ele>
        <time>2019-08-03T08:58:02Z</time>
      </trkpt>
      <trkpt lat="44.12851" lon="6.63939">
        <ele>1875.19</ele>
        <time>2019-08-03T08:58:17Z</time>
      </trkpt>
      <trkpt lat="44.12844" lon="6.63952">
        <ele>1876.63</ele>
        <time>2019-08-03T08:58:32Z</time>
      </trkpt>
      <trkpt lat="44.12837" lon="6.63968">
        <ele>1879.03</ele>
        <time>2019-08-03T08:58:48Z</time>
      </trkpt>
      <trkpt lat="44.12831" lon="6.63983">
        <ele>1880.96</ele>
        <time>2019-08-03T08:59:07Z</time>
      </trkpt>
      <trkpt lat="44.12826" lon="6.64002">
        <ele>1881.92</ele>
        <time>2019-08-03T08:59:24Z</time>
      </trkpt>
      <trkpt lat="44.12809" lon="6.6401">
        <ele>1883.84</ele>
        <time>2019-08-03T08:59:44Z</time>
      </trkpt>
      <trkpt lat="44.12793" lon="6.6402">
        <ele>1885.76</ele>
        <time>2019-08-03T09:00:03Z</time>
      </trkpt>
      <trkpt lat="44.12781" lon="6.64032">
        <ele>1887.69</ele>
        <time>2019-08-03T09:00:21Z</time>
      </trkpt>
      <trkpt lat="44.12781" lon="6.64032">
        <ele>1888.17</ele>
        <time>2019-08-03T09:00:22Z</time>
      </trkpt>
      <trkpt lat="44.12773" lon="6.64044">
        <ele>1889.13</ele>
        <time>2019-08-03T09:00:38Z</time>
      </trkpt>
      <trkpt lat="44.12767" lon="6.64058">
        <ele>1891.05</ele>
        <time>2019-08-03T09:00:54Z</time>
      </trkpt>
      <trkpt lat="44.12757" lon="6.64075">
        <ele>1892.01</ele>
        <time>2019-08-03T09:01:10Z</time>
      </trkpt>
      <trkpt lat="44.12749" lon="6.64089">
        <ele>1892.97</ele>
        <time>2019-08-03T09:01:24Z</time>
      </trkpt>
      <trkpt lat="44.12741" lon="6.64102">
        <ele>1894.42</ele>
        <time>2019-08-03T09:01:40Z</time>
      </trkpt>
      <trkpt lat="44.12741" lon="6.64105">
        <ele>1894.42</ele>
        <time>2019-08-03T09:02:03Z</time>
      </trkpt>
      <trkpt lat="44.12737" lon="6.64101">
        <ele>1894.42</ele>
        <time>2019-08-03T09:02:25Z</time>
      </trkpt>
      <trkpt lat="44.12744" lon="6.64096">
        <ele>1894.42</ele>
        <time>2019-08-03T09:02:48Z</time>
      </trkpt>
      <trkpt lat="44.12747" lon="6.64101">
        <ele>1894.9</ele>
        <time>2019-08-03T09:03:27Z</time>
      </trkpt>
      <trkpt lat="44.12751" lon="6.64084">
        <ele>1894.9</ele>
        <time>2019-08-03T09:03:53Z</time>
      </trkpt>
      <trkpt lat="44.12768" lon="6.64074">
        <ele>1895.38</ele>
        <time>2019-08-03T09:04:12Z</time>
      </trkpt>
      <trkpt lat="44.12785" lon="6.64069">
        <ele>1894.9</ele>
        <time>2019-08-03T09:04:30Z</time>
      </trkpt>
      <trkpt lat="44.12803" lon="6.64062">
        <ele>1894.9</ele>
        <time>2019-08-03T09:04:47Z</time>
      </trkpt>
      <trkpt lat="44.12821" lon="6.64056">
        <ele>1894.9</ele>
        <time>2019-08-03T09:05:05Z</time>
      </trkpt>
      <trkpt lat="44.12827" lon="6.6405">
        <ele>1894.9</ele>
        <time>2019-08-03T09:05:22Z</time>
      </trkpt>
      <trkpt lat="44.12845" lon="6.64041">
        <ele>1895.38</ele>
        <time>2019-08-03T09:05:40Z</time>
      </trkpt>
      <trkpt lat="44.12844" lon="6.64036">
        <ele>1894.9</ele>
        <time>2019-08-03T09:05:43Z</time>
      </trkpt>
      <trkpt lat="44.12848" lon="6.64">
        <ele>1894.9</ele>
        <time>2019-08-03T09:06:01Z</time>
      </trkpt>
      <trkpt lat="44.1286" lon="6.63984">
        <ele>1894.42</ele>
        <time>2019-08-03T09:06:20Z</time>
      </trkpt>
      <trkpt lat="44.12873" lon="6.63968">
        <ele>1894.42</ele>
        <time>2019-08-03T09:06:34Z</time>
      </trkpt>
      <trkpt lat="44.12884" lon="6.63952">
        <ele>1893.93</ele>
        <time>2019-08-03T09:06:49Z</time>
      </trkpt>
      <trkpt lat="44.12894" lon="6.63937">
        <ele>1893.45</ele>
        <time>2019-08-03T09:07:06Z</time>
      </trkpt>
      <trkpt lat="44.12908" lon="6.63925">
        <ele>1892.97</ele>
        <time>2019-08-03T09:07:24Z</time>
      </trkpt>
      <trkpt lat="44.12918" lon="6.63902">
        <ele>1893.45</ele>
        <time>2019-08-03T09:07:39Z</time>
      </trkpt>
      <trkpt lat="44.12925" lon="6.63883">
        <ele>1892.97</ele>
        <time>2019-08-03T09:07:55Z</time>
      </trkpt>
      <trkpt lat="44.12925" lon="6.63859">
        <ele>1892.49</ele>
        <time>2019-08-03T09:08:09Z</time>
      </trkpt>
      <trkpt lat="44.12926" lon="6.63836">
        <ele>1892.01</ele>
        <time>2019-08-03T09:08:23Z</time>
      </trkpt>
      <trkpt lat="44.12932" lon="6.63811">
        <ele>1891.53</ele>
        <time>2019-08-03T09:08:41Z</time>
      </trkpt>
      <trkpt lat="44.12931" lon="6.63812">
        <ele>1892.01</ele>
        <time>2019-08-03T09:09:05Z</time>
      </trkpt>
      <trkpt lat="44.12926" lon="6.63812">
        <ele>1892.49</ele>
        <time>2019-08-03T09:09:33Z</time>
      </trkpt>
      <trkpt lat="44.12934" lon="6.63816">
        <ele>1892.97</ele>
        <time>2019-08-03T09:10:05Z</time>
      </trkpt>
      <trkpt lat="44.12935" lon="6.63812">
        <ele>1892.49</ele>
        <time>2019-08-03T09:10:28Z</time>
      </trkpt>
      <trkpt lat="44.12935" lon="6.6382">
        <ele>1892.49</ele>
        <time>2019-08-03T09:10:41Z</time>
      </trkpt>
      <trkpt lat="44.12941" lon="6.6384">
        <ele>1893.45</ele>
        <time>2019-08-03T09:10:58Z</time>
      </trkpt>
      <trkpt lat="44.12946" lon="6.63847">
        <ele>1893.45</ele>
        <time>2019-08-03T09:11:07Z</time>
      </trkpt>
      <trkpt lat="44.12966" lon="6.63857">
        <ele>1893.93</ele>
        <time>2019-08-03T09:11:26Z</time>
      </trkpt>
      <trkpt lat="44.12983" lon="6.6387">
        <ele>1894.42</ele>
        <time>2019-08-03T09:11:43Z</time>
      </trkpt>
      <trkpt lat="44.12992" lon="6.63888">
        <ele>1895.38</ele>
        <time>2019-08-03T09:12:02Z</time>
      </trkpt>
      <trkpt lat="44.13004" lon="6.639">
        <ele>1895.86</ele>
        <time>2019-08-03T09:12:22Z</time>
      </trkpt>
      <trkpt lat="44.13014" lon="6.6391">
        <ele>1896.34</ele>
        <time>2019-08-03T09:12:41Z</time>
      </trkpt>
      <trkpt lat="44.13033" lon="6.63931">
        <ele>1897.78</ele>
        <time>2019-08-03T09:13:01Z</time>
      </trkpt>
      <trkpt lat="44.13051" lon="6.63949">
        <ele>1898.26</ele>
        <time>2019-08-03T09:13:17Z</time>
      </trkpt>
      <trkpt lat="44.13072" lon="6.63972">
        <ele>1898.74</ele>
        <time>2019-08-03T09:13:39Z</time>
      </trkpt>
      <trkpt lat="44.13091" lon="6.63995">
        <ele>1898.26</ele>
        <time>2019-08-03T09:14:01Z</time>
      </trkpt>
      <trkpt lat="44.13103" lon="6.6401">
        <ele>1899.22</ele>
        <time>2019-08-03T09:14:20Z</time>
      </trkpt>
      <trkpt lat="44.13117" lon="6.64029">
        <ele>1899.22</ele>
        <time>2019-08-03T09:14:40Z</time>
      </trkpt>
      <trkpt lat="44.13135" lon="6.6405">
        <ele>1899.7</ele>
        <time>2019-08-03T09:14:59Z</time>
      </trkpt>
      <trkpt lat="44.13147" lon="6.64063">
        <ele>1900.18</ele>
        <time>2019-08-03T09:15:16Z</time>
      </trkpt>
      <trkpt lat="44.1316" lon="6.64079">
        <ele>1900.66</ele>
        <time>2019-08-03T09:15:37Z</time>
      </trkpt>
      <trkpt lat="44.13172" lon="6.64088">
        <ele>1901.14</ele>
        <time>2019-08-03T09:15:54Z</time>
      </trkpt>
      <trkpt lat="44.13188" lon="6.64101">
        <ele>1901.63</ele>
        <time>2019-08-03T09:16:16Z</time>
      </trkpt>
      <trkpt lat="44.13203" lon="6.64115">
        <ele>1903.07</ele>
        <time>2019-08-03T09:16:32Z</time>
      </trkpt>
      <trkpt lat="44.1322" lon="6.64134">
        <ele>1904.51</ele>
        <time>2019-08-03T09:16:50Z</time>
      </trkpt>
      <trkpt lat="44.13234" lon="6.64149">
        <ele>1904.03</ele>
        <time>2019-08-03T09:17:06Z</time>
      </trkpt>
      <trkpt lat="44.13248" lon="6.6417">
        <ele>1904.03</ele>
        <time>2019-08-03T09:17:23Z</time>
      </trkpt>
      <trkpt lat="44.1325" lon="6.64172">
        <ele>1904.51</ele>
        <time>2019-08-03T09:17:25Z</time>
      </trkpt>
      <trkpt lat="44.13269" lon="6.64192">
        <ele>1904.51</ele>
        <time>2019-08-03T09:17:43Z</time>
      </trkpt>
      <trkpt lat="44.13286" lon="6.64209">
        <ele>1904.99</ele>
        <time>2019-08-03T09:18:00Z</time>
      </trkpt>
      <trkpt lat="44.13299" lon="6.64229">
        <ele>1905.47</ele>
        <time>2019-08-03T09:18:19Z</time>
      </trkpt>
      <trkpt lat="44.13305" lon="6.64247">
        <ele>1905.47</ele>
        <time>2019-08-03T09:18:36Z</time>
      </trkpt>
      <trkpt lat="44.13308" lon="6.64263">
        <ele>1905.95</ele>
        <time>2019-08-03T09:18:54Z</time>
      </trkpt>
      <trkpt lat="44.13308" lon="6.64274">
        <ele>1906.43</ele>
        <time>2019-08-03T09:19:13Z</time>
      </trkpt>
      <trkpt lat="44.13309" lon="6.64288">
        <ele>1906.91</ele>
        <time>2019-08-03T09:19:28Z</time>
      </trkpt>
      <trkpt lat="44.1331" lon="6.6429">
        <ele>1906.43</ele>
        <time>2019-08-03T09:19:29Z</time>
      </trkpt>
      <trkpt lat="44.13321" lon="6.64303">
        <ele>1908.83</ele>
        <time>2019-08-03T09:19:40Z</time>
      </trkpt>
      <trkpt lat="44.13339" lon="6.64325">
        <ele>1907.39</ele>
        <time>2019-08-03T09:19:55Z</time>
      </trkpt>
      <trkpt lat="44.13345" lon="6.64341">
        <ele>1908.83</ele>
        <time>2019-08-03T09:20:11Z</time>
      </trkpt>
      <trkpt lat="44.1336" lon="6.64344">
        <ele>1907.87</ele>
        <time>2019-08-03T09:20:27Z</time>
      </trkpt>
      <trkpt lat="44.13399" lon="6.64363">
        <ele>1908.35</ele>
        <time>2019-08-03T09:20:47Z</time>
      </trkpt>
      <trkpt lat="44.13403" lon="6.6437">
        <ele>1910.28</ele>
        <time>2019-08-03T09:21:02Z</time>
      </trkpt>
      <trkpt lat="44.13402" lon="6.64372">
        <ele>1909.8</ele>
        <time>2019-08-03T09:21:17Z</time>
      </trkpt>
      <trkpt lat="44.13403" lon="6.64368">
        <ele>1910.28</ele>
        <time>2019-08-03T09:21:21Z</time>
      </trkpt>
      <trkpt lat="44.13409" lon="6.64352">
        <ele>1909.8</ele>
        <time>2019-08-03T09:21:33Z</time>
      </trkpt>
      <trkpt lat="44.13411" lon="6.64352">
        <ele>1910.28</ele>
        <time>2019-08-03T09:21:37Z</time>
      </trkpt>
      <trkpt lat="44.13413" lon="6.64357">
        <ele>1911.24</ele>
        <time>2019-08-03T09:21:45Z</time>
      </trkpt>
      <trkpt lat="44.13421" lon="6.64367">
        <ele>1910.76</ele>
        <time>2019-08-03T09:22:01Z</time>
      </trkpt>
      <trkpt lat="44.13421" lon="6.64359">
        <ele>1911.24</ele>
        <time>2019-08-03T09:22:14Z</time>
      </trkpt>
      <trkpt lat="44.13421" lon="6.64356">
        <ele>1911.24</ele>
        <time>2019-08-03T09:22:16Z</time>
      </trkpt>
      <trkpt lat="44.13422" lon="6.64337">
        <ele>1911.24</ele>
        <time>2019-08-03T09:22:30Z</time>
      </trkpt>
      <trkpt lat="44.13429" lon="6.64314">
        <ele>1912.2</ele>
        <time>2019-08-03T09:22:45Z</time>
      </trkpt>
      <trkpt lat="44.1344" lon="6.64301">
        <ele>1911.72</ele>
        <time>2019-08-03T09:23:02Z</time>
      </trkpt>
      <trkpt lat="44.13459" lon="6.64308">
        <ele>1914.12</ele>
        <time>2019-08-03T09:23:21Z</time>
      </trkpt>
      <trkpt lat="44.1347" lon="6.64309">
        <ele>1913.64</ele>
        <time>2019-08-03T09:23:34Z</time>
      </trkpt>
      <trkpt lat="44.13467" lon="6.64284">
        <ele>1913.64</ele>
        <time>2019-08-03T09:23:51Z</time>
      </trkpt>
      <trkpt lat="44.13476" lon="6.64264">
        <ele>1914.12</ele>
        <time>2019-08-03T09:24:08Z</time>
      </trkpt>
      <trkpt lat="44.13486" lon="6.64251">
        <ele>1915.08</ele>
        <time>2019-08-03T09:24:25Z</time>
      </trkpt>
      <trkpt lat="44.13505" lon="6.64246">
        <ele>1915.08</ele>
        <time>2019-08-03T09:24:45Z</time>
      </trkpt>
      <trkpt lat="44.13526" lon="6.64248">
        <ele>1915.56</ele>
        <time>2019-08-03T09:25:05Z</time>
      </trkpt>
      <trkpt lat="44.13544" lon="6.64253">
        <ele>1917.49</ele>
        <time>2019-08-03T09:25:27Z</time>
      </trkpt>
      <trkpt lat="44.13566" lon="6.64257">
        <ele>1917.97</ele>
        <time>2019-08-03T09:25:44Z</time>
      </trkpt>
      <trkpt lat="44.1358" lon="6.64261">
        <ele>1918.45</ele>
        <time>2019-08-03T09:25:59Z</time>
      </trkpt>
      <trkpt lat="44.13592" lon="6.64269">
        <ele>1919.41</ele>
        <time>2019-08-03T09:26:17Z</time>
      </trkpt>
      <trkpt lat="44.13598" lon="6.64283">
        <ele>1920.37</ele>
        <time>2019-08-03T09:26:32Z</time>
      </trkpt>
      <trkpt lat="44.136" lon="6.64285">
        <ele>1919.89</ele>
        <time>2019-08-03T09:26:37Z</time>
      </trkpt>
      <trkpt lat="44.13609" lon="6.64278">
        <ele>1920.85</ele>
        <time>2019-08-03T09:26:48Z</time>
      </trkpt>
      <trkpt lat="44.1361" lon="6.64275">
        <ele>1920.85</ele>
        <time>2019-08-03T09:26:51Z</time>
      </trkpt>
      <trkpt lat="44.13618" lon="6.64258">
        <ele>1921.33</ele>
        <time>2019-08-03T09:27:08Z</time>
      </trkpt>
      <trkpt lat="44.13618" lon="6.64257">
        <ele>1920.85</ele>
        <time>2019-08-03T09:27:09Z</time>
      </trkpt>
      <trkpt lat="44.13619" lon="6.64232">
        <ele>1920.85</ele>
        <time>2019-08-03T09:27:24Z</time>
      </trkpt>
      <trkpt lat="44.13628" lon="6.64214">
        <ele>1921.33</ele>
        <time>2019-08-03T09:27:40Z</time>
      </trkpt>
      <trkpt lat="44.13641" lon="6.64203">
        <ele>1921.81</ele>
        <time>2019-08-03T09:27:55Z</time>
      </trkpt>
      <trkpt lat="44.13654" lon="6.64195">
        <ele>1922.29</ele>
        <time>2019-08-03T09:28:09Z</time>
      </trkpt>
      <trkpt lat="44.13665" lon="6.64186">
        <ele>1922.77</ele>
        <time>2019-08-03T09:28:24Z</time>
      </trkpt>
      <trkpt lat="44.13679" lon="6.64177">
        <ele>1923.25</ele>
        <time>2019-08-03T09:28:42Z</time>
      </trkpt>
      <trkpt lat="44.13693" lon="6.64167">
        <ele>1924.7</ele>
        <time>2019-08-03T09:29:01Z</time>
      </trkpt>
      <trkpt lat="44.13708" lon="6.64164">
        <ele>1924.7</ele>
        <time>2019-08-03T09:29:19Z</time>
      </trkpt>
      <trkpt lat="44.13721" lon="6.64158">
        <ele>1925.66</ele>
        <time>2019-08-03T09:29:36Z</time>
      </trkpt>
      <trkpt lat="44.13734" lon="6.64143">
        <ele>1925.66</ele>
        <time>2019-08-03T09:29:51Z</time>
      </trkpt>
      <trkpt lat="44.13744" lon="6.64141">
        <ele>1925.18</ele>
        <time>2019-08-03T09:30:05Z</time>
      </trkpt>
      <trkpt lat="44.13757" lon="6.64134">
        <ele>1927.1</ele>
        <time>2019-08-03T09:30:22Z</time>
      </trkpt>
      <trkpt lat="44.13762" lon="6.64125">
        <ele>1927.58</ele>
        <time>2019-08-03T09:30:36Z</time>
      </trkpt>
      <trkpt lat="44.13754" lon="6.64118">
        <ele>1927.1</ele>
        <time>2019-08-03T09:30:45Z</time>
      </trkpt>
      <trkpt lat="44.13747" lon="6.64098">
        <ele>1927.58</ele>
        <time>2019-08-03T09:31:02Z</time>
      </trkpt>
      <trkpt lat="44.13744" lon="6.64083">
        <ele>1927.58</ele>
        <time>2019-08-03T09:31:17Z</time>
      </trkpt>
      <trkpt lat="44.13738" lon="6.64073">
        <ele>1928.06</ele>
        <time>2019-08-03T09:31:30Z</time>
      </trkpt>
      <trkpt lat="44.13731" lon="6.64064">
        <ele>1929.02</ele>
        <time>2019-08-03T09:31:42Z</time>
      </trkpt>
      <trkpt lat="44.13727" lon="6.64053">
        <ele>1929.5</ele>
        <time>2019-08-03T09:31:59Z</time>
      </trkpt>
      <trkpt lat="44.13715" lon="6.64021">
        <ele>1929.5</ele>
        <time>2019-08-03T09:32:19Z</time>
      </trkpt>
      <trkpt lat="44.13709" lon="6.64004">
        <ele>1929.98</ele>
        <time>2019-08-03T09:32:33Z</time>
      </trkpt>
      <trkpt lat="44.13704" lon="6.63987">
        <ele>1930.46</ele>
        <time>2019-08-03T09:32:49Z</time>
      </trkpt>
      <trkpt lat="44.13698" lon="6.63967">
        <ele>1930.95</ele>
        <time>2019-08-03T09:33:04Z</time>
      </trkpt>
      <trkpt lat="44.137" lon="6.63952">
        <ele>1931.43</ele>
        <time>2019-08-03T09:33:19Z</time>
      </trkpt>
      <trkpt lat="44.13713" lon="6.63941">
        <ele>1931.91</ele>
        <time>2019-08-03T09:33:35Z</time>
      </trkpt>
      <trkpt lat="44.13728" lon="6.63932">
        <ele>1931.91</ele>
        <time>2019-08-03T09:33:50Z</time>
      </trkpt>
      <trkpt lat="44.13743" lon="6.63913">
        <ele>1931.91</ele>
        <time>2019-08-03T09:34:09Z</time>
      </trkpt>
      <trkpt lat="44.13752" lon="6.639">
        <ele>1932.39</ele>
        <time>2019-08-03T09:34:24Z</time>
      </trkpt>
      <trkpt lat="44.13764" lon="6.63893">
        <ele>1932.87</ele>
        <time>2019-08-03T09:34:46Z</time>
      </trkpt>
      <trkpt lat="44.1377" lon="6.63878">
        <ele>1933.35</ele>
        <time>2019-08-03T09:35:01Z</time>
      </trkpt>
      <trkpt lat="44.13776" lon="6.63861">
        <ele>1932.87</ele>
        <time>2019-08-03T09:35:14Z</time>
      </trkpt>
      <trkpt lat="44.13792" lon="6.63851">
        <ele>1933.35</ele>
        <time>2019-08-03T09:35:32Z</time>
      </trkpt>
      <trkpt lat="44.13801" lon="6.63836">
        <ele>1934.31</ele>
        <time>2019-08-03T09:35:47Z</time>
      </trkpt>
      <trkpt lat="44.13801" lon="6.63833">
        <ele>1933.83</ele>
        <time>2019-08-03T09:35:49Z</time>
      </trkpt>
      <trkpt lat="44.13808" lon="6.63819">
        <ele>1932.87</ele>
        <time>2019-08-03T09:36:04Z</time>
      </trkpt>
      <trkpt lat="44.13818" lon="6.63807">
        <ele>1932.87</ele>
        <time>2019-08-03T09:36:19Z</time>
      </trkpt>
      <trkpt lat="44.13817" lon="6.63791">
        <ele>1933.83</ele>
        <time>2019-08-03T09:36:34Z</time>
      </trkpt>
      <trkpt lat="44.13825" lon="6.6378">
        <ele>1933.83</ele>
        <time>2019-08-03T09:36:49Z</time>
      </trkpt>
      <trkpt lat="44.13829" lon="6.63775">
        <ele>1933.35</ele>
        <time>2019-08-03T09:37:06Z</time>
      </trkpt>
      <trkpt lat="44.13838" lon="6.6376">
        <ele>1934.31</ele>
        <time>2019-08-03T09:37:21Z</time>
      </trkpt>
      <trkpt lat="44.13842" lon="6.63751">
        <ele>1934.79</ele>
        <time>2019-08-03T09:37:33Z</time>
      </trkpt>
      <trkpt lat="44.13838" lon="6.63742">
        <ele>1935.27</ele>
        <time>2019-08-03T09:37:47Z</time>
      </trkpt>
      <trkpt lat="44.1383" lon="6.63735">
        <ele>1935.75</ele>
        <time>2019-08-03T09:38:03Z</time>
      </trkpt>
      <trkpt lat="44.13821" lon="6.6373">
        <ele>1935.27</ele>
        <time>2019-08-03T09:38:19Z</time>
      </trkpt>
      <trkpt lat="44.13817" lon="6.63726">
        <ele>1936.23</ele>
        <time>2019-08-03T09:38:25Z</time>
      </trkpt>
      <trkpt lat="44.13812" lon="6.63722">
        <ele>1936.71</ele>
        <time>2019-08-03T09:38:38Z</time>
      </trkpt>
      <trkpt lat="44.13806" lon="6.63722">
        <ele>1936.71</ele>
        <time>2019-08-03T09:38:54Z</time>
      </trkpt>
      <trkpt lat="44.13793" lon="6.63722">
        <ele>1937.19</ele>
        <time>2019-08-03T09:39:12Z</time>
      </trkpt>
      <trkpt lat="44.13786" lon="6.63719">
        <ele>1937.19</ele>
        <time>2019-08-03T09:39:27Z</time>
      </trkpt>
      <trkpt lat="44.13772" lon="6.63708">
        <ele>1937.67</ele>
        <time>2019-08-03T09:39:44Z</time>
      </trkpt>
      <trkpt lat="44.13765" lon="6.63719">
        <ele>1934.31</ele>
        <time>2019-08-03T09:40:00Z</time>
      </trkpt>
      <trkpt lat="44.13766" lon="6.63716">
        <ele>1941.04</ele>
        <time>2019-08-03T09:40:01Z</time>
      </trkpt>
      <trkpt lat="44.13766" lon="6.63717">
        <ele>1938.16</ele>
        <time>2019-08-03T09:40:02Z</time>
      </trkpt>
      <trkpt lat="44.13762" lon="6.63707">
        <ele>1938.64</ele>
        <time>2019-08-03T09:40:23Z</time>
      </trkpt>
      <trkpt lat="44.13756" lon="6.63687">
        <ele>1938.64</ele>
        <time>2019-08-03T09:40:42Z</time>
      </trkpt>
      <trkpt lat="44.13747" lon="6.63672">
        <ele>1939.6</ele>
        <time>2019-08-03T09:40:59Z</time>
      </trkpt>
      <trkpt lat="44.13739" lon="6.6366">
        <ele>1939.12</ele>
        <time>2019-08-03T09:41:15Z</time>
      </trkpt>
      <trkpt lat="44.13729" lon="6.63643">
        <ele>1940.08</ele>
        <time>2019-08-03T09:41:32Z</time>
      </trkpt>
      <trkpt lat="44.1372" lon="6.63624">
        <ele>1940.08</ele>
        <time>2019-08-03T09:41:49Z</time>
      </trkpt>
      <trkpt lat="44.13715" lon="6.63606">
        <ele>1940.56</ele>
        <time>2019-08-03T09:42:04Z</time>
      </trkpt>
      <trkpt lat="44.13707" lon="6.63586">
        <ele>1941.04</ele>
        <time>2019-08-03T09:42:19Z</time>
      </trkpt>
      <trkpt lat="44.13698" lon="6.63568">
        <ele>1941.04</ele>
        <time>2019-08-03T09:42:34Z</time>
      </trkpt>
      <trkpt lat="44.13692" lon="6.6355">
        <ele>1942</ele>
        <time>2019-08-03T09:42:50Z</time>
      </trkpt>
      <trkpt lat="44.13684" lon="6.63529">
        <ele>1942.96</ele>
        <time>2019-08-03T09:43:05Z</time>
      </trkpt>
      <trkpt lat="44.13675" lon="6.6351">
        <ele>1943.92</ele>
        <time>2019-08-03T09:43:24Z</time>
      </trkpt>
      <trkpt lat="44.13668" lon="6.63488">
        <ele>1944.4</ele>
        <time>2019-08-03T09:43:44Z</time>
      </trkpt>
      <trkpt lat="44.13669" lon="6.63465">
        <ele>1944.88</ele>
        <time>2019-08-03T09:44:03Z</time>
      </trkpt>
      <trkpt lat="44.13672" lon="6.63448">
        <ele>1944.88</ele>
        <time>2019-08-03T09:44:17Z</time>
      </trkpt>
      <trkpt lat="44.13683" lon="6.63437">
        <ele>1945.36</ele>
        <time>2019-08-03T09:44:34Z</time>
      </trkpt>
      <trkpt lat="44.137" lon="6.63427">
        <ele>1946.81</ele>
        <time>2019-08-03T09:44:53Z</time>
      </trkpt>
      <trkpt lat="44.13716" lon="6.63415">
        <ele>1946.33</ele>
        <time>2019-08-03T09:45:11Z</time>
      </trkpt>
      <trkpt lat="44.13729" lon="6.63407">
        <ele>1947.77</ele>
        <time>2019-08-03T09:45:27Z</time>
      </trkpt>
      <trkpt lat="44.13745" lon="6.63397">
        <ele>1948.25</ele>
        <time>2019-08-03T09:45:47Z</time>
      </trkpt>
      <trkpt lat="44.1376" lon="6.63388">
        <ele>1948.73</ele>
        <time>2019-08-03T09:46:03Z</time>
      </trkpt>
      <trkpt lat="44.13776" lon="6.63376">
        <ele>1950.17</ele>
        <time>2019-08-03T09:46:22Z</time>
      </trkpt>
      <trkpt lat="44.13791" lon="6.63367">
        <ele>1950.17</ele>
        <time>2019-08-03T09:46:41Z</time>
      </trkpt>
      <trkpt lat="44.13803" lon="6.63355">
        <ele>1952.09</ele>
        <time>2019-08-03T09:46:58Z</time>
      </trkpt>
      <trkpt lat="44.13817" lon="6.63348">
        <ele>1951.61</ele>
        <time>2019-08-03T09:47:16Z</time>
      </trkpt>
      <trkpt lat="44.13832" lon="6.63337">
        <ele>1952.57</ele>
        <time>2019-08-03T09:47:33Z</time>
      </trkpt>
      <trkpt lat="44.13844" lon="6.63319">
        <ele>1952.09</ele>
        <time>2019-08-03T09:47:52Z</time>
      </trkpt>
      <trkpt lat="44.13852" lon="6.63308">
        <ele>1953.06</ele>
        <time>2019-08-03T09:48:10Z</time>
      </trkpt>
      <trkpt lat="44.13871" lon="6.63302">
        <ele>1954.02</ele>
        <time>2019-08-03T09:48:30Z</time>
      </trkpt>
      <trkpt lat="44.13882" lon="6.63291">
        <ele>1954.5</ele>
        <time>2019-08-03T09:48:45Z</time>
      </trkpt>
      <trkpt lat="44.13888" lon="6.63288">
        <ele>1954.5</ele>
        <time>2019-08-03T09:48:54Z</time>
      </trkpt>
      <trkpt lat="44.13899" lon="6.63281">
        <ele>1955.46</ele>
        <time>2019-08-03T09:49:10Z</time>
      </trkpt>
      <trkpt lat="44.13902" lon="6.63267">
        <ele>1954.98</ele>
        <time>2019-08-03T09:49:23Z</time>
      </trkpt>
      <trkpt lat="44.13908" lon="6.63258">
        <ele>1955.46</ele>
        <time>2019-08-03T09:49:37Z</time>
      </trkpt>
      <trkpt lat="44.13922" lon="6.63242">
        <ele>1956.9</ele>
        <time>2019-08-03T09:49:57Z</time>
      </trkpt>
      <trkpt lat="44.1393" lon="6.63235">
        <ele>1956.9</ele>
        <time>2019-08-03T09:50:12Z</time>
      </trkpt>
      <trkpt lat="44.13944" lon="6.63232">
        <ele>1956.42</ele>
        <time>2019-08-03T09:50:28Z</time>
      </trkpt>
      <trkpt lat="44.13954" lon="6.63224">
        <ele>1957.38</ele>
        <time>2019-08-03T09:50:42Z</time>
      </trkpt>
      <trkpt lat="44.13968" lon="6.63207">
        <ele>1957.38</ele>
        <time>2019-08-03T09:50:59Z</time>
      </trkpt>
      <trkpt lat="44.13976" lon="6.63195">
        <ele>1958.34</ele>
        <time>2019-08-03T09:51:15Z</time>
      </trkpt>
      <trkpt lat="44.13984" lon="6.63195">
        <ele>1958.34</ele>
        <time>2019-08-03T09:51:27Z</time>
      </trkpt>
      <trkpt lat="44.1398" lon="6.63186">
        <ele>1958.82</ele>
        <time>2019-08-03T09:51:40Z</time>
      </trkpt>
      <trkpt lat="44.13967" lon="6.63174">
        <ele>1959.78</ele>
        <time>2019-08-03T09:51:57Z</time>
      </trkpt>
      <trkpt lat="44.13968" lon="6.63152">
        <ele>1960.27</ele>
        <time>2019-08-03T09:52:13Z</time>
      </trkpt>
      <trkpt lat="44.13972" lon="6.63153">
        <ele>1958.82</ele>
        <time>2019-08-03T09:52:17Z</time>
      </trkpt>
      <trkpt lat="44.13975" lon="6.63149">
        <ele>1960.27</ele>
        <time>2019-08-03T09:52:32Z</time>
      </trkpt>
      <trkpt lat="44.13971" lon="6.63143">
        <ele>1960.27</ele>
        <time>2019-08-03T09:52:53Z</time>
      </trkpt>
      <trkpt lat="44.13972" lon="6.63143">
        <ele>1960.27</ele>
        <time>2019-08-03T09:53:05Z</time>
      </trkpt>
      <trkpt lat="44.1396" lon="6.63132">
        <ele>1960.27</ele>
        <time>2019-08-03T09:53:19Z</time>
      </trkpt>
      <trkpt lat="44.1395" lon="6.63113">
        <ele>1960.75</ele>
        <time>2019-08-03T09:53:35Z</time>
      </trkpt>
      <trkpt lat="44.13941" lon="6.63099">
        <ele>1960.75</ele>
        <time>2019-08-03T09:53:52Z</time>
      </trkpt>
      <trkpt lat="44.13935" lon="6.63084">
        <ele>1961.23</ele>
        <time>2019-08-03T09:54:06Z</time>
      </trkpt>
      <trkpt lat="44.13927" lon="6.63064">
        <ele>1961.23</ele>
        <time>2019-08-03T09:54:22Z</time>
      </trkpt>
      <trkpt lat="44.13922" lon="6.6305">
        <ele>1961.71</ele>
        <time>2019-08-03T09:54:36Z</time>
      </trkpt>
      <trkpt lat="44.1392" lon="6.63036">
        <ele>1961.23</ele>
        <time>2019-08-03T09:54:53Z</time>
      </trkpt>
      <trkpt lat="44.13916" lon="6.63025">
        <ele>1961.23</ele>
        <time>2019-08-03T09:55:08Z</time>
      </trkpt>
      <trkpt lat="44.13914" lon="6.63013">
        <ele>1961.71</ele>
        <time>2019-08-03T09:55:25Z</time>
      </trkpt>
      <trkpt lat="44.1391" lon="6.63">
        <ele>1961.71</ele>
        <time>2019-08-03T09:55:37Z</time>
      </trkpt>
      <trkpt lat="44.13906" lon="6.62983">
        <ele>1961.23</ele>
        <time>2019-08-03T09:55:52Z</time>
      </trkpt>
      <trkpt lat="44.13901" lon="6.62966">
        <ele>1961.23</ele>
        <time>2019-08-03T09:56:07Z</time>
      </trkpt>
      <trkpt lat="44.13896" lon="6.6295">
        <ele>1961.23</ele>
        <time>2019-08-03T09:56:22Z</time>
      </trkpt>
      <trkpt lat="44.13891" lon="6.62938">
        <ele>1962.19</ele>
        <time>2019-08-03T09:56:34Z</time>
      </trkpt>
      <trkpt lat="44.13887" lon="6.62926">
        <ele>1961.71</ele>
        <time>2019-08-03T09:56:48Z</time>
      </trkpt>
      <trkpt lat="44.13878" lon="6.62909">
        <ele>1962.19</ele>
        <time>2019-08-03T09:57:03Z</time>
      </trkpt>
      <trkpt lat="44.13873" lon="6.62899">
        <ele>1962.19</ele>
        <time>2019-08-03T09:57:16Z</time>
      </trkpt>
      <trkpt lat="44.13869" lon="6.62885">
        <ele>1962.19</ele>
        <time>2019-08-03T09:57:32Z</time>
      </trkpt>
      <trkpt lat="44.13868" lon="6.62869">
        <ele>1962.67</ele>
        <time>2019-08-03T09:57:46Z</time>
      </trkpt>
      <trkpt lat="44.13869" lon="6.62852">
        <ele>1962.19</ele>
        <time>2019-08-03T09:58:01Z</time>
      </trkpt>
      <trkpt lat="44.13868" lon="6.62837">
        <ele>1962.19</ele>
        <time>2019-08-03T09:58:18Z</time>
      </trkpt>
      <trkpt lat="44.13865" lon="6.62823">
        <ele>1963.15</ele>
        <time>2019-08-03T09:58:34Z</time>
      </trkpt>
      <trkpt lat="44.13861" lon="6.62811">
        <ele>1962.67</ele>
        <time>2019-08-03T09:58:47Z</time>
      </trkpt>
      <trkpt lat="44.13856" lon="6.62797">
        <ele>1964.11</ele>
        <time>2019-08-03T09:59:01Z</time>
      </trkpt>
      <trkpt lat="44.13854" lon="6.6278">
        <ele>1963.15</ele>
        <time>2019-08-03T09:59:17Z</time>
      </trkpt>
      <trkpt lat="44.13851" lon="6.62774">
        <ele>1963.63</ele>
        <time>2019-08-03T09:59:32Z</time>
      </trkpt>
      <trkpt lat="44.13844" lon="6.62764">
        <ele>1964.59</ele>
        <time>2019-08-03T09:59:46Z</time>
      </trkpt>
      <trkpt lat="44.13844" lon="6.62765">
        <ele>1964.11</ele>
        <time>2019-08-03T09:59:52Z</time>
      </trkpt>
      <trkpt lat="44.13839" lon="6.62762">
        <ele>1963.63</ele>
        <time>2019-08-03T10:00:07Z</time>
      </trkpt>
      <trkpt lat="44.13835" lon="6.62759">
        <ele>1964.11</ele>
        <time>2019-08-03T10:00:18Z</time>
      </trkpt>
      <trkpt lat="44.1383" lon="6.62757">
        <ele>1962.67</ele>
        <time>2019-08-03T10:00:34Z</time>
      </trkpt>
      <trkpt lat="44.1383" lon="6.62754">
        <ele>1964.59</ele>
        <time>2019-08-03T10:00:55Z</time>
      </trkpt>
      <trkpt lat="44.13827" lon="6.6275">
        <ele>1964.59</ele>
        <time>2019-08-03T10:01:05Z</time>
      </trkpt>
      <trkpt lat="44.13822" lon="6.62746">
        <ele>1964.11</ele>
        <time>2019-08-03T10:01:14Z</time>
      </trkpt>
      <trkpt lat="44.13809" lon="6.62739">
        <ele>1964.11</ele>
        <time>2019-08-03T10:01:30Z</time>
      </trkpt>
      <trkpt lat="44.13807" lon="6.62736">
        <ele>1964.59</ele>
        <time>2019-08-03T10:01:45Z</time>
      </trkpt>
      <trkpt lat="44.13806" lon="6.62732">
        <ele>1964.59</ele>
        <time>2019-08-03T10:01:59Z</time>
      </trkpt>
      <trkpt lat="44.13805" lon="6.62726">
        <ele>1964.59</ele>
        <time>2019-08-03T10:02:04Z</time>
      </trkpt>
      <trkpt lat="44.13809" lon="6.62709">
        <ele>1964.59</ele>
        <time>2019-08-03T10:02:19Z</time>
      </trkpt>
      <trkpt lat="44.1381" lon="6.62695">
        <ele>1966.03</ele>
        <time>2019-08-03T10:02:33Z</time>
      </trkpt>
      <trkpt lat="44.13809" lon="6.62681">
        <ele>1965.55</ele>
        <time>2019-08-03T10:02:47Z</time>
      </trkpt>
      <trkpt lat="44.13809" lon="6.62667">
        <ele>1966.03</ele>
        <time>2019-08-03T10:03:02Z</time>
      </trkpt>
      <trkpt lat="44.13805" lon="6.62652">
        <ele>1966.03</ele>
        <time>2019-08-03T10:03:16Z</time>
      </trkpt>
      <trkpt lat="44.1381" lon="6.62643">
        <ele>1966.03</ele>
        <time>2019-08-03T10:03:32Z</time>
      </trkpt>
      <trkpt lat="44.13814" lon="6.62632">
        <ele>1967.48</ele>
        <time>2019-08-03T10:03:46Z</time>
      </trkpt>
      <trkpt lat="44.13819" lon="6.62624">
        <ele>1967.96</ele>
        <time>2019-08-03T10:03:55Z</time>
      </trkpt>
      <trkpt lat="44.13821" lon="6.6261">
        <ele>1968.44</ele>
        <time>2019-08-03T10:04:10Z</time>
      </trkpt>
      <trkpt lat="44.13822" lon="6.62601">
        <ele>1967.96</ele>
        <time>2019-08-03T10:04:17Z</time>
      </trkpt>
      <trkpt lat="44.13815" lon="6.62581">
        <ele>1968.44</ele>
        <time>2019-08-03T10:04:34Z</time>
      </trkpt>
      <trkpt lat="44.13815" lon="6.62563">
        <ele>1967.96</ele>
        <time>2019-08-03T10:04:50Z</time>
      </trkpt>
      <trkpt lat="44.13818" lon="6.62557">
        <ele>1967.96</ele>
        <time>2019-08-03T10:05:06Z</time>
      </trkpt>
      <trkpt lat="44.13821" lon="6.62544">
        <ele>1968.92</ele>
        <time>2019-08-03T10:05:18Z</time>
      </trkpt>
      <trkpt lat="44.13825" lon="6.62533">
        <ele>1968.92</ele>
        <time>2019-08-03T10:05:31Z</time>
      </trkpt>
      <trkpt lat="44.13818" lon="6.62519">
        <ele>1968.92</ele>
        <time>2019-08-03T10:05:46Z</time>
      </trkpt>
      <trkpt lat="44.13812" lon="6.62512">
        <ele>1968.92</ele>
        <time>2019-08-03T10:05:59Z</time>
      </trkpt>
      <trkpt lat="44.13808" lon="6.62506">
        <ele>1964.11</ele>
        <time>2019-08-03T10:06:05Z</time>
      </trkpt>
      <trkpt lat="44.13807" lon="6.62506">
        <ele>1971.32</ele>
        <time>2019-08-03T10:06:06Z</time>
      </trkpt>
      <trkpt lat="44.138" lon="6.62496">
        <ele>1968.92</ele>
        <time>2019-08-03T10:06:16Z</time>
      </trkpt>
      <trkpt lat="44.13791" lon="6.62478">
        <ele>1968.92</ele>
        <time>2019-08-03T10:06:33Z</time>
      </trkpt>
      <trkpt lat="44.13786" lon="6.62455">
        <ele>1969.88</ele>
        <time>2019-08-03T10:06:49Z</time>
      </trkpt>
      <trkpt lat="44.13777" lon="6.62447">
        <ele>1970.36</ele>
        <time>2019-08-03T10:07:01Z</time>
      </trkpt>
      <trkpt lat="44.13757" lon="6.62437">
        <ele>1969.4</ele>
        <time>2019-08-03T10:07:20Z</time>
      </trkpt>
      <trkpt lat="44.13746" lon="6.62421">
        <ele>1969.88</ele>
        <time>2019-08-03T10:07:35Z</time>
      </trkpt>
      <trkpt lat="44.13743" lon="6.62416">
        <ele>1969.88</ele>
        <time>2019-08-03T10:07:39Z</time>
      </trkpt>
      <trkpt lat="44.13733" lon="6.62405">
        <ele>1970.84</ele>
        <time>2019-08-03T10:07:53Z</time>
      </trkpt>
      <trkpt lat="44.13725" lon="6.62396">
        <ele>1970.36</ele>
        <time>2019-08-03T10:08:07Z</time>
      </trkpt>
      <trkpt lat="44.13723" lon="6.62395">
        <ele>1970.36</ele>
        <time>2019-08-03T10:08:09Z</time>
      </trkpt>
      <trkpt lat="44.13712" lon="6.62392">
        <ele>1970.84</ele>
        <time>2019-08-03T10:08:24Z</time>
      </trkpt>
      <trkpt lat="44.13703" lon="6.62391">
        <ele>1970.36</ele>
        <time>2019-08-03T10:08:38Z</time>
      </trkpt>
      <trkpt lat="44.13687" lon="6.62391">
        <ele>1970.36</ele>
        <time>2019-08-03T10:08:54Z</time>
      </trkpt>
      <trkpt lat="44.13674" lon="6.62391">
        <ele>1971.32</ele>
        <time>2019-08-03T10:09:07Z</time>
      </trkpt>
      <trkpt lat="44.13662" lon="6.62391">
        <ele>1970.36</ele>
        <time>2019-08-03T10:09:23Z</time>
      </trkpt>
      <trkpt lat="44.13648" lon="6.62387">
        <ele>1970.36</ele>
        <time>2019-08-03T10:09:38Z</time>
      </trkpt>
      <trkpt lat="44.13637" lon="6.62383">
        <ele>1970.84</ele>
        <time>2019-08-03T10:09:53Z</time>
      </trkpt>
      <trkpt lat="44.1362" lon="6.6237">
        <ele>1971.32</ele>
        <time>2019-08-03T10:10:07Z</time>
      </trkpt>
      <trkpt lat="44.13611" lon="6.62366">
        <ele>1971.8</ele>
        <time>2019-08-03T10:10:25Z</time>
      </trkpt>
      <trkpt lat="44.1361" lon="6.62364">
        <ele>1972.28</ele>
        <time>2019-08-03T10:10:49Z</time>
      </trkpt>
      <trkpt lat="44.13609" lon="6.62372">
        <ele>1972.76</ele>
        <time>2019-08-03T10:11:21Z</time>
      </trkpt>
      <trkpt lat="44.13618" lon="6.62377">
        <ele>1972.76</ele>
        <time>2019-08-03T10:11:39Z</time>
      </trkpt>
      <trkpt lat="44.13612" lon="6.6237">
        <ele>1972.28</ele>
        <time>2019-08-03T10:11:54Z</time>
      </trkpt>
      <trkpt lat="44.13609" lon="6.6237">
        <ele>1972.76</ele>
        <time>2019-08-03T10:12:08Z</time>
      </trkpt>
      <trkpt lat="44.1361" lon="6.62365">
        <ele>1973.72</ele>
        <time>2019-08-03T10:12:27Z</time>
      </trkpt>
      <trkpt lat="44.13615" lon="6.62372">
        <ele>1973.72</ele>
        <time>2019-08-03T10:12:58Z</time>
      </trkpt>
      <trkpt lat="44.13624" lon="6.62376">
        <ele>1976.13</ele>
        <time>2019-08-03T10:13:17Z</time>
      </trkpt>
      <trkpt lat="44.13636" lon="6.62376">
        <ele>1979.49</ele>
        <time>2019-08-03T10:13:33Z</time>
      </trkpt>
      <trkpt lat="44.13648" lon="6.62378">
        <ele>1982.38</ele>
        <time>2019-08-03T10:13:49Z</time>
      </trkpt>
      <trkpt lat="44.13662" lon="6.62378">
        <ele>1983.34</ele>
        <time>2019-08-03T10:14:03Z</time>
      </trkpt>
      <trkpt lat="44.13671" lon="6.6237">
        <ele>1985.74</ele>
        <time>2019-08-03T10:14:17Z</time>
      </trkpt>
      <trkpt lat="44.13683" lon="6.62366">
        <ele>1987.66</ele>
        <time>2019-08-03T10:14:33Z</time>
      </trkpt>
      <trkpt lat="44.13694" lon="6.62366">
        <ele>1988.14</ele>
        <time>2019-08-03T10:14:48Z</time>
      </trkpt>
      <trkpt lat="44.137" lon="6.62359">
        <ele>1990.07</ele>
        <time>2019-08-03T10:15:02Z</time>
      </trkpt>
      <trkpt lat="44.1371" lon="6.62359">
        <ele>1991.99</ele>
        <time>2019-08-03T10:15:16Z</time>
      </trkpt>
      <trkpt lat="44.13717" lon="6.62359">
        <ele>1992.95</ele>
        <time>2019-08-03T10:15:28Z</time>
      </trkpt>
      <trkpt lat="44.13725" lon="6.62364">
        <ele>1994.39</ele>
        <time>2019-08-03T10:15:39Z</time>
      </trkpt>
      <trkpt lat="44.13728" lon="6.62366">
        <ele>1994.87</ele>
        <time>2019-08-03T10:15:46Z</time>
      </trkpt>
      <trkpt lat="44.13738" lon="6.62368">
        <ele>1996.8</ele>
        <time>2019-08-03T10:16:00Z</time>
      </trkpt>
      <trkpt lat="44.13739" lon="6.62372">
        <ele>1996.8</ele>
        <time>2019-08-03T10:16:06Z</time>
      </trkpt>
      <trkpt lat="44.13748" lon="6.62384">
        <ele>1998.72</ele>
        <time>2019-08-03T10:16:22Z</time>
      </trkpt>
      <trkpt lat="44.13754" lon="6.62385">
        <ele>2000.16</ele>
        <time>2019-08-03T10:16:34Z</time>
      </trkpt>
      <trkpt lat="44.13758" lon="6.62391">
        <ele>2000.16</ele>
        <time>2019-08-03T10:16:46Z</time>
      </trkpt>
      <trkpt lat="44.13763" lon="6.62384">
        <ele>2001.12</ele>
        <time>2019-08-03T10:17:07Z</time>
      </trkpt>
      <trkpt lat="44.13766" lon="6.62377">
        <ele>2001.6</ele>
        <time>2019-08-03T10:17:27Z</time>
      </trkpt>
      <trkpt lat="44.1377" lon="6.6239">
        <ele>2001.6</ele>
        <time>2019-08-03T10:17:36Z</time>
      </trkpt>
      <trkpt lat="44.13778" lon="6.62404">
        <ele>2004.49</ele>
        <time>2019-08-03T10:17:51Z</time>
      </trkpt>
      <trkpt lat="44.13783" lon="6.62405">
        <ele>2004.97</ele>
        <time>2019-08-03T10:18:04Z</time>
      </trkpt>
      <trkpt lat="44.1378" lon="6.62392">
        <ele>2007.85</ele>
        <time>2019-08-03T10:18:17Z</time>
      </trkpt>
      <trkpt lat="44.13774" lon="6.62378">
        <ele>2009.77</ele>
        <time>2019-08-03T10:18:31Z</time>
      </trkpt>
      <trkpt lat="44.1377" lon="6.62369">
        <ele>2011.7</ele>
        <time>2019-08-03T10:18:45Z</time>
      </trkpt>
      <trkpt lat="44.13764" lon="6.62361">
        <ele>2012.66</ele>
        <time>2019-08-03T10:19:01Z</time>
      </trkpt>
      <trkpt lat="44.13762" lon="6.62357">
        <ele>2014.1</ele>
        <time>2019-08-03T10:19:07Z</time>
      </trkpt>
      <trkpt lat="44.13754" lon="6.62348">
        <ele>2016.02</ele>
        <time>2019-08-03T10:19:22Z</time>
      </trkpt>
      <trkpt lat="44.13744" lon="6.62337">
        <ele>2018.43</ele>
        <time>2019-08-03T10:19:38Z</time>
      </trkpt>
      <trkpt lat="44.13737" lon="6.62332">
        <ele>2019.87</ele>
        <time>2019-08-03T10:19:52Z</time>
      </trkpt>
      <trkpt lat="44.13728" lon="6.62326">
        <ele>2020.83</ele>
        <time>2019-08-03T10:20:10Z</time>
      </trkpt>
      <trkpt lat="44.13717" lon="6.62319">
        <ele>2024.19</ele>
        <time>2019-08-03T10:20:29Z</time>
      </trkpt>
      <trkpt lat="44.13707" lon="6.62313">
        <ele>2025.64</ele>
        <time>2019-08-03T10:20:44Z</time>
      </trkpt>
      <trkpt lat="44.13704" lon="6.62308">
        <ele>2028.04</ele>
        <time>2019-08-03T10:20:58Z</time>
      </trkpt>
      <trkpt lat="44.13703" lon="6.62306">
        <ele>2028.04</ele>
        <time>2019-08-03T10:21:18Z</time>
      </trkpt>
      <trkpt lat="44.13702" lon="6.62308">
        <ele>2029.48</ele>
        <time>2019-08-03T10:21:33Z</time>
      </trkpt>
      <trkpt lat="44.13701" lon="6.62311">
        <ele>2029</ele>
        <time>2019-08-03T10:21:57Z</time>
      </trkpt>
      <trkpt lat="44.13695" lon="6.62315">
        <ele>2029</ele>
        <time>2019-08-03T10:22:18Z</time>
      </trkpt>
      <trkpt lat="44.13697" lon="6.62305">
        <ele>2029</ele>
        <time>2019-08-03T10:22:39Z</time>
      </trkpt>
      <trkpt lat="44.13699" lon="6.62306">
        <ele>2029.96</ele>
        <time>2019-08-03T10:23:03Z</time>
      </trkpt>
      <trkpt lat="44.13702" lon="6.62312">
        <ele>2030.44</ele>
        <time>2019-08-03T10:23:26Z</time>
      </trkpt>
      <trkpt lat="44.1371" lon="6.62315">
        <ele>2031.4</ele>
        <time>2019-08-03T10:23:37Z</time>
      </trkpt>
      <trkpt lat="44.13721" lon="6.62316">
        <ele>2033.33</ele>
        <time>2019-08-03T10:23:50Z</time>
      </trkpt>
      <trkpt lat="44.13727" lon="6.62318">
        <ele>2034.77</ele>
        <time>2019-08-03T10:23:59Z</time>
      </trkpt>
      <trkpt lat="44.13741" lon="6.62322">
        <ele>2036.69</ele>
        <time>2019-08-03T10:24:18Z</time>
      </trkpt>
      <trkpt lat="44.1375" lon="6.62325">
        <ele>2038.13</ele>
        <time>2019-08-03T10:24:31Z</time>
      </trkpt>
      <trkpt lat="44.13751" lon="6.62325">
        <ele>2038.13</ele>
        <time>2019-08-03T10:24:45Z</time>
      </trkpt>
      <trkpt lat="44.13757" lon="6.62344">
        <ele>2038.61</ele>
        <time>2019-08-03T10:25:06Z</time>
      </trkpt>
      <trkpt lat="44.13758" lon="6.62345">
        <ele>2038.61</ele>
        <time>2019-08-03T10:25:08Z</time>
      </trkpt>
      <trkpt lat="44.1376" lon="6.62345">
        <ele>2039.09</ele>
        <time>2019-08-03T10:25:10Z</time>
      </trkpt>
      <trkpt lat="44.13773" lon="6.62345">
        <ele>2041.5</ele>
        <time>2019-08-03T10:25:26Z</time>
      </trkpt>
      <trkpt lat="44.13783" lon="6.6235">
        <ele>2043.42</ele>
        <time>2019-08-03T10:25:39Z</time>
      </trkpt>
      <trkpt lat="44.13793" lon="6.62354">
        <ele>2044.38</ele>
        <time>2019-08-03T10:25:52Z</time>
      </trkpt>
      <trkpt lat="44.13806" lon="6.62356">
        <ele>2045.82</ele>
        <time>2019-08-03T10:26:07Z</time>
      </trkpt>
      <trkpt lat="44.13809" lon="6.62347">
        <ele>2047.75</ele>
        <time>2019-08-03T10:26:20Z</time>
      </trkpt>
      <trkpt lat="44.13802" lon="6.62339">
        <ele>2049.19</ele>
        <time>2019-08-03T10:26:34Z</time>
      </trkpt>
      <trkpt lat="44.13792" lon="6.62341">
        <ele>2050.15</ele>
        <time>2019-08-03T10:26:52Z</time>
      </trkpt>
      <trkpt lat="44.1379" lon="6.62328">
        <ele>2052.07</ele>
        <time>2019-08-03T10:27:10Z</time>
      </trkpt>
      <trkpt lat="44.13785" lon="6.62317">
        <ele>2053.03</ele>
        <time>2019-08-03T10:27:26Z</time>
      </trkpt>
      <trkpt lat="44.13774" lon="6.62304">
        <ele>2054.96</ele>
        <time>2019-08-03T10:27:44Z</time>
      </trkpt>
      <trkpt lat="44.13765" lon="6.62293">
        <ele>2057.84</ele>
        <time>2019-08-03T10:28:00Z</time>
      </trkpt>
      <trkpt lat="44.13755" lon="6.62283">
        <ele>2059.76</ele>
        <time>2019-08-03T10:28:15Z</time>
      </trkpt>
      <trkpt lat="44.13752" lon="6.62276">
        <ele>2060.24</ele>
        <time>2019-08-03T10:28:33Z</time>
      </trkpt>
      <trkpt lat="44.13753" lon="6.62276">
        <ele>2061.68</ele>
        <time>2019-08-03T10:28:56Z</time>
      </trkpt>
      <trkpt lat="44.13756" lon="6.62284">
        <ele>2062.17</ele>
        <time>2019-08-03T10:29:12Z</time>
      </trkpt>
      <trkpt lat="44.13753" lon="6.62288">
        <ele>2062.17</ele>
        <time>2019-08-03T10:29:36Z</time>
      </trkpt>
      <trkpt lat="44.13765" lon="6.62292">
        <ele>2064.09</ele>
        <time>2019-08-03T10:29:50Z</time>
      </trkpt>
      <trkpt lat="44.13778" lon="6.62298">
        <ele>2066.01</ele>
        <time>2019-08-03T10:30:06Z</time>
      </trkpt>
      <trkpt lat="44.1379" lon="6.62304">
        <ele>2067.93</ele>
        <time>2019-08-03T10:30:21Z</time>
      </trkpt>
      <trkpt lat="44.138" lon="6.62309">
        <ele>2069.86</ele>
        <time>2019-08-03T10:30:37Z</time>
      </trkpt>
      <trkpt lat="44.13812" lon="6.62312">
        <ele>2072.74</ele>
        <time>2019-08-03T10:30:55Z</time>
      </trkpt>
      <trkpt lat="44.13824" lon="6.6231">
        <ele>2074.18</ele>
        <time>2019-08-03T10:31:11Z</time>
      </trkpt>
      <trkpt lat="44.13839" lon="6.62317">
        <ele>2076.59</ele>
        <time>2019-08-03T10:31:30Z</time>
      </trkpt>
      <trkpt lat="44.13848" lon="6.62321">
        <ele>2076.1</ele>
        <time>2019-08-03T10:31:57Z</time>
      </trkpt>
      <trkpt lat="44.13857" lon="6.62326">
        <ele>2078.51</ele>
        <time>2019-08-03T10:32:12Z</time>
      </trkpt>
      <trkpt lat="44.13865" lon="6.62331">
        <ele>2079.95</ele>
        <time>2019-08-03T10:32:25Z</time>
      </trkpt>
      <trkpt lat="44.13875" lon="6.62342">
        <ele>2082.35</ele>
        <time>2019-08-03T10:32:42Z</time>
      </trkpt>
      <trkpt lat="44.13883" lon="6.62351">
        <ele>2083.79</ele>
        <time>2019-08-03T10:32:55Z</time>
      </trkpt>
      <trkpt lat="44.13892" lon="6.62358">
        <ele>2086.68</ele>
        <time>2019-08-03T10:33:10Z</time>
      </trkpt>
      <trkpt lat="44.13894" lon="6.62357">
        <ele>2086.2</ele>
        <time>2019-08-03T10:33:33Z</time>
      </trkpt>
      <trkpt lat="44.13896" lon="6.62359">
        <ele>2086.68</ele>
        <time>2019-08-03T10:33:54Z</time>
      </trkpt>
      <trkpt lat="44.139" lon="6.62365">
        <ele>2087.16</ele>
        <time>2019-08-03T10:33:59Z</time>
      </trkpt>
      <trkpt lat="44.13908" lon="6.62376">
        <ele>2089.08</ele>
        <time>2019-08-03T10:34:13Z</time>
      </trkpt>
      <trkpt lat="44.13919" lon="6.62387">
        <ele>2092.45</ele>
        <time>2019-08-03T10:34:29Z</time>
      </trkpt>
      <trkpt lat="44.1393" lon="6.62403">
        <ele>2094.85</ele>
        <time>2019-08-03T10:34:48Z</time>
      </trkpt>
      <trkpt lat="44.13936" lon="6.62415">
        <ele>2097.73</ele>
        <time>2019-08-03T10:35:03Z</time>
      </trkpt>
      <trkpt lat="44.13942" lon="6.62424">
        <ele>2098.7</ele>
        <time>2019-08-03T10:35:16Z</time>
      </trkpt>
      <trkpt lat="44.13949" lon="6.62437">
        <ele>2100.62</ele>
        <time>2019-08-03T10:35:31Z</time>
      </trkpt>
      <trkpt lat="44.13955" lon="6.62445">
        <ele>2102.54</ele>
        <time>2019-08-03T10:35:46Z</time>
      </trkpt>
      <trkpt lat="44.1396" lon="6.62453">
        <ele>2104.46</ele>
        <time>2019-08-03T10:35:58Z</time>
      </trkpt>
      <trkpt lat="44.13966" lon="6.62457">
        <ele>2106.87</ele>
        <time>2019-08-03T10:36:12Z</time>
      </trkpt>
      <trkpt lat="44.13973" lon="6.62454">
        <ele>2106.87</ele>
        <time>2019-08-03T10:36:28Z</time>
      </trkpt>
      <trkpt lat="44.13966" lon="6.62449">
        <ele>2106.87</ele>
        <time>2019-08-03T10:36:54Z</time>
      </trkpt>
      <trkpt lat="44.13967" lon="6.62447">
        <ele>2110.23</ele>
        <time>2019-08-03T10:36:57Z</time>
      </trkpt>
      <trkpt lat="44.13968" lon="6.62447">
        <ele>2106.87</ele>
        <time>2019-08-03T10:36:59Z</time>
      </trkpt>
      <trkpt lat="44.13974" lon="6.62457">
        <ele>2107.35</ele>
        <time>2019-08-03T10:37:22Z</time>
      </trkpt>
      <trkpt lat="44.13967" lon="6.62453">
        <ele>2106.87</ele>
        <time>2019-08-03T10:37:44Z</time>
      </trkpt>
      <trkpt lat="44.13969" lon="6.62448">
        <ele>2107.35</ele>
        <time>2019-08-03T10:38:06Z</time>
      </trkpt>
      <trkpt lat="44.13972" lon="6.62448">
        <ele>2106.87</ele>
        <time>2019-08-03T10:38:30Z</time>
      </trkpt>
      <trkpt lat="44.13979" lon="6.6245">
        <ele>2106.87</ele>
        <time>2019-08-03T10:38:54Z</time>
      </trkpt>
      <trkpt lat="44.1397" lon="6.62457">
        <ele>2106.39</ele>
        <time>2019-08-03T10:39:14Z</time>
      </trkpt>
      <trkpt lat="44.13971" lon="6.62475">
        <ele>2106.87</ele>
        <time>2019-08-03T10:39:29Z</time>
      </trkpt>
      <trkpt lat="44.13973" lon="6.62489">
        <ele>2106.39</ele>
        <time>2019-08-03T10:39:43Z</time>
      </trkpt>
      <trkpt lat="44.13974" lon="6.62508">
        <ele>2106.87</ele>
        <time>2019-08-03T10:39:59Z</time>
      </trkpt>
      <trkpt lat="44.13976" lon="6.62524">
        <ele>2107.35</ele>
        <time>2019-08-03T10:40:15Z</time>
      </trkpt>
      <trkpt lat="44.13977" lon="6.6254">
        <ele>2107.83</ele>
        <time>2019-08-03T10:40:28Z</time>
      </trkpt>
      <trkpt lat="44.13978" lon="6.62549">
        <ele>2108.31</ele>
        <time>2019-08-03T10:40:44Z</time>
      </trkpt>
      <trkpt lat="44.13974" lon="6.62542">
        <ele>2109.75</ele>
        <time>2019-08-03T10:41:03Z</time>
      </trkpt>
      <trkpt lat="44.13974" lon="6.62543">
        <ele>2108.79</ele>
        <time>2019-08-03T10:41:12Z</time>
      </trkpt>
      <trkpt lat="44.13975" lon="6.62542">
        <ele>2108.79</ele>
        <time>2019-08-03T10:41:30Z</time>
      </trkpt>
      <trkpt lat="44.13967" lon="6.62539">
        <ele>2108.79</ele>
        <time>2019-08-03T10:42:16Z</time>
      </trkpt>
      <trkpt lat="44.13969" lon="6.6254">
        <ele>2108.79</ele>
        <time>2019-08-03T10:42:53Z</time>
      </trkpt>
      <trkpt lat="44.13971" lon="6.6254">
        <ele>2108.31</ele>
        <time>2019-08-03T10:43:38Z</time>
      </trkpt>
      <trkpt lat="44.13974" lon="6.62545">
        <ele>2108.31</ele>
        <time>2019-08-03T10:44:07Z</time>
      </trkpt>
      <trkpt lat="44.13973" lon="6.62536">
        <ele>2108.79</ele>
        <time>2019-08-03T10:44:40Z</time>
      </trkpt>
      <trkpt lat="44.13979" lon="6.62547">
        <ele>2108.31</ele>
        <time>2019-08-03T10:45:08Z</time>
      </trkpt>
      <trkpt lat="44.13979" lon="6.62548">
        <ele>2108.31</ele>
        <time>2019-08-03T10:45:42Z</time>
      </trkpt>
      <trkpt lat="44.13974" lon="6.62532">
        <ele>2108.31</ele>
        <time>2019-08-03T10:46:24Z</time>
      </trkpt>
      <trkpt lat="44.13972" lon="6.62541">
        <ele>2108.31</ele>
        <time>2019-08-03T10:47:02Z</time>
      </trkpt>
      <trkpt lat="44.13977" lon="6.62546">
        <ele>2108.31</ele>
        <time>2019-08-03T10:47:46Z</time>
      </trkpt>
      <trkpt lat="44.13971" lon="6.62533">
        <ele>2108.79</ele>
        <time>2019-08-03T10:48:26Z</time>
      </trkpt>
      <trkpt lat="44.13978" lon="6.62542">
        <ele>2108.79</ele>
        <time>2019-08-03T10:49:06Z</time>
      </trkpt>
      <trkpt lat="44.1398" lon="6.62539">
        <ele>2108.79</ele>
        <time>2019-08-03T10:49:46Z</time>
      </trkpt>
      <trkpt lat="44.13981" lon="6.62541">
        <ele>2109.27</ele>
        <time>2019-08-03T10:50:35Z</time>
      </trkpt>
      <trkpt lat="44.13982" lon="6.62538">
        <ele>2109.75</ele>
        <time>2019-08-03T10:51:21Z</time>
      </trkpt>
      <trkpt lat="44.13983" lon="6.62542">
        <ele>2110.71</ele>
        <time>2019-08-03T10:51:57Z</time>
      </trkpt>
      <trkpt lat="44.13983" lon="6.62539">
        <ele>2110.71</ele>
        <time>2019-08-03T10:52:41Z</time>
      </trkpt>
      <trkpt lat="44.13985" lon="6.6254">
        <ele>2110.71</ele>
        <time>2019-08-03T10:53:27Z</time>
      </trkpt>
      <trkpt lat="44.13977" lon="6.62542">
        <ele>2110.71</ele>
        <time>2019-08-03T10:54:06Z</time>
      </trkpt>
      <trkpt lat="44.13976" lon="6.62545">
        <ele>2111.19</ele>
        <time>2019-08-03T10:54:50Z</time>
      </trkpt>
      <trkpt lat="44.13982" lon="6.62544">
        <ele>2111.19</ele>
        <time>2019-08-03T10:55:28Z</time>
      </trkpt>
      <trkpt lat="44.1398" lon="6.62545">
        <ele>2111.19</ele>
        <time>2019-08-03T10:56:13Z</time>
      </trkpt>
      <trkpt lat="44.13977" lon="6.62546">
        <ele>2111.19</ele>
        <time>2019-08-03T10:56:51Z</time>
      </trkpt>
      <trkpt lat="44.13975" lon="6.62551">
        <ele>2111.19</ele>
        <time>2019-08-03T10:57:31Z</time>
      </trkpt>
      <trkpt lat="44.13973" lon="6.62546">
        <ele>2110.71</ele>
        <time>2019-08-03T10:58:05Z</time>
      </trkpt>
      <trkpt lat="44.13976" lon="6.62548">
        <ele>2110.23</ele>
        <time>2019-08-03T10:58:40Z</time>
      </trkpt>
      <trkpt lat="44.1398" lon="6.62549">
        <ele>2110.71</ele>
        <time>2019-08-03T10:58:59Z</time>
      </trkpt>
      <trkpt lat="44.13969" lon="6.62548">
        <ele>2110.23</ele>
        <time>2019-08-03T10:59:41Z</time>
      </trkpt>
      <trkpt lat="44.13977" lon="6.62555">
        <ele>2110.23</ele>
        <time>2019-08-03T11:00:27Z</time>
      </trkpt>
      <trkpt lat="44.13981" lon="6.62546">
        <ele>2110.71</ele>
        <time>2019-08-03T11:01:12Z</time>
      </trkpt>
      <trkpt lat="44.13982" lon="6.62544">
        <ele>2111.19</ele>
        <time>2019-08-03T11:01:42Z</time>
      </trkpt>
      <trkpt lat="44.13972" lon="6.62551">
        <ele>2111.19</ele>
        <time>2019-08-03T11:02:21Z</time>
      </trkpt>
      <trkpt lat="44.13978" lon="6.62549">
        <ele>2111.19</ele>
        <time>2019-08-03T11:03:01Z</time>
      </trkpt>
      <trkpt lat="44.13981" lon="6.62549">
        <ele>2111.67</ele>
        <time>2019-08-03T11:03:27Z</time>
      </trkpt>
      <trkpt lat="44.13975" lon="6.62548">
        <ele>2110.71</ele>
        <time>2019-08-03T11:04:05Z</time>
      </trkpt>
      <trkpt lat="44.13973" lon="6.62549">
        <ele>2111.19</ele>
        <time>2019-08-03T11:04:47Z</time>
      </trkpt>
      <trkpt lat="44.13977" lon="6.62555">
        <ele>2111.19</ele>
        <time>2019-08-03T11:05:21Z</time>
      </trkpt>
      <trkpt lat="44.1398" lon="6.6255">
        <ele>2111.67</ele>
        <time>2019-08-03T11:06:04Z</time>
      </trkpt>
      <trkpt lat="44.1398" lon="6.62547">
        <ele>2111.19</ele>
        <time>2019-08-03T11:06:31Z</time>
      </trkpt>
      <trkpt lat="44.13978" lon="6.62543">
        <ele>2111.19</ele>
        <time>2019-08-03T11:07:01Z</time>
      </trkpt>
      <trkpt lat="44.13976" lon="6.62536">
        <ele>2111.67</ele>
        <time>2019-08-03T11:07:34Z</time>
      </trkpt>
      <trkpt lat="44.13975" lon="6.62538">
        <ele>2112.15</ele>
        <time>2019-08-03T11:07:55Z</time>
      </trkpt>
      <trkpt lat="44.13975" lon="6.62536">
        <ele>2112.15</ele>
        <time>2019-08-03T11:08:07Z</time>
      </trkpt>
      <trkpt lat="44.13972" lon="6.6254">
        <ele>2112.63</ele>
        <time>2019-08-03T11:08:23Z</time>
      </trkpt>
      <trkpt lat="44.13972" lon="6.62542">
        <ele>2112.63</ele>
        <time>2019-08-03T11:08:47Z</time>
      </trkpt>
      <trkpt lat="44.13972" lon="6.62544">
        <ele>2112.63</ele>
        <time>2019-08-03T11:09:11Z</time>
      </trkpt>
      <trkpt lat="44.13976" lon="6.6255">
        <ele>2111.19</ele>
        <time>2019-08-03T11:09:29Z</time>
      </trkpt>
      <trkpt lat="44.13978" lon="6.62547">
        <ele>2110.71</ele>
        <time>2019-08-03T11:09:51Z</time>
      </trkpt>
      <trkpt lat="44.1398" lon="6.62542">
        <ele>2110.71</ele>
        <time>2019-08-03T11:10:13Z</time>
      </trkpt>
      <trkpt lat="44.13975" lon="6.62558">
        <ele>2111.19</ele>
        <time>2019-08-03T11:10:34Z</time>
      </trkpt>
      <trkpt lat="44.13975" lon="6.62556">
        <ele>2110.71</ele>
        <time>2019-08-03T11:10:57Z</time>
      </trkpt>
      <trkpt lat="44.13976" lon="6.62554">
        <ele>2111.19</ele>
        <time>2019-08-03T11:11:19Z</time>
      </trkpt>
      <trkpt lat="44.13974" lon="6.62553">
        <ele>2110.71</ele>
        <time>2019-08-03T11:11:44Z</time>
      </trkpt>
      <trkpt lat="44.13975" lon="6.62563">
        <ele>2111.67</ele>
        <time>2019-08-03T11:12:01Z</time>
      </trkpt>
      <trkpt lat="44.13978" lon="6.62582">
        <ele>2110.71</ele>
        <time>2019-08-03T11:12:16Z</time>
      </trkpt>
      <trkpt lat="44.13981" lon="6.62604">
        <ele>2111.67</ele>
        <time>2019-08-03T11:12:33Z</time>
      </trkpt>
      <trkpt lat="44.13985" lon="6.62625">
        <ele>2111.19</ele>
        <time>2019-08-03T11:12:51Z</time>
      </trkpt>
      <trkpt lat="44.13986" lon="6.62637">
        <ele>2110.71</ele>
        <time>2019-08-03T11:12:59Z</time>
      </trkpt>
      <trkpt lat="44.13987" lon="6.62644">
        <ele>2110.23</ele>
        <time>2019-08-03T11:13:03Z</time>
      </trkpt>
      <trkpt lat="44.1399" lon="6.62659">
        <ele>2109.75</ele>
        <time>2019-08-03T11:13:16Z</time>
      </trkpt>
      <trkpt lat="44.13991" lon="6.62665">
        <ele>2109.75</ele>
        <time>2019-08-03T11:13:20Z</time>
      </trkpt>
      <trkpt lat="44.13993" lon="6.6268">
        <ele>2111.67</ele>
        <time>2019-08-03T11:13:34Z</time>
      </trkpt>
      <trkpt lat="44.13994" lon="6.62679">
        <ele>2110.71</ele>
        <time>2019-08-03T11:13:35Z</time>
      </trkpt>
      <trkpt lat="44.13993" lon="6.62686">
        <ele>2109.75</ele>
        <time>2019-08-03T11:13:58Z</time>
      </trkpt>
      <trkpt lat="44.13994" lon="6.62693">
        <ele>2110.23</ele>
        <time>2019-08-03T11:14:12Z</time>
      </trkpt>
      <trkpt lat="44.13994" lon="6.62696">
        <ele>2110.23</ele>
        <time>2019-08-03T11:14:38Z</time>
      </trkpt>
      <trkpt lat="44.14002" lon="6.62712">
        <ele>2110.71</ele>
        <time>2019-08-03T11:14:53Z</time>
      </trkpt>
      <trkpt lat="44.14009" lon="6.62728">
        <ele>2111.67</ele>
        <time>2019-08-03T11:15:07Z</time>
      </trkpt>
      <trkpt lat="44.14013" lon="6.62728">
        <ele>2112.63</ele>
        <time>2019-08-03T11:15:21Z</time>
      </trkpt>
      <trkpt lat="44.1401" lon="6.62725">
        <ele>2113.12</ele>
        <time>2019-08-03T11:15:36Z</time>
      </trkpt>
      <trkpt lat="44.14011" lon="6.6273">
        <ele>2112.63</ele>
        <time>2019-08-03T11:16:03Z</time>
      </trkpt>
      <trkpt lat="44.14011" lon="6.62731">
        <ele>2113.6</ele>
        <time>2019-08-03T11:16:34Z</time>
      </trkpt>
      <trkpt lat="44.14024" lon="6.62731">
        <ele>2113.12</ele>
        <time>2019-08-03T11:16:49Z</time>
      </trkpt>
      <trkpt lat="44.14033" lon="6.62738">
        <ele>2114.56</ele>
        <time>2019-08-03T11:17:05Z</time>
      </trkpt>
      <trkpt lat="44.14044" lon="6.62746">
        <ele>2116.48</ele>
        <time>2019-08-03T11:17:23Z</time>
      </trkpt>
      <trkpt lat="44.14056" lon="6.62751">
        <ele>2117.92</ele>
        <time>2019-08-03T11:17:38Z</time>
      </trkpt>
      <trkpt lat="44.14065" lon="6.62752">
        <ele>2119.36</ele>
        <time>2019-08-03T11:17:52Z</time>
      </trkpt>
      <trkpt lat="44.14076" lon="6.62752">
        <ele>2120.81</ele>
        <time>2019-08-03T11:18:06Z</time>
      </trkpt>
      <trkpt lat="44.14078" lon="6.6275">
        <ele>2120.32</ele>
        <time>2019-08-03T11:18:25Z</time>
      </trkpt>
      <trkpt lat="44.14088" lon="6.62739">
        <ele>2121.29</ele>
        <time>2019-08-03T11:18:38Z</time>
      </trkpt>
      <trkpt lat="44.14095" lon="6.62736">
        <ele>2119.84</ele>
        <time>2019-08-03T11:18:49Z</time>
      </trkpt>
      <trkpt lat="44.141" lon="6.62736">
        <ele>2120.32</ele>
        <time>2019-08-03T11:19:05Z</time>
      </trkpt>
      <trkpt lat="44.14113" lon="6.62733">
        <ele>2121.29</ele>
        <time>2019-08-03T11:19:19Z</time>
      </trkpt>
      <trkpt lat="44.1413" lon="6.62729">
        <ele>2122.25</ele>
        <time>2019-08-03T11:19:37Z</time>
      </trkpt>
      <trkpt lat="44.14139" lon="6.62724">
        <ele>2121.77</ele>
        <time>2019-08-03T11:19:53Z</time>
      </trkpt>
      <trkpt lat="44.14145" lon="6.62719">
        <ele>2121.29</ele>
        <time>2019-08-03T11:20:14Z</time>
      </trkpt>
      <trkpt lat="44.14154" lon="6.62716">
        <ele>2122.25</ele>
        <time>2019-08-03T11:20:31Z</time>
      </trkpt>
      <trkpt lat="44.14168" lon="6.6271">
        <ele>2122.73</ele>
        <time>2019-08-03T11:20:50Z</time>
      </trkpt>
      <trkpt lat="44.14183" lon="6.62708">
        <ele>2123.69</ele>
        <time>2019-08-03T11:21:08Z</time>
      </trkpt>
      <trkpt lat="44.142" lon="6.62703">
        <ele>2123.69</ele>
        <time>2019-08-03T11:21:26Z</time>
      </trkpt>
      <trkpt lat="44.14213" lon="6.62699">
        <ele>2122.73</ele>
        <time>2019-08-03T11:21:39Z</time>
      </trkpt>
      <trkpt lat="44.14215" lon="6.62699">
        <ele>2122.73</ele>
        <time>2019-08-03T11:21:41Z</time>
      </trkpt>
      <trkpt lat="44.1422" lon="6.62698">
        <ele>2124.17</ele>
        <time>2019-08-03T11:21:48Z</time>
      </trkpt>
      <trkpt lat="44.14226" lon="6.62697">
        <ele>2125.13</ele>
        <time>2019-08-03T11:21:58Z</time>
      </trkpt>
      <trkpt lat="44.14231" lon="6.62698">
        <ele>2125.13</ele>
        <time>2019-08-03T11:22:13Z</time>
      </trkpt>
      <trkpt lat="44.14234" lon="6.62699">
        <ele>2125.61</ele>
        <time>2019-08-03T11:22:39Z</time>
      </trkpt>
      <trkpt lat="44.14233" lon="6.62703">
        <ele>2125.13</ele>
        <time>2019-08-03T11:23:20Z</time>
      </trkpt>
      <trkpt lat="44.14232" lon="6.62696">
        <ele>2125.13</ele>
        <time>2019-08-03T11:23:54Z</time>
      </trkpt>
      <trkpt lat="44.14234" lon="6.627">
        <ele>2124.65</ele>
        <time>2019-08-03T11:24:14Z</time>
      </trkpt>
      <trkpt lat="44.14236" lon="6.627">
        <ele>2124.17</ele>
        <time>2019-08-03T11:24:17Z</time>
      </trkpt>
      <trkpt lat="44.14246" lon="6.62704">
        <ele>2121.29</ele>
        <time>2019-08-03T11:24:32Z</time>
      </trkpt>
      <trkpt lat="44.14257" lon="6.62711">
        <ele>2118.4</ele>
        <time>2019-08-03T11:24:48Z</time>
      </trkpt>
      <trkpt lat="44.14263" lon="6.6272">
        <ele>2115.52</ele>
        <time>2019-08-03T11:25:00Z</time>
      </trkpt>
      <trkpt lat="44.14263" lon="6.6272">
        <ele>2115.04</ele>
        <time>2019-08-03T11:25:01Z</time>
      </trkpt>
      <trkpt lat="44.14269" lon="6.6273">
        <ele>2114.08</ele>
        <time>2019-08-03T11:25:14Z</time>
      </trkpt>
      <trkpt lat="44.14276" lon="6.62737">
        <ele>2112.63</ele>
        <time>2019-08-03T11:25:25Z</time>
      </trkpt>
      <trkpt lat="44.14284" lon="6.62742">
        <ele>2109.27</ele>
        <time>2019-08-03T11:25:38Z</time>
      </trkpt>
      <trkpt lat="44.14295" lon="6.62748">
        <ele>2106.39</ele>
        <time>2019-08-03T11:25:54Z</time>
      </trkpt>
      <trkpt lat="44.14301" lon="6.62754">
        <ele>2104.94</ele>
        <time>2019-08-03T11:26:03Z</time>
      </trkpt>
      <trkpt lat="44.14311" lon="6.62765">
        <ele>2102.06</ele>
        <time>2019-08-03T11:26:19Z</time>
      </trkpt>
      <trkpt lat="44.14322" lon="6.62769">
        <ele>2099.18</ele>
        <time>2019-08-03T11:26:34Z</time>
      </trkpt>
      <trkpt lat="44.14333" lon="6.62775">
        <ele>2096.29</ele>
        <time>2019-08-03T11:26:48Z</time>
      </trkpt>
      <trkpt lat="44.14341" lon="6.62777">
        <ele>2095.33</ele>
        <time>2019-08-03T11:26:55Z</time>
      </trkpt>
      <trkpt lat="44.14352" lon="6.62786">
        <ele>2093.41</ele>
        <time>2019-08-03T11:27:11Z</time>
      </trkpt>
      <trkpt lat="44.14363" lon="6.62794">
        <ele>2091</ele>
        <time>2019-08-03T11:27:25Z</time>
      </trkpt>
      <trkpt lat="44.14375" lon="6.62796">
        <ele>2089.56</ele>
        <time>2019-08-03T11:27:38Z</time>
      </trkpt>
      <trkpt lat="44.14386" lon="6.62802">
        <ele>2087.16</ele>
        <time>2019-08-03T11:27:53Z</time>
      </trkpt>
      <trkpt lat="44.14395" lon="6.62802">
        <ele>2085.72</ele>
        <time>2019-08-03T11:28:02Z</time>
      </trkpt>
      <trkpt lat="44.14406" lon="6.62804">
        <ele>2083.31</ele>
        <time>2019-08-03T11:28:15Z</time>
      </trkpt>
      <trkpt lat="44.1441" lon="6.62804">
        <ele>2082.35</ele>
        <time>2019-08-03T11:28:19Z</time>
      </trkpt>
      <trkpt lat="44.14412" lon="6.62801">
        <ele>2082.35</ele>
        <time>2019-08-03T11:28:22Z</time>
      </trkpt>
      <trkpt lat="44.14414" lon="6.62796">
        <ele>2082.35</ele>
        <time>2019-08-03T11:28:25Z</time>
      </trkpt>
      <trkpt lat="44.14423" lon="6.62778">
        <ele>2082.35</ele>
        <time>2019-08-03T11:28:40Z</time>
      </trkpt>
      <trkpt lat="44.14428" lon="6.62764">
        <ele>2082.35</ele>
        <time>2019-08-03T11:28:52Z</time>
      </trkpt>
      <trkpt lat="44.14437" lon="6.62751">
        <ele>2080.43</ele>
        <time>2019-08-03T11:29:05Z</time>
      </trkpt>
      <trkpt lat="44.14447" lon="6.6274">
        <ele>2078.03</ele>
        <time>2019-08-03T11:29:19Z</time>
      </trkpt>
      <trkpt lat="44.14455" lon="6.62736">
        <ele>2077.55</ele>
        <time>2019-08-03T11:29:27Z</time>
      </trkpt>
      <trkpt lat="44.14466" lon="6.62731">
        <ele>2076.59</ele>
        <time>2019-08-03T11:29:41Z</time>
      </trkpt>
      <trkpt lat="44.14477" lon="6.62725">
        <ele>2075.14</ele>
        <time>2019-08-03T11:29:53Z</time>
      </trkpt>
      <trkpt lat="44.14484" lon="6.6272">
        <ele>2073.22</ele>
        <time>2019-08-03T11:30:05Z</time>
      </trkpt>
      <trkpt lat="44.14489" lon="6.62709">
        <ele>2070.82</ele>
        <time>2019-08-03T11:30:19Z</time>
      </trkpt>
      <trkpt lat="44.14491" lon="6.62706">
        <ele>2070.82</ele>
        <time>2019-08-03T11:30:32Z</time>
      </trkpt>
      <trkpt lat="44.14492" lon="6.627">
        <ele>2070.34</ele>
        <time>2019-08-03T11:31:03Z</time>
      </trkpt>
      <trkpt lat="44.14491" lon="6.62705">
        <ele>2070.82</ele>
        <time>2019-08-03T11:31:24Z</time>
      </trkpt>
      <trkpt lat="44.14491" lon="6.62704">
        <ele>2070.82</ele>
        <time>2019-08-03T11:31:52Z</time>
      </trkpt>
      <trkpt lat="44.14491" lon="6.62704">
        <ele>2070.82</ele>
        <time>2019-08-03T11:31:54Z</time>
      </trkpt>
      <trkpt lat="44.14492" lon="6.62693">
        <ele>2069.86</ele>
        <time>2019-08-03T11:32:03Z</time>
      </trkpt>
      <trkpt lat="44.14494" lon="6.62687">
        <ele>2070.34</ele>
        <time>2019-08-03T11:32:09Z</time>
      </trkpt>
      <trkpt lat="44.14497" lon="6.6267">
        <ele>2070.82</ele>
        <time>2019-08-03T11:32:22Z</time>
      </trkpt>
      <trkpt lat="44.14501" lon="6.62659">
        <ele>2070.82</ele>
        <time>2019-08-03T11:32:33Z</time>
      </trkpt>
      <trkpt lat="44.14501" lon="6.62656">
        <ele>2070.82</ele>
        <time>2019-08-03T11:32:35Z</time>
      </trkpt>
      <trkpt lat="44.14503" lon="6.62639">
        <ele>2069.86</ele>
        <time>2019-08-03T11:32:50Z</time>
      </trkpt>
      <trkpt lat="44.14505" lon="6.62623">
        <ele>2068.89</ele>
        <time>2019-08-03T11:33:03Z</time>
      </trkpt>
      <trkpt lat="44.14508" lon="6.62609">
        <ele>2068.41</ele>
        <time>2019-08-03T11:33:15Z</time>
      </trkpt>
      <trkpt lat="44.14512" lon="6.62593">
        <ele>2068.89</ele>
        <time>2019-08-03T11:33:29Z</time>
      </trkpt>
      <trkpt lat="44.14511" lon="6.62586">
        <ele>2068.89</ele>
        <time>2019-08-03T11:33:38Z</time>
      </trkpt>
      <trkpt lat="44.14511" lon="6.62575">
        <ele>2067.45</ele>
        <time>2019-08-03T11:33:45Z</time>
      </trkpt>
      <trkpt lat="44.14514" lon="6.6256">
        <ele>2066.97</ele>
        <time>2019-08-03T11:33:56Z</time>
      </trkpt>
      <trkpt lat="44.14522" lon="6.62541">
        <ele>2064.57</ele>
        <time>2019-08-03T11:34:12Z</time>
      </trkpt>
      <trkpt lat="44.14531" lon="6.62526">
        <ele>2063.13</ele>
        <time>2019-08-03T11:34:26Z</time>
      </trkpt>
      <trkpt lat="44.14534" lon="6.62523">
        <ele>2062.65</ele>
        <time>2019-08-03T11:34:31Z</time>
      </trkpt>
      <trkpt lat="44.14538" lon="6.62516">
        <ele>2062.17</ele>
        <time>2019-08-03T11:34:46Z</time>
      </trkpt>
      <trkpt lat="44.14543" lon="6.62511">
        <ele>2062.17</ele>
        <time>2019-08-03T11:34:52Z</time>
      </trkpt>
      <trkpt lat="44.1455" lon="6.62501">
        <ele>2062.17</ele>
        <time>2019-08-03T11:35:05Z</time>
      </trkpt>
      <trkpt lat="44.14552" lon="6.62494">
        <ele>2061.2</ele>
        <time>2019-08-03T11:35:17Z</time>
      </trkpt>
      <trkpt lat="44.14558" lon="6.62485">
        <ele>2058.32</ele>
        <time>2019-08-03T11:35:29Z</time>
      </trkpt>
      <trkpt lat="44.14554" lon="6.62483">
        <ele>2057.36</ele>
        <time>2019-08-03T11:35:39Z</time>
      </trkpt>
      <trkpt lat="44.14538" lon="6.62495">
        <ele>2056.88</ele>
        <time>2019-08-03T11:35:55Z</time>
      </trkpt>
      <trkpt lat="44.14533" lon="6.62494">
        <ele>2054.47</ele>
        <time>2019-08-03T11:36:06Z</time>
      </trkpt>
      <trkpt lat="44.14528" lon="6.62498">
        <ele>2053.51</ele>
        <time>2019-08-03T11:36:18Z</time>
      </trkpt>
      <trkpt lat="44.14526" lon="6.62498">
        <ele>2053.51</ele>
        <time>2019-08-03T11:36:25Z</time>
      </trkpt>
      <trkpt lat="44.14521" lon="6.62498">
        <ele>2051.59</ele>
        <time>2019-08-03T11:36:32Z</time>
      </trkpt>
      <trkpt lat="44.14516" lon="6.62498">
        <ele>2049.67</ele>
        <time>2019-08-03T11:36:39Z</time>
      </trkpt>
      <trkpt lat="44.14512" lon="6.62497">
        <ele>2048.71</ele>
        <time>2019-08-03T11:36:45Z</time>
      </trkpt>
      <trkpt lat="44.14504" lon="6.62494">
        <ele>2045.82</ele>
        <time>2019-08-03T11:36:58Z</time>
      </trkpt>
      <trkpt lat="44.14495" lon="6.62493">
        <ele>2043.42</ele>
        <time>2019-08-03T11:37:10Z</time>
      </trkpt>
      <trkpt lat="44.14493" lon="6.62493">
        <ele>2042.46</ele>
        <time>2019-08-03T11:37:13Z</time>
      </trkpt>
      <trkpt lat="44.1449" lon="6.62493">
        <ele>2041.98</ele>
        <time>2019-08-03T11:37:17Z</time>
      </trkpt>
      <trkpt lat="44.14485" lon="6.62489">
        <ele>2039.57</ele>
        <time>2019-08-03T11:37:31Z</time>
      </trkpt>
      <trkpt lat="44.14482" lon="6.62483">
        <ele>2038.61</ele>
        <time>2019-08-03T11:37:46Z</time>
      </trkpt>
      <trkpt lat="44.14479" lon="6.62477">
        <ele>2036.21</ele>
        <time>2019-08-03T11:37:53Z</time>
      </trkpt>
      <trkpt lat="44.14478" lon="6.6247">
        <ele>2034.29</ele>
        <time>2019-08-03T11:38:01Z</time>
      </trkpt>
      <trkpt lat="44.14477" lon="6.6246">
        <ele>2031.88</ele>
        <time>2019-08-03T11:38:12Z</time>
      </trkpt>
      <trkpt lat="44.14477" lon="6.62458">
        <ele>2029.96</ele>
        <time>2019-08-03T11:38:23Z</time>
      </trkpt>
      <trkpt lat="44.14477" lon="6.62457">
        <ele>2029.96</ele>
        <time>2019-08-03T11:38:24Z</time>
      </trkpt>
      <trkpt lat="44.14477" lon="6.62456">
        <ele>2030.44</ele>
        <time>2019-08-03T11:38:25Z</time>
      </trkpt>
      <trkpt lat="44.14475" lon="6.62451">
        <ele>2028.52</ele>
        <time>2019-08-03T11:38:41Z</time>
      </trkpt>
      <trkpt lat="44.14472" lon="6.62437">
        <ele>2025.64</ele>
        <time>2019-08-03T11:38:53Z</time>
      </trkpt>
      <trkpt lat="44.14467" lon="6.62429">
        <ele>2022.75</ele>
        <time>2019-08-03T11:39:05Z</time>
      </trkpt>
      <trkpt lat="44.14462" lon="6.6242">
        <ele>2021.31</ele>
        <time>2019-08-03T11:39:18Z</time>
      </trkpt>
      <trkpt lat="44.14454" lon="6.62408">
        <ele>2017.94</ele>
        <time>2019-08-03T11:39:33Z</time>
      </trkpt>
      <trkpt lat="44.14456" lon="6.62397">
        <ele>2015.54</ele>
        <time>2019-08-03T11:39:46Z</time>
      </trkpt>
      <trkpt lat="44.14461" lon="6.62392">
        <ele>2013.14</ele>
        <time>2019-08-03T11:39:54Z</time>
      </trkpt>
      <trkpt lat="44.14466" lon="6.62388">
        <ele>2012.66</ele>
        <time>2019-08-03T11:40:10Z</time>
      </trkpt>
      <trkpt lat="44.14461" lon="6.62381">
        <ele>2010.25</ele>
        <time>2019-08-03T11:40:17Z</time>
      </trkpt>
      <trkpt lat="44.14453" lon="6.6237">
        <ele>2007.85</ele>
        <time>2019-08-03T11:40:31Z</time>
      </trkpt>
      <trkpt lat="44.14448" lon="6.62367">
        <ele>2006.41</ele>
        <time>2019-08-03T11:40:38Z</time>
      </trkpt>
      <trkpt lat="44.14445" lon="6.62365">
        <ele>2005.93</ele>
        <time>2019-08-03T11:40:42Z</time>
      </trkpt>
      <trkpt lat="44.14442" lon="6.62362">
        <ele>2005.45</ele>
        <time>2019-08-03T11:40:46Z</time>
      </trkpt>
      <trkpt lat="44.14438" lon="6.62361">
        <ele>2005.45</ele>
        <time>2019-08-03T11:40:51Z</time>
      </trkpt>
      <trkpt lat="44.14436" lon="6.6236">
        <ele>2004.49</ele>
        <time>2019-08-03T11:40:53Z</time>
      </trkpt>
      <trkpt lat="44.14432" lon="6.62355">
        <ele>2003.52</ele>
        <time>2019-08-03T11:41:05Z</time>
      </trkpt>
      <trkpt lat="44.14433" lon="6.62353">
        <ele>2001.6</ele>
        <time>2019-08-03T11:41:08Z</time>
      </trkpt>
      <trkpt lat="44.14428" lon="6.62347">
        <ele>2000.16</ele>
        <time>2019-08-03T11:41:17Z</time>
      </trkpt>
      <trkpt lat="44.14431" lon="6.62345">
        <ele>2000.16</ele>
        <time>2019-08-03T11:41:21Z</time>
      </trkpt>
      <trkpt lat="44.14435" lon="6.62343">
        <ele>1999.68</ele>
        <time>2019-08-03T11:41:26Z</time>
      </trkpt>
      <trkpt lat="44.14438" lon="6.62341">
        <ele>1998.24</ele>
        <time>2019-08-03T11:41:32Z</time>
      </trkpt>
      <trkpt lat="44.14447" lon="6.62336">
        <ele>1995.35</ele>
        <time>2019-08-03T11:41:49Z</time>
      </trkpt>
      <trkpt lat="44.14454" lon="6.62326">
        <ele>1993.43</ele>
        <time>2019-08-03T11:42:00Z</time>
      </trkpt>
      <trkpt lat="44.14454" lon="6.62312">
        <ele>1990.55</ele>
        <time>2019-08-03T11:42:13Z</time>
      </trkpt>
      <trkpt lat="44.14457" lon="6.62311">
        <ele>1989.1</ele>
        <time>2019-08-03T11:42:25Z</time>
      </trkpt>
      <trkpt lat="44.1446" lon="6.62313">
        <ele>1989.1</ele>
        <time>2019-08-03T11:42:31Z</time>
      </trkpt>
      <trkpt lat="44.14464" lon="6.62314">
        <ele>1987.66</ele>
        <time>2019-08-03T11:42:37Z</time>
      </trkpt>
      <trkpt lat="44.14471" lon="6.62315">
        <ele>1985.74</ele>
        <time>2019-08-03T11:42:46Z</time>
      </trkpt>
      <trkpt lat="44.14468" lon="6.62304">
        <ele>1983.34</ele>
        <time>2019-08-03T11:42:58Z</time>
      </trkpt>
      <trkpt lat="44.14474" lon="6.62303">
        <ele>1981.9</ele>
        <time>2019-08-03T11:43:09Z</time>
      </trkpt>
      <trkpt lat="44.1447" lon="6.62292">
        <ele>1979.01</ele>
        <time>2019-08-03T11:43:21Z</time>
      </trkpt>
      <trkpt lat="44.14478" lon="6.62294">
        <ele>1977.09</ele>
        <time>2019-08-03T11:43:34Z</time>
      </trkpt>
      <trkpt lat="44.14489" lon="6.62292">
        <ele>1975.17</ele>
        <time>2019-08-03T11:43:47Z</time>
      </trkpt>
      <trkpt lat="44.14502" lon="6.6229">
        <ele>1972.76</ele>
        <time>2019-08-03T11:44:01Z</time>
      </trkpt>
      <trkpt lat="44.1451" lon="6.62291">
        <ele>1970.84</ele>
        <time>2019-08-03T11:44:10Z</time>
      </trkpt>
      <trkpt lat="44.1451" lon="6.62281">
        <ele>1969.4</ele>
        <time>2019-08-03T11:44:22Z</time>
      </trkpt>
      <trkpt lat="44.14508" lon="6.6228">
        <ele>1968.44</ele>
        <time>2019-08-03T11:44:24Z</time>
      </trkpt>
      <trkpt lat="44.14509" lon="6.62274">
        <ele>1966.51</ele>
        <time>2019-08-03T11:44:37Z</time>
      </trkpt>
      <trkpt lat="44.1451" lon="6.62274">
        <ele>1966.03</ele>
        <time>2019-08-03T11:44:41Z</time>
      </trkpt>
      <trkpt lat="44.14516" lon="6.62267">
        <ele>1964.59</ele>
        <time>2019-08-03T11:44:50Z</time>
      </trkpt>
      <trkpt lat="44.14519" lon="6.62256">
        <ele>1961.71</ele>
        <time>2019-08-03T11:45:03Z</time>
      </trkpt>
      <trkpt lat="44.14524" lon="6.62245">
        <ele>1960.27</ele>
        <time>2019-08-03T11:45:17Z</time>
      </trkpt>
      <trkpt lat="44.14527" lon="6.62234">
        <ele>1959.3</ele>
        <time>2019-08-03T11:45:30Z</time>
      </trkpt>
      <trkpt lat="44.14528" lon="6.62233">
        <ele>1959.3</ele>
        <time>2019-08-03T11:45:36Z</time>
      </trkpt>
      <trkpt lat="44.14531" lon="6.62226">
        <ele>1958.34</ele>
        <time>2019-08-03T11:45:42Z</time>
      </trkpt>
      <trkpt lat="44.14535" lon="6.62216">
        <ele>1957.38</ele>
        <time>2019-08-03T11:45:50Z</time>
      </trkpt>
      <trkpt lat="44.14537" lon="6.62211">
        <ele>1955.46</ele>
        <time>2019-08-03T11:45:55Z</time>
      </trkpt>
      <trkpt lat="44.14544" lon="6.62191">
        <ele>1955.46</ele>
        <time>2019-08-03T11:46:10Z</time>
      </trkpt>
      <trkpt lat="44.14548" lon="6.62185">
        <ele>1954.02</ele>
        <time>2019-08-03T11:46:17Z</time>
      </trkpt>
      <trkpt lat="44.14557" lon="6.62177">
        <ele>1954.02</ele>
        <time>2019-08-03T11:46:29Z</time>
      </trkpt>
      <trkpt lat="44.14566" lon="6.62163">
        <ele>1951.61</ele>
        <time>2019-08-03T11:46:43Z</time>
      </trkpt>
      <trkpt lat="44.14571" lon="6.62151">
        <ele>1948.73</ele>
        <time>2019-08-03T11:46:55Z</time>
      </trkpt>
      <trkpt lat="44.14572" lon="6.6215">
        <ele>1948.73</ele>
        <time>2019-08-03T11:46:56Z</time>
      </trkpt>
      <trkpt lat="44.14578" lon="6.62143">
        <ele>1947.77</ele>
        <time>2019-08-03T11:47:09Z</time>
      </trkpt>
      <trkpt lat="44.14582" lon="6.62143">
        <ele>1946.33</ele>
        <time>2019-08-03T11:47:13Z</time>
      </trkpt>
      <trkpt lat="44.14591" lon="6.62137">
        <ele>1943.92</ele>
        <time>2019-08-03T11:47:26Z</time>
      </trkpt>
      <trkpt lat="44.14597" lon="6.62132">
        <ele>1942.96</ele>
        <time>2019-08-03T11:47:44Z</time>
      </trkpt>
      <trkpt lat="44.14597" lon="6.62129">
        <ele>1941.52</ele>
        <time>2019-08-03T11:48:00Z</time>
      </trkpt>
      <trkpt lat="44.14598" lon="6.62127">
        <ele>1941.52</ele>
        <time>2019-08-03T11:48:26Z</time>
      </trkpt>
      <trkpt lat="44.14602" lon="6.62125">
        <ele>1940.08</ele>
        <time>2019-08-03T11:48:31Z</time>
      </trkpt>
      <trkpt lat="44.14604" lon="6.62123">
        <ele>1938.16</ele>
        <time>2019-08-03T11:48:35Z</time>
      </trkpt>
      <trkpt lat="44.14612" lon="6.62114">
        <ele>1935.75</ele>
        <time>2019-08-03T11:48:49Z</time>
      </trkpt>
      <trkpt lat="44.14615" lon="6.62113">
        <ele>1934.31</ele>
        <time>2019-08-03T11:48:52Z</time>
      </trkpt>
      <trkpt lat="44.14623" lon="6.62102">
        <ele>1930.95</ele>
        <time>2019-08-03T11:49:06Z</time>
      </trkpt>
      <trkpt lat="44.14632" lon="6.62092">
        <ele>1929.02</ele>
        <time>2019-08-03T11:49:19Z</time>
      </trkpt>
      <trkpt lat="44.14642" lon="6.62082">
        <ele>1926.14</ele>
        <time>2019-08-03T11:49:32Z</time>
      </trkpt>
      <trkpt lat="44.14654" lon="6.62073">
        <ele>1923.74</ele>
        <time>2019-08-03T11:49:47Z</time>
      </trkpt>
      <trkpt lat="44.14665" lon="6.62064">
        <ele>1921.81</ele>
        <time>2019-08-03T11:50:03Z</time>
      </trkpt>
      <trkpt lat="44.14675" lon="6.62056">
        <ele>1919.41</ele>
        <time>2019-08-03T11:50:16Z</time>
      </trkpt>
      <trkpt lat="44.14679" lon="6.62053">
        <ele>1917.49</ele>
        <time>2019-08-03T11:50:21Z</time>
      </trkpt>
      <trkpt lat="44.14691" lon="6.62044">
        <ele>1915.08</ele>
        <time>2019-08-03T11:50:35Z</time>
      </trkpt>
      <trkpt lat="44.147" lon="6.6204">
        <ele>1911.72</ele>
        <time>2019-08-03T11:50:49Z</time>
      </trkpt>
      <trkpt lat="44.14703" lon="6.62039">
        <ele>1911.24</ele>
        <time>2019-08-03T11:50:52Z</time>
      </trkpt>
      <trkpt lat="44.14714" lon="6.62031">
        <ele>1908.35</ele>
        <time>2019-08-03T11:51:07Z</time>
      </trkpt>
      <trkpt lat="44.14723" lon="6.62026">
        <ele>1905.47</ele>
        <time>2019-08-03T11:51:17Z</time>
      </trkpt>
      <trkpt lat="44.14731" lon="6.62021">
        <ele>1902.11</ele>
        <time>2019-08-03T11:51:35Z</time>
      </trkpt>
      <trkpt lat="44.1473" lon="6.62019">
        <ele>1901.63</ele>
        <time>2019-08-03T11:51:54Z</time>
      </trkpt>
      <trkpt lat="44.14728" lon="6.62018">
        <ele>1901.63</ele>
        <time>2019-08-03T11:52:17Z</time>
      </trkpt>
      <trkpt lat="44.14729" lon="6.62012">
        <ele>1901.63</ele>
        <time>2019-08-03T11:52:36Z</time>
      </trkpt>
      <trkpt lat="44.14724" lon="6.62007">
        <ele>1899.7</ele>
        <time>2019-08-03T11:52:43Z</time>
      </trkpt>
      <trkpt lat="44.14728" lon="6.62">
        <ele>1896.82</ele>
        <time>2019-08-03T11:52:58Z</time>
      </trkpt>
      <trkpt lat="44.14725" lon="6.61992">
        <ele>1895.38</ele>
        <time>2019-08-03T11:53:09Z</time>
      </trkpt>
      <trkpt lat="44.14726" lon="6.61991">
        <ele>1894.42</ele>
        <time>2019-08-03T11:53:23Z</time>
      </trkpt>
      <trkpt lat="44.14727" lon="6.61988">
        <ele>1893.93</ele>
        <time>2019-08-03T11:53:42Z</time>
      </trkpt>
      <trkpt lat="44.14726" lon="6.61988">
        <ele>1894.42</ele>
        <time>2019-08-03T11:54:05Z</time>
      </trkpt>
      <trkpt lat="44.1473" lon="6.61992">
        <ele>1894.9</ele>
        <time>2019-08-03T11:54:32Z</time>
      </trkpt>
      <trkpt lat="44.14731" lon="6.61989">
        <ele>1894.42</ele>
        <time>2019-08-03T11:54:54Z</time>
      </trkpt>
      <trkpt lat="44.14724" lon="6.61993">
        <ele>1893.45</ele>
        <time>2019-08-03T11:55:20Z</time>
      </trkpt>
      <trkpt lat="44.14722" lon="6.61991">
        <ele>1893.45</ele>
        <time>2019-08-03T11:55:45Z</time>
      </trkpt>
      <trkpt lat="44.14719" lon="6.61993">
        <ele>1893.45</ele>
        <time>2019-08-03T11:56:03Z</time>
      </trkpt>
      <trkpt lat="44.14719" lon="6.61992">
        <ele>1893.45</ele>
        <time>2019-08-03T11:56:15Z</time>
      </trkpt>
      <trkpt lat="44.14712" lon="6.61995">
        <ele>1889.61</ele>
        <time>2019-08-03T11:56:28Z</time>
      </trkpt>
      <trkpt lat="44.14713" lon="6.61991">
        <ele>1890.09</ele>
        <time>2019-08-03T11:56:44Z</time>
      </trkpt>
      <trkpt lat="44.14713" lon="6.61996">
        <ele>1890.09</ele>
        <time>2019-08-03T11:57:04Z</time>
      </trkpt>
      <trkpt lat="44.14713" lon="6.61995">
        <ele>1890.57</ele>
        <time>2019-08-03T11:57:25Z</time>
      </trkpt>
      <trkpt lat="44.14705" lon="6.61991">
        <ele>1887.69</ele>
        <time>2019-08-03T11:57:39Z</time>
      </trkpt>
      <trkpt lat="44.14699" lon="6.61989">
        <ele>1886.24</ele>
        <time>2019-08-03T11:57:51Z</time>
      </trkpt>
      <trkpt lat="44.14695" lon="6.6199">
        <ele>1884.8</ele>
        <time>2019-08-03T11:57:55Z</time>
      </trkpt>
      <trkpt lat="44.1469" lon="6.61989">
        <ele>1884.32</ele>
        <time>2019-08-03T11:57:59Z</time>
      </trkpt>
      <trkpt lat="44.14678" lon="6.61991">
        <ele>1882.88</ele>
        <time>2019-08-03T11:58:12Z</time>
      </trkpt>
      <trkpt lat="44.14666" lon="6.61988">
        <ele>1880.48</ele>
        <time>2019-08-03T11:58:24Z</time>
      </trkpt>
      <trkpt lat="44.14664" lon="6.61987">
        <ele>1880.48</ele>
        <time>2019-08-03T11:58:27Z</time>
      </trkpt>
      <trkpt lat="44.1465" lon="6.61987">
        <ele>1878.07</ele>
        <time>2019-08-03T11:58:40Z</time>
      </trkpt>
      <trkpt lat="44.14637" lon="6.6199">
        <ele>1878.55</ele>
        <time>2019-08-03T11:58:53Z</time>
      </trkpt>
      <trkpt lat="44.14635" lon="6.61989">
        <ele>1878.07</ele>
        <time>2019-08-03T11:58:55Z</time>
      </trkpt>
      <trkpt lat="44.14619" lon="6.61991">
        <ele>1878.07</ele>
        <time>2019-08-03T11:59:09Z</time>
      </trkpt>
      <trkpt lat="44.14613" lon="6.61991">
        <ele>1877.11</ele>
        <time>2019-08-03T11:59:16Z</time>
      </trkpt>
      <trkpt lat="44.14607" lon="6.61993">
        <ele>1876.63</ele>
        <time>2019-08-03T11:59:23Z</time>
      </trkpt>
      <trkpt lat="44.14594" lon="6.61991">
        <ele>1875.67</ele>
        <time>2019-08-03T11:59:38Z</time>
      </trkpt>
      <trkpt lat="44.14585" lon="6.61987">
        <ele>1874.71</ele>
        <time>2019-08-03T11:59:53Z</time>
      </trkpt>
      <trkpt lat="44.14578" lon="6.61984">
        <ele>1873.27</ele>
        <time>2019-08-03T11:59:59Z</time>
      </trkpt>
      <trkpt lat="44.14567" lon="6.61978">
        <ele>1870.38</ele>
        <time>2019-08-03T12:00:12Z</time>
      </trkpt>
      <trkpt lat="44.14565" lon="6.61977">
        <ele>1869.9</ele>
        <time>2019-08-03T12:00:14Z</time>
      </trkpt>
      <trkpt lat="44.14558" lon="6.61975">
        <ele>1868.94</ele>
        <time>2019-08-03T12:00:22Z</time>
      </trkpt>
      <trkpt lat="44.14555" lon="6.61973">
        <ele>1867.5</ele>
        <time>2019-08-03T12:00:26Z</time>
      </trkpt>
      <trkpt lat="44.14549" lon="6.61968">
        <ele>1865.09</ele>
        <time>2019-08-03T12:00:42Z</time>
      </trkpt>
      <trkpt lat="44.14553" lon="6.61964">
        <ele>1863.65</ele>
        <time>2019-08-03T12:00:48Z</time>
      </trkpt>
      <trkpt lat="44.14554" lon="6.61963">
        <ele>1863.17</ele>
        <time>2019-08-03T12:00:50Z</time>
      </trkpt>
      <trkpt lat="44.14562" lon="6.61952">
        <ele>1860.29</ele>
        <time>2019-08-03T12:01:02Z</time>
      </trkpt>
      <trkpt lat="44.14551" lon="6.61951">
        <ele>1858.37</ele>
        <time>2019-08-03T12:01:13Z</time>
      </trkpt>
      <trkpt lat="44.14552" lon="6.61949">
        <ele>1855.96</ele>
        <time>2019-08-03T12:01:26Z</time>
      </trkpt>
      <trkpt lat="44.14553" lon="6.61946">
        <ele>1854.52</ele>
        <time>2019-08-03T12:01:30Z</time>
      </trkpt>
      <trkpt lat="44.14555" lon="6.61943">
        <ele>1853.56</ele>
        <time>2019-08-03T12:01:35Z</time>
      </trkpt>
      <trkpt lat="44.14563" lon="6.61935">
        <ele>1852.12</ele>
        <time>2019-08-03T12:01:48Z</time>
      </trkpt>
      <trkpt lat="44.14562" lon="6.61934">
        <ele>1851.64</ele>
        <time>2019-08-03T12:01:49Z</time>
      </trkpt>
      <trkpt lat="44.14553" lon="6.61932">
        <ele>1849.23</ele>
        <time>2019-08-03T12:02:02Z</time>
      </trkpt>
      <trkpt lat="44.14553" lon="6.61929">
        <ele>1847.79</ele>
        <time>2019-08-03T12:02:06Z</time>
      </trkpt>
      <trkpt lat="44.1456" lon="6.61923">
        <ele>1845.39</ele>
        <time>2019-08-03T12:02:18Z</time>
      </trkpt>
      <trkpt lat="44.14561" lon="6.61921">
        <ele>1845.39</ele>
        <time>2019-08-03T12:02:20Z</time>
      </trkpt>
      <trkpt lat="44.14571" lon="6.61914">
        <ele>1842.5</ele>
        <time>2019-08-03T12:02:33Z</time>
      </trkpt>
      <trkpt lat="44.14566" lon="6.61908">
        <ele>1841.54</ele>
        <time>2019-08-03T12:02:44Z</time>
      </trkpt>
      <trkpt lat="44.14565" lon="6.61908">
        <ele>1841.06</ele>
        <time>2019-08-03T12:02:58Z</time>
      </trkpt>
      <trkpt lat="44.14568" lon="6.61905">
        <ele>1841.54</ele>
        <time>2019-08-03T12:03:25Z</time>
      </trkpt>
      <trkpt lat="44.14565" lon="6.61905">
        <ele>1841.54</ele>
        <time>2019-08-03T12:03:34Z</time>
      </trkpt>
      <trkpt lat="44.1455" lon="6.61907">
        <ele>1840.1</ele>
        <time>2019-08-03T12:03:46Z</time>
      </trkpt>
      <trkpt lat="44.1454" lon="6.61906">
        <ele>1837.7</ele>
        <time>2019-08-03T12:03:57Z</time>
      </trkpt>
      <trkpt lat="44.14526" lon="6.6191">
        <ele>1835.77</ele>
        <time>2019-08-03T12:04:11Z</time>
      </trkpt>
      <trkpt lat="44.14518" lon="6.61912">
        <ele>1834.33</ele>
        <time>2019-08-03T12:04:18Z</time>
      </trkpt>
      <trkpt lat="44.14513" lon="6.61916">
        <ele>1832.89</ele>
        <time>2019-08-03T12:04:33Z</time>
      </trkpt>
      <trkpt lat="44.14504" lon="6.6192">
        <ele>1830.49</ele>
        <time>2019-08-03T12:04:46Z</time>
      </trkpt>
      <trkpt lat="44.14498" lon="6.61927">
        <ele>1830.01</ele>
        <time>2019-08-03T12:05:01Z</time>
      </trkpt>
      <trkpt lat="44.14494" lon="6.61928">
        <ele>1828.56</ele>
        <time>2019-08-03T12:05:20Z</time>
      </trkpt>
      <trkpt lat="44.14487" lon="6.61926">
        <ele>1825.2</ele>
        <time>2019-08-03T12:05:32Z</time>
      </trkpt>
      <trkpt lat="44.1448" lon="6.61929">
        <ele>1823.28</ele>
        <time>2019-08-03T12:05:43Z</time>
      </trkpt>
      <trkpt lat="44.14477" lon="6.61932">
        <ele>1822.8</ele>
        <time>2019-08-03T12:05:56Z</time>
      </trkpt>
      <trkpt lat="44.14477" lon="6.61934">
        <ele>1822.32</ele>
        <time>2019-08-03T12:06:06Z</time>
      </trkpt>
      <trkpt lat="44.14465" lon="6.6194">
        <ele>1819.91</ele>
        <time>2019-08-03T12:06:20Z</time>
      </trkpt>
      <trkpt lat="44.14464" lon="6.61941">
        <ele>1818.95</ele>
        <time>2019-08-03T12:06:21Z</time>
      </trkpt>
      <trkpt lat="44.1446" lon="6.61946">
        <ele>1818.95</ele>
        <time>2019-08-03T12:06:29Z</time>
      </trkpt>
      <trkpt lat="44.14452" lon="6.6195">
        <ele>1817.99</ele>
        <time>2019-08-03T12:06:38Z</time>
      </trkpt>
      <trkpt lat="44.1445" lon="6.6195">
        <ele>1817.99</ele>
        <time>2019-08-03T12:06:41Z</time>
      </trkpt>
      <trkpt lat="44.14444" lon="6.61958">
        <ele>1816.55</ele>
        <time>2019-08-03T12:06:52Z</time>
      </trkpt>
      <trkpt lat="44.1444" lon="6.6195">
        <ele>1816.07</ele>
        <time>2019-08-03T12:07:06Z</time>
      </trkpt>
      <trkpt lat="44.1444" lon="6.61942">
        <ele>1816.55</ele>
        <time>2019-08-03T12:07:13Z</time>
      </trkpt>
      <trkpt lat="44.14444" lon="6.61926">
        <ele>1817.99</ele>
        <time>2019-08-03T12:07:27Z</time>
      </trkpt>
      <trkpt lat="44.14443" lon="6.61919">
        <ele>1818.47</ele>
        <time>2019-08-03T12:07:32Z</time>
      </trkpt>
      <trkpt lat="44.14441" lon="6.61908">
        <ele>1818.47</ele>
        <time>2019-08-03T12:07:44Z</time>
      </trkpt>
      <trkpt lat="44.14444" lon="6.61895">
        <ele>1819.43</ele>
        <time>2019-08-03T12:07:59Z</time>
      </trkpt>
      <trkpt lat="44.14444" lon="6.61878">
        <ele>1818.47</ele>
        <time>2019-08-03T12:08:15Z</time>
      </trkpt>
      <trkpt lat="44.14442" lon="6.6187">
        <ele>1818.47</ele>
        <time>2019-08-03T12:08:29Z</time>
      </trkpt>
      <trkpt lat="44.14448" lon="6.61857">
        <ele>1817.51</ele>
        <time>2019-08-03T12:08:42Z</time>
      </trkpt>
      <trkpt lat="44.1445" lon="6.61844">
        <ele>1815.59</ele>
        <time>2019-08-03T12:08:54Z</time>
      </trkpt>
      <trkpt lat="44.14451" lon="6.61839">
        <ele>1815.11</ele>
        <time>2019-08-03T12:08:59Z</time>
      </trkpt>
      <trkpt lat="44.14458" lon="6.61822">
        <ele>1813.66</ele>
        <time>2019-08-03T12:09:11Z</time>
      </trkpt>
      <trkpt lat="44.14461" lon="6.61811">
        <ele>1813.18</ele>
        <time>2019-08-03T12:09:22Z</time>
      </trkpt>
      <trkpt lat="44.14469" lon="6.61798">
        <ele>1812.7</ele>
        <time>2019-08-03T12:09:37Z</time>
      </trkpt>
      <trkpt lat="44.1447" lon="6.61793">
        <ele>1812.7</ele>
        <time>2019-08-03T12:09:40Z</time>
      </trkpt>
      <trkpt lat="44.14478" lon="6.61779">
        <ele>1811.74</ele>
        <time>2019-08-03T12:09:53Z</time>
      </trkpt>
      <trkpt lat="44.14484" lon="6.61764">
        <ele>1810.78</ele>
        <time>2019-08-03T12:10:06Z</time>
      </trkpt>
      <trkpt lat="44.14493" lon="6.61747">
        <ele>1809.82</ele>
        <time>2019-08-03T12:10:20Z</time>
      </trkpt>
      <trkpt lat="44.14496" lon="6.61739">
        <ele>1809.82</ele>
        <time>2019-08-03T12:10:25Z</time>
      </trkpt>
      <trkpt lat="44.145" lon="6.61728">
        <ele>1809.82</ele>
        <time>2019-08-03T12:10:35Z</time>
      </trkpt>
      <trkpt lat="44.14505" lon="6.61719">
        <ele>1809.82</ele>
        <time>2019-08-03T12:10:44Z</time>
      </trkpt>
      <trkpt lat="44.14513" lon="6.61705">
        <ele>1810.3</ele>
        <time>2019-08-03T12:10:55Z</time>
      </trkpt>
      <trkpt lat="44.14516" lon="6.61701">
        <ele>1809.82</ele>
        <time>2019-08-03T12:10:58Z</time>
      </trkpt>
      <trkpt lat="44.14518" lon="6.61697">
        <ele>1810.3</ele>
        <time>2019-08-03T12:11:01Z</time>
      </trkpt>
      <trkpt lat="44.14525" lon="6.61682">
        <ele>1810.3</ele>
        <time>2019-08-03T12:11:12Z</time>
      </trkpt>
      <trkpt lat="44.1453" lon="6.61679">
        <ele>1811.26</ele>
        <time>2019-08-03T12:11:24Z</time>
      </trkpt>
      <trkpt lat="44.14533" lon="6.61684">
        <ele>1811.74</ele>
        <time>2019-08-03T12:11:51Z</time>
      </trkpt>
      <trkpt lat="44.14543" lon="6.61669">
        <ele>1811.74</ele>
        <time>2019-08-03T12:12:07Z</time>
      </trkpt>
      <trkpt lat="44.14546" lon="6.61656">
        <ele>1812.7</ele>
        <time>2019-08-03T12:12:19Z</time>
      </trkpt>
      <trkpt lat="44.1455" lon="6.61645">
        <ele>1813.66</ele>
        <time>2019-08-03T12:12:32Z</time>
      </trkpt>
      <trkpt lat="44.14557" lon="6.61634">
        <ele>1813.66</ele>
        <time>2019-08-03T12:12:46Z</time>
      </trkpt>
      <trkpt lat="44.14563" lon="6.61624">
        <ele>1814.15</ele>
        <time>2019-08-03T12:12:58Z</time>
      </trkpt>
      <trkpt lat="44.14569" lon="6.61614">
        <ele>1815.59</ele>
        <time>2019-08-03T12:13:08Z</time>
      </trkpt>
      <trkpt lat="44.14574" lon="6.61602">
        <ele>1816.55</ele>
        <time>2019-08-03T12:13:19Z</time>
      </trkpt>
      <trkpt lat="44.14578" lon="6.61594">
        <ele>1817.03</ele>
        <time>2019-08-03T12:13:27Z</time>
      </trkpt>
      <trkpt lat="44.14577" lon="6.61587">
        <ele>1817.03</ele>
        <time>2019-08-03T12:13:31Z</time>
      </trkpt>
      <trkpt lat="44.14578" lon="6.61584">
        <ele>1817.03</ele>
        <time>2019-08-03T12:13:33Z</time>
      </trkpt>
      <trkpt lat="44.14578" lon="6.61579">
        <ele>1817.03</ele>
        <time>2019-08-03T12:13:37Z</time>
      </trkpt>
      <trkpt lat="44.14579" lon="6.61576">
        <ele>1816.55</ele>
        <time>2019-08-03T12:13:39Z</time>
      </trkpt>
      <trkpt lat="44.14582" lon="6.61568">
        <ele>1817.51</ele>
        <time>2019-08-03T12:13:45Z</time>
      </trkpt>
      <trkpt lat="44.14581" lon="6.61559">
        <ele>1817.51</ele>
        <time>2019-08-03T12:13:51Z</time>
      </trkpt>
      <trkpt lat="44.14578" lon="6.61545">
        <ele>1818.47</ele>
        <time>2019-08-03T12:14:01Z</time>
      </trkpt>
      <trkpt lat="44.14585" lon="6.61532">
        <ele>1817.51</ele>
        <time>2019-08-03T12:14:13Z</time>
      </trkpt>
      <trkpt lat="44.14587" lon="6.61515">
        <ele>1818.47</ele>
        <time>2019-08-03T12:14:29Z</time>
      </trkpt>
      <trkpt lat="44.14591" lon="6.61501">
        <ele>1819.43</ele>
        <time>2019-08-03T12:14:40Z</time>
      </trkpt>
      <trkpt lat="44.14595" lon="6.61496">
        <ele>1818.95</ele>
        <time>2019-08-03T12:14:45Z</time>
      </trkpt>
      <trkpt lat="44.14599" lon="6.61479">
        <ele>1818.47</ele>
        <time>2019-08-03T12:14:59Z</time>
      </trkpt>
      <trkpt lat="44.14598" lon="6.61463">
        <ele>1819.91</ele>
        <time>2019-08-03T12:15:11Z</time>
      </trkpt>
      <trkpt lat="44.14595" lon="6.61449">
        <ele>1819.43</ele>
        <time>2019-08-03T12:15:24Z</time>
      </trkpt>
      <trkpt lat="44.14591" lon="6.61451">
        <ele>1818.47</ele>
        <time>2019-08-03T12:15:40Z</time>
      </trkpt>
      <trkpt lat="44.14588" lon="6.61453">
        <ele>1818.47</ele>
        <time>2019-08-03T12:16:04Z</time>
      </trkpt>
      <trkpt lat="44.14584" lon="6.6145">
        <ele>1817.99</ele>
        <time>2019-08-03T12:16:19Z</time>
      </trkpt>
      <trkpt lat="44.14578" lon="6.61448">
        <ele>1816.07</ele>
        <time>2019-08-03T12:16:28Z</time>
      </trkpt>
      <trkpt lat="44.14568" lon="6.61439">
        <ele>1812.22</ele>
        <time>2019-08-03T12:16:43Z</time>
      </trkpt>
      <trkpt lat="44.14561" lon="6.6143">
        <ele>1810.78</ele>
        <time>2019-08-03T12:16:56Z</time>
      </trkpt>
      <trkpt lat="44.14562" lon="6.6143">
        <ele>1810.3</ele>
        <time>2019-08-03T12:16:57Z</time>
      </trkpt>
      <trkpt lat="44.14565" lon="6.61432">
        <ele>1810.3</ele>
        <time>2019-08-03T12:17:01Z</time>
      </trkpt>
      <trkpt lat="44.14569" lon="6.61427">
        <ele>1808.38</ele>
        <time>2019-08-03T12:17:12Z</time>
      </trkpt>
      <trkpt lat="44.14569" lon="6.61423">
        <ele>1807.42</ele>
        <time>2019-08-03T12:17:15Z</time>
      </trkpt>
      <trkpt lat="44.14563" lon="6.61409">
        <ele>1805.49</ele>
        <time>2019-08-03T12:17:27Z</time>
      </trkpt>
      <trkpt lat="44.14563" lon="6.61395">
        <ele>1802.61</ele>
        <time>2019-08-03T12:17:39Z</time>
      </trkpt>
      <trkpt lat="44.14564" lon="6.61386">
        <ele>1799.24</ele>
        <time>2019-08-03T12:17:49Z</time>
      </trkpt>
      <trkpt lat="44.14564" lon="6.61377">
        <ele>1795.88</ele>
        <time>2019-08-03T12:18:00Z</time>
      </trkpt>
      <trkpt lat="44.14568" lon="6.61367">
        <ele>1792.52</ele>
        <time>2019-08-03T12:18:13Z</time>
      </trkpt>
      <trkpt lat="44.14566" lon="6.61363">
        <ele>1791.55</ele>
        <time>2019-08-03T12:18:29Z</time>
      </trkpt>
      <trkpt lat="44.14562" lon="6.61356">
        <ele>1791.55</ele>
        <time>2019-08-03T12:18:54Z</time>
      </trkpt>
      <trkpt lat="44.14554" lon="6.61358">
        <ele>1790.59</ele>
        <time>2019-08-03T12:19:08Z</time>
      </trkpt>
      <trkpt lat="44.14547" lon="6.61357">
        <ele>1787.23</ele>
        <time>2019-08-03T12:19:20Z</time>
      </trkpt>
      <trkpt lat="44.14545" lon="6.61357">
        <ele>1786.27</ele>
        <time>2019-08-03T12:19:24Z</time>
      </trkpt>
      <trkpt lat="44.1454" lon="6.6135">
        <ele>1782.9</ele>
        <time>2019-08-03T12:19:38Z</time>
      </trkpt>
      <trkpt lat="44.14534" lon="6.61348">
        <ele>1780.02</ele>
        <time>2019-08-03T12:19:49Z</time>
      </trkpt>
      <trkpt lat="44.14537" lon="6.61343">
        <ele>1776.65</ele>
        <time>2019-08-03T12:20:02Z</time>
      </trkpt>
      <trkpt lat="44.14538" lon="6.61338">
        <ele>1774.25</ele>
        <time>2019-08-03T12:20:18Z</time>
      </trkpt>
      <trkpt lat="44.14531" lon="6.61337">
        <ele>1770.89</ele>
        <time>2019-08-03T12:20:31Z</time>
      </trkpt>
      <trkpt lat="44.14526" lon="6.61334">
        <ele>1769.44</ele>
        <time>2019-08-03T12:20:42Z</time>
      </trkpt>
      <trkpt lat="44.1452" lon="6.61331">
        <ele>1767.52</ele>
        <time>2019-08-03T12:20:52Z</time>
      </trkpt>
      <trkpt lat="44.14515" lon="6.61329">
        <ele>1765.12</ele>
        <time>2019-08-03T12:20:59Z</time>
      </trkpt>
      <trkpt lat="44.14507" lon="6.61325">
        <ele>1762.23</ele>
        <time>2019-08-03T12:21:07Z</time>
      </trkpt>
      <trkpt lat="44.14496" lon="6.61322">
        <ele>1759.35</ele>
        <time>2019-08-03T12:21:20Z</time>
      </trkpt>
      <trkpt lat="44.14487" lon="6.61324">
        <ele>1755.99</ele>
        <time>2019-08-03T12:21:33Z</time>
      </trkpt>
      <trkpt lat="44.14477" lon="6.61326">
        <ele>1753.1</ele>
        <time>2019-08-03T12:21:45Z</time>
      </trkpt>
      <trkpt lat="44.14469" lon="6.61324">
        <ele>1749.26</ele>
        <time>2019-08-03T12:21:56Z</time>
      </trkpt>
      <trkpt lat="44.1446" lon="6.61322">
        <ele>1745.89</ele>
        <time>2019-08-03T12:22:08Z</time>
      </trkpt>
      <trkpt lat="44.14452" lon="6.61321">
        <ele>1743.49</ele>
        <time>2019-08-03T12:22:18Z</time>
      </trkpt>
      <trkpt lat="44.14441" lon="6.61318">
        <ele>1740.12</ele>
        <time>2019-08-03T12:22:32Z</time>
      </trkpt>
      <trkpt lat="44.14436" lon="6.61315">
        <ele>1737.24</ele>
        <time>2019-08-03T12:22:43Z</time>
      </trkpt>
      <trkpt lat="44.14436" lon="6.61314">
        <ele>1737.24</ele>
        <time>2019-08-03T12:22:44Z</time>
      </trkpt>
      <trkpt lat="44.14429" lon="6.61305">
        <ele>1733.88</ele>
        <time>2019-08-03T12:22:55Z</time>
      </trkpt>
      <trkpt lat="44.14423" lon="6.61296">
        <ele>1731.47</ele>
        <time>2019-08-03T12:23:08Z</time>
      </trkpt>
      <trkpt lat="44.14414" lon="6.61287">
        <ele>1728.59</ele>
        <time>2019-08-03T12:23:22Z</time>
      </trkpt>
      <trkpt lat="44.14409" lon="6.61284">
        <ele>1727.63</ele>
        <time>2019-08-03T12:23:35Z</time>
      </trkpt>
      <trkpt lat="44.14411" lon="6.61289">
        <ele>1726.67</ele>
        <time>2019-08-03T12:24:00Z</time>
      </trkpt>
      <trkpt lat="44.14408" lon="6.61286">
        <ele>1726.18</ele>
        <time>2019-08-03T12:24:19Z</time>
      </trkpt>
      <trkpt lat="44.144" lon="6.61274">
        <ele>1723.78</ele>
        <time>2019-08-03T12:24:35Z</time>
      </trkpt>
      <trkpt lat="44.14395" lon="6.61266">
        <ele>1720.9</ele>
        <time>2019-08-03T12:24:49Z</time>
      </trkpt>
      <trkpt lat="44.14388" lon="6.61259">
        <ele>1718.01</ele>
        <time>2019-08-03T12:25:01Z</time>
      </trkpt>
      <trkpt lat="44.14381" lon="6.6125">
        <ele>1715.61</ele>
        <time>2019-08-03T12:25:12Z</time>
      </trkpt>
      <trkpt lat="44.14374" lon="6.61239">
        <ele>1712.25</ele>
        <time>2019-08-03T12:25:25Z</time>
      </trkpt>
      <trkpt lat="44.14367" lon="6.61235">
        <ele>1711.28</ele>
        <time>2019-08-03T12:25:29Z</time>
      </trkpt>
      <trkpt lat="44.14358" lon="6.61225">
        <ele>1708.88</ele>
        <time>2019-08-03T12:25:42Z</time>
      </trkpt>
      <trkpt lat="44.1436" lon="6.61217">
        <ele>1706.48</ele>
        <time>2019-08-03T12:25:54Z</time>
      </trkpt>
      <trkpt lat="44.14349" lon="6.61212">
        <ele>1705.52</ele>
        <time>2019-08-03T12:26:08Z</time>
      </trkpt>
      <trkpt lat="44.14347" lon="6.61206">
        <ele>1703.11</ele>
        <time>2019-08-03T12:26:21Z</time>
      </trkpt>
      <trkpt lat="44.14355" lon="6.61197">
        <ele>1700.23</ele>
        <time>2019-08-03T12:26:32Z</time>
      </trkpt>
      <trkpt lat="44.14348" lon="6.6119">
        <ele>1697.83</ele>
        <time>2019-08-03T12:26:44Z</time>
      </trkpt>
      <trkpt lat="44.1434" lon="6.61185">
        <ele>1696.86</ele>
        <time>2019-08-03T12:26:54Z</time>
      </trkpt>
      <trkpt lat="44.14349" lon="6.61179">
        <ele>1693.98</ele>
        <time>2019-08-03T12:27:07Z</time>
      </trkpt>
      <trkpt lat="44.14351" lon="6.61172">
        <ele>1692.06</ele>
        <time>2019-08-03T12:27:12Z</time>
      </trkpt>
      <trkpt lat="44.14335" lon="6.61167">
        <ele>1688.69</ele>
        <time>2019-08-03T12:27:26Z</time>
      </trkpt>
      <trkpt lat="44.14333" lon="6.61166">
        <ele>1688.69</ele>
        <time>2019-08-03T12:27:28Z</time>
      </trkpt>
      <trkpt lat="44.1432" lon="6.61166">
        <ele>1687.25</ele>
        <time>2019-08-03T12:27:41Z</time>
      </trkpt>
      <trkpt lat="44.14318" lon="6.61166">
        <ele>1687.25</ele>
        <time>2019-08-03T12:27:43Z</time>
      </trkpt>
      <trkpt lat="44.14307" lon="6.61165">
        <ele>1683.41</ele>
        <time>2019-08-03T12:27:56Z</time>
      </trkpt>
      <trkpt lat="44.14298" lon="6.61171">
        <ele>1681</ele>
        <time>2019-08-03T12:28:08Z</time>
      </trkpt>
      <trkpt lat="44.14288" lon="6.61176">
        <ele>1679.08</ele>
        <time>2019-08-03T12:28:19Z</time>
      </trkpt>
      <trkpt lat="44.14278" lon="6.61179">
        <ele>1675.72</ele>
        <time>2019-08-03T12:28:33Z</time>
      </trkpt>
      <trkpt lat="44.14269" lon="6.6118">
        <ele>1672.35</ele>
        <time>2019-08-03T12:28:45Z</time>
      </trkpt>
      <trkpt lat="44.14258" lon="6.61178">
        <ele>1669.47</ele>
        <time>2019-08-03T12:28:59Z</time>
      </trkpt>
      <trkpt lat="44.14249" lon="6.6117">
        <ele>1666.58</ele>
        <time>2019-08-03T12:29:12Z</time>
      </trkpt>
      <trkpt lat="44.14239" lon="6.6116">
        <ele>1663.22</ele>
        <time>2019-08-03T12:29:25Z</time>
      </trkpt>
      <trkpt lat="44.14229" lon="6.61158">
        <ele>1661.3</ele>
        <time>2019-08-03T12:29:37Z</time>
      </trkpt>
      <trkpt lat="44.14218" lon="6.61145">
        <ele>1658.41</ele>
        <time>2019-08-03T12:29:51Z</time>
      </trkpt>
      <trkpt lat="44.14217" lon="6.61141">
        <ele>1655.53</ele>
        <time>2019-08-03T12:30:04Z</time>
      </trkpt>
      <trkpt lat="44.14224" lon="6.61137">
        <ele>1654.09</ele>
        <time>2019-08-03T12:30:12Z</time>
      </trkpt>
      <trkpt lat="44.14226" lon="6.61136">
        <ele>1654.09</ele>
        <time>2019-08-03T12:30:14Z</time>
      </trkpt>
      <trkpt lat="44.1423" lon="6.61126">
        <ele>1650.72</ele>
        <time>2019-08-03T12:30:28Z</time>
      </trkpt>
      <trkpt lat="44.14218" lon="6.61119">
        <ele>1647.36</ele>
        <time>2019-08-03T12:30:42Z</time>
      </trkpt>
      <trkpt lat="44.14216" lon="6.61118">
        <ele>1647.36</ele>
        <time>2019-08-03T12:30:45Z</time>
      </trkpt>
      <trkpt lat="44.14204" lon="6.61116">
        <ele>1643.99</ele>
        <time>2019-08-03T12:30:59Z</time>
      </trkpt>
      <trkpt lat="44.14196" lon="6.61115">
        <ele>1640.63</ele>
        <time>2019-08-03T12:31:09Z</time>
      </trkpt>
      <trkpt lat="44.14183" lon="6.61112">
        <ele>1637.26</ele>
        <time>2019-08-03T12:31:23Z</time>
      </trkpt>
      <trkpt lat="44.14182" lon="6.61112">
        <ele>1637.26</ele>
        <time>2019-08-03T12:31:24Z</time>
      </trkpt>
      <trkpt lat="44.14171" lon="6.61115">
        <ele>1633.9</ele>
        <time>2019-08-03T12:31:37Z</time>
      </trkpt>
      <trkpt lat="44.14161" lon="6.61115">
        <ele>1631.98</ele>
        <time>2019-08-03T12:31:49Z</time>
      </trkpt>
      <trkpt lat="44.14156" lon="6.61114">
        <ele>1629.09</ele>
        <time>2019-08-03T12:31:58Z</time>
      </trkpt>
      <trkpt lat="44.14149" lon="6.61113">
        <ele>1626.69</ele>
        <time>2019-08-03T12:32:06Z</time>
      </trkpt>
      <trkpt lat="44.14147" lon="6.61114">
        <ele>1625.73</ele>
        <time>2019-08-03T12:32:10Z</time>
      </trkpt>
      <trkpt lat="44.14144" lon="6.61108">
        <ele>1623.32</ele>
        <time>2019-08-03T12:32:22Z</time>
      </trkpt>
      <trkpt lat="44.14146" lon="6.61103">
        <ele>1620.44</ele>
        <time>2019-08-03T12:32:35Z</time>
      </trkpt>
      <trkpt lat="44.14141" lon="6.61105">
        <ele>1619</ele>
        <time>2019-08-03T12:32:48Z</time>
      </trkpt>
      <trkpt lat="44.14145" lon="6.61104">
        <ele>1618.04</ele>
        <time>2019-08-03T12:33:03Z</time>
      </trkpt>
      <trkpt lat="44.14143" lon="6.61102">
        <ele>1618.52</ele>
        <time>2019-08-03T12:33:19Z</time>
      </trkpt>
      <trkpt lat="44.14144" lon="6.61103">
        <ele>1618.04</ele>
        <time>2019-08-03T12:33:43Z</time>
      </trkpt>
      <trkpt lat="44.14144" lon="6.61098">
        <ele>1618.52</ele>
        <time>2019-08-03T12:34:01Z</time>
      </trkpt>
      <trkpt lat="44.14149" lon="6.611">
        <ele>1618.04</ele>
        <time>2019-08-03T12:34:31Z</time>
      </trkpt>
      <trkpt lat="44.14147" lon="6.61096">
        <ele>1619</ele>
        <time>2019-08-03T12:35:01Z</time>
      </trkpt>
      <trkpt lat="44.14148" lon="6.61097">
        <ele>1618.04</ele>
        <time>2019-08-03T12:35:26Z</time>
      </trkpt>
      <trkpt lat="44.14133" lon="6.61093">
        <ele>1617.07</ele>
        <time>2019-08-03T12:35:40Z</time>
      </trkpt>
      <trkpt lat="44.14129" lon="6.61088">
        <ele>1614.19</ele>
        <time>2019-08-03T12:35:53Z</time>
      </trkpt>
      <trkpt lat="44.14134" lon="6.61078">
        <ele>1611.31</ele>
        <time>2019-08-03T12:36:05Z</time>
      </trkpt>
      <trkpt lat="44.1414" lon="6.61069">
        <ele>1608.42</ele>
        <time>2019-08-03T12:36:17Z</time>
      </trkpt>
      <trkpt lat="44.1414" lon="6.6107">
        <ele>1608.42</ele>
        <time>2019-08-03T12:36:35Z</time>
      </trkpt>
      <trkpt lat="44.14148" lon="6.61063">
        <ele>1606.98</ele>
        <time>2019-08-03T12:36:50Z</time>
      </trkpt>
      <trkpt lat="44.14148" lon="6.61051">
        <ele>1603.62</ele>
        <time>2019-08-03T12:37:05Z</time>
      </trkpt>
      <trkpt lat="44.14141" lon="6.61049">
        <ele>1601.69</ele>
        <time>2019-08-03T12:37:20Z</time>
      </trkpt>
      <trkpt lat="44.14131" lon="6.61048">
        <ele>1598.81</ele>
        <time>2019-08-03T12:37:32Z</time>
      </trkpt>
      <trkpt lat="44.14136" lon="6.61042">
        <ele>1596.41</ele>
        <time>2019-08-03T12:37:46Z</time>
      </trkpt>
      <trkpt lat="44.14146" lon="6.61035">
        <ele>1593.04</ele>
        <time>2019-08-03T12:37:58Z</time>
      </trkpt>
      <trkpt lat="44.14145" lon="6.61026">
        <ele>1591.12</ele>
        <time>2019-08-03T12:38:07Z</time>
      </trkpt>
      <trkpt lat="44.14149" lon="6.61017">
        <ele>1588.24</ele>
        <time>2019-08-03T12:38:19Z</time>
      </trkpt>
      <trkpt lat="44.14153" lon="6.61006">
        <ele>1584.87</ele>
        <time>2019-08-03T12:38:33Z</time>
      </trkpt>
      <trkpt lat="44.14156" lon="6.61">
        <ele>1583.43</ele>
        <time>2019-08-03T12:38:40Z</time>
      </trkpt>
      <trkpt lat="44.14153" lon="6.60995">
        <ele>1581.51</ele>
        <time>2019-08-03T12:38:53Z</time>
      </trkpt>
      <trkpt lat="44.14141" lon="6.60995">
        <ele>1579.1</ele>
        <time>2019-08-03T12:39:06Z</time>
      </trkpt>
      <trkpt lat="44.14139" lon="6.60999">
        <ele>1576.7</ele>
        <time>2019-08-03T12:39:23Z</time>
      </trkpt>
      <trkpt lat="44.14131" lon="6.61005">
        <ele>1573.33</ele>
        <time>2019-08-03T12:39:33Z</time>
      </trkpt>
      <trkpt lat="44.1413" lon="6.60994">
        <ele>1569.97</ele>
        <time>2019-08-03T12:39:46Z</time>
      </trkpt>
      <trkpt lat="44.14128" lon="6.60986">
        <ele>1567.57</ele>
        <time>2019-08-03T12:39:58Z</time>
      </trkpt>
      <trkpt lat="44.14117" lon="6.60993">
        <ele>1564.68</ele>
        <time>2019-08-03T12:40:12Z</time>
      </trkpt>
      <trkpt lat="44.14107" lon="6.61">
        <ele>1562.76</ele>
        <time>2019-08-03T12:40:24Z</time>
      </trkpt>
      <trkpt lat="44.14098" lon="6.61012">
        <ele>1560.36</ele>
        <time>2019-08-03T12:40:36Z</time>
      </trkpt>
      <trkpt lat="44.14097" lon="6.61013">
        <ele>1559.88</ele>
        <time>2019-08-03T12:40:37Z</time>
      </trkpt>
      <trkpt lat="44.14091" lon="6.61025">
        <ele>1560.84</ele>
        <time>2019-08-03T12:40:48Z</time>
      </trkpt>
      <trkpt lat="44.14086" lon="6.61027">
        <ele>1561.8</ele>
        <time>2019-08-03T12:40:56Z</time>
      </trkpt>
      <trkpt lat="44.14083" lon="6.61009">
        <ele>1560.36</ele>
        <time>2019-08-03T12:41:09Z</time>
      </trkpt>
      <trkpt lat="44.14081" lon="6.61002">
        <ele>1559.4</ele>
        <time>2019-08-03T12:41:16Z</time>
      </trkpt>
      <trkpt lat="44.14078" lon="6.60995">
        <ele>1558.43</ele>
        <time>2019-08-03T12:41:25Z</time>
      </trkpt>
      <trkpt lat="44.14075" lon="6.6099">
        <ele>1557.47</ele>
        <time>2019-08-03T12:41:30Z</time>
      </trkpt>
      <trkpt lat="44.14067" lon="6.60972">
        <ele>1554.11</ele>
        <time>2019-08-03T12:41:46Z</time>
      </trkpt>
      <trkpt lat="44.14065" lon="6.60967">
        <ele>1553.15</ele>
        <time>2019-08-03T12:42:00Z</time>
      </trkpt>
      <trkpt lat="44.14059" lon="6.60962">
        <ele>1552.67</ele>
        <time>2019-08-03T12:42:22Z</time>
      </trkpt>
      <trkpt lat="44.14062" lon="6.60956">
        <ele>1553.15</ele>
        <time>2019-08-03T12:42:38Z</time>
      </trkpt>
      <trkpt lat="44.14063" lon="6.60954">
        <ele>1552.67</ele>
        <time>2019-08-03T12:42:58Z</time>
      </trkpt>
      <trkpt lat="44.14065" lon="6.60949">
        <ele>1550.26</ele>
        <time>2019-08-03T12:43:12Z</time>
      </trkpt>
      <trkpt lat="44.14066" lon="6.60942">
        <ele>1547.38</ele>
        <time>2019-08-03T12:43:23Z</time>
      </trkpt>
      <trkpt lat="44.14059" lon="6.60927">
        <ele>1544.01</ele>
        <time>2019-08-03T12:43:36Z</time>
      </trkpt>
      <trkpt lat="44.14058" lon="6.60921">
        <ele>1540.65</ele>
        <time>2019-08-03T12:43:48Z</time>
      </trkpt>
      <trkpt lat="44.1406" lon="6.60918">
        <ele>1539.69</ele>
        <time>2019-08-03T12:43:58Z</time>
      </trkpt>
      <trkpt lat="44.14058" lon="6.60908">
        <ele>1537.77</ele>
        <time>2019-08-03T12:44:12Z</time>
      </trkpt>
      <trkpt lat="44.14053" lon="6.60904">
        <ele>1535.36</ele>
        <time>2019-08-03T12:44:23Z</time>
      </trkpt>
      <trkpt lat="44.14046" lon="6.60899">
        <ele>1532.48</ele>
        <time>2019-08-03T12:44:34Z</time>
      </trkpt>
      <trkpt lat="44.14038" lon="6.60895">
        <ele>1529.59</ele>
        <time>2019-08-03T12:44:48Z</time>
      </trkpt>
      <trkpt lat="44.1404" lon="6.60888">
        <ele>1527.19</ele>
        <time>2019-08-03T12:45:00Z</time>
      </trkpt>
      <trkpt lat="44.14039" lon="6.60886">
        <ele>1526.23</ele>
        <time>2019-08-03T12:45:02Z</time>
      </trkpt>
      <trkpt lat="44.14028" lon="6.60885">
        <ele>1524.79</ele>
        <time>2019-08-03T12:45:14Z</time>
      </trkpt>
      <trkpt lat="44.14017" lon="6.60885">
        <ele>1522.39</ele>
        <time>2019-08-03T12:45:27Z</time>
      </trkpt>
      <trkpt lat="44.1401" lon="6.60887">
        <ele>1519.02</ele>
        <time>2019-08-03T12:45:40Z</time>
      </trkpt>
      <trkpt lat="44.14005" lon="6.60884">
        <ele>1519.5</ele>
        <time>2019-08-03T12:45:54Z</time>
      </trkpt>
      <trkpt lat="44.14001" lon="6.60885">
        <ele>1519.5</ele>
        <time>2019-08-03T12:45:59Z</time>
      </trkpt>
      <trkpt lat="44.13992" lon="6.60882">
        <ele>1517.1</ele>
        <time>2019-08-03T12:46:12Z</time>
      </trkpt>
      <trkpt lat="44.1399" lon="6.6087">
        <ele>1515.66</ele>
        <time>2019-08-03T12:46:25Z</time>
      </trkpt>
      <trkpt lat="44.13988" lon="6.60864">
        <ele>1514.69</ele>
        <time>2019-08-03T12:46:38Z</time>
      </trkpt>
      <trkpt lat="44.13988" lon="6.60856">
        <ele>1512.29</ele>
        <time>2019-08-03T12:46:44Z</time>
      </trkpt>
      <trkpt lat="44.13993" lon="6.60851">
        <ele>1510.37</ele>
        <time>2019-08-03T12:46:53Z</time>
      </trkpt>
      <trkpt lat="44.13991" lon="6.60839">
        <ele>1508.45</ele>
        <time>2019-08-03T12:47:05Z</time>
      </trkpt>
      <trkpt lat="44.1399" lon="6.60835">
        <ele>1507.48</ele>
        <time>2019-08-03T12:47:08Z</time>
      </trkpt>
      <trkpt lat="44.13979" lon="6.6082">
        <ele>1504.6</ele>
        <time>2019-08-03T12:47:21Z</time>
      </trkpt>
      <trkpt lat="44.13967" lon="6.60805">
        <ele>1502.2</ele>
        <time>2019-08-03T12:47:35Z</time>
      </trkpt>
      <trkpt lat="44.13966" lon="6.60802">
        <ele>1501.72</ele>
        <time>2019-08-03T12:47:38Z</time>
      </trkpt>
      <trkpt lat="44.13968" lon="6.60791">
        <ele>1498.35</ele>
        <time>2019-08-03T12:47:52Z</time>
      </trkpt>
      <trkpt lat="44.13976" lon="6.60792">
        <ele>1495.47</ele>
        <time>2019-08-03T12:48:06Z</time>
      </trkpt>
      <trkpt lat="44.1397" lon="6.60776">
        <ele>1492.58</ele>
        <time>2019-08-03T12:48:20Z</time>
      </trkpt>
      <trkpt lat="44.13968" lon="6.60766">
        <ele>1490.66</ele>
        <time>2019-08-03T12:48:34Z</time>
      </trkpt>
      <trkpt lat="44.13964" lon="6.60756">
        <ele>1487.3</ele>
        <time>2019-08-03T12:48:45Z</time>
      </trkpt>
      <trkpt lat="44.1396" lon="6.60741">
        <ele>1485.85</ele>
        <time>2019-08-03T12:48:58Z</time>
      </trkpt>
      <trkpt lat="44.13959" lon="6.60734">
        <ele>1484.89</ele>
        <time>2019-08-03T12:49:04Z</time>
      </trkpt>
      <trkpt lat="44.13956" lon="6.60726">
        <ele>1483.93</ele>
        <time>2019-08-03T12:49:11Z</time>
      </trkpt>
      <trkpt lat="44.13955" lon="6.60725">
        <ele>1480.57</ele>
        <time>2019-08-03T12:49:27Z</time>
      </trkpt>
      <trkpt lat="44.13967" lon="6.60726">
        <ele>1479.13</ele>
        <time>2019-08-03T12:49:39Z</time>
      </trkpt>
      <trkpt lat="44.13967" lon="6.60715">
        <ele>1477.2</ele>
        <time>2019-08-03T12:49:55Z</time>
      </trkpt>
      <trkpt lat="44.13963" lon="6.60697">
        <ele>1474.8</ele>
        <time>2019-08-03T12:50:11Z</time>
      </trkpt>
      <trkpt lat="44.13974" lon="6.60697">
        <ele>1473.36</ele>
        <time>2019-08-03T12:50:22Z</time>
      </trkpt>
      <trkpt lat="44.13968" lon="6.60679">
        <ele>1470.95</ele>
        <time>2019-08-03T12:50:36Z</time>
      </trkpt>
      <trkpt lat="44.13972" lon="6.60669">
        <ele>1469.51</ele>
        <time>2019-08-03T12:50:46Z</time>
      </trkpt>
      <trkpt lat="44.13972" lon="6.60667">
        <ele>1469.03</ele>
        <time>2019-08-03T12:50:48Z</time>
      </trkpt>
      <trkpt lat="44.13977" lon="6.60647">
        <ele>1467.59</ele>
        <time>2019-08-03T12:51:00Z</time>
      </trkpt>
      <trkpt lat="44.13978" lon="6.60627">
        <ele>1464.71</ele>
        <time>2019-08-03T12:51:15Z</time>
      </trkpt>
      <trkpt lat="44.13976" lon="6.60608">
        <ele>1462.78</ele>
        <time>2019-08-03T12:51:29Z</time>
      </trkpt>
      <trkpt lat="44.13977" lon="6.60588">
        <ele>1460.86</ele>
        <time>2019-08-03T12:51:43Z</time>
      </trkpt>
      <trkpt lat="44.13976" lon="6.60571">
        <ele>1458.94</ele>
        <time>2019-08-03T12:51:56Z</time>
      </trkpt>
      <trkpt lat="44.13977" lon="6.60553">
        <ele>1457.5</ele>
        <time>2019-08-03T12:52:08Z</time>
      </trkpt>
      <trkpt lat="44.13977" lon="6.60539">
        <ele>1454.61</ele>
        <time>2019-08-03T12:52:21Z</time>
      </trkpt>
      <trkpt lat="44.13979" lon="6.60529">
        <ele>1452.21</ele>
        <time>2019-08-03T12:52:34Z</time>
      </trkpt>
      <trkpt lat="44.13983" lon="6.60519">
        <ele>1449.81</ele>
        <time>2019-08-03T12:52:46Z</time>
      </trkpt>
      <trkpt lat="44.1399" lon="6.60506">
        <ele>1446.92</ele>
        <time>2019-08-03T12:52:57Z</time>
      </trkpt>
      <trkpt lat="44.13991" lon="6.60501">
        <ele>1446.44</ele>
        <time>2019-08-03T12:53:02Z</time>
      </trkpt>
      <trkpt lat="44.13989" lon="6.60482">
        <ele>1444.04</ele>
        <time>2019-08-03T12:53:16Z</time>
      </trkpt>
      <trkpt lat="44.13993" lon="6.60479">
        <ele>1441.63</ele>
        <time>2019-08-03T12:53:30Z</time>
      </trkpt>
      <trkpt lat="44.14" lon="6.60468">
        <ele>1439.23</ele>
        <time>2019-08-03T12:53:44Z</time>
      </trkpt>
      <trkpt lat="44.14003" lon="6.60469">
        <ele>1438.27</ele>
        <time>2019-08-03T12:53:48Z</time>
      </trkpt>
      <trkpt lat="44.14017" lon="6.60476">
        <ele>1434.91</ele>
        <time>2019-08-03T12:54:02Z</time>
      </trkpt>
      <trkpt lat="44.14028" lon="6.60474">
        <ele>1432.02</ele>
        <time>2019-08-03T12:54:15Z</time>
      </trkpt>
      <trkpt lat="44.14041" lon="6.6047">
        <ele>1429.62</ele>
        <time>2019-08-03T12:54:28Z</time>
      </trkpt>
      <trkpt lat="44.14051" lon="6.60463">
        <ele>1427.21</ele>
        <time>2019-08-03T12:54:40Z</time>
      </trkpt>
      <trkpt lat="44.14065" lon="6.60467">
        <ele>1423.85</ele>
        <time>2019-08-03T12:54:54Z</time>
      </trkpt>
      <trkpt lat="44.14068" lon="6.60458">
        <ele>1421.93</ele>
        <time>2019-08-03T12:55:02Z</time>
      </trkpt>
      <trkpt lat="44.14069" lon="6.60446">
        <ele>1420</ele>
        <time>2019-08-03T12:55:09Z</time>
      </trkpt>
      <trkpt lat="44.1408" lon="6.60449">
        <ele>1418.08</ele>
        <time>2019-08-03T12:55:21Z</time>
      </trkpt>
      <trkpt lat="44.14094" lon="6.60449">
        <ele>1416.16</ele>
        <time>2019-08-03T12:55:37Z</time>
      </trkpt>
      <trkpt lat="44.14095" lon="6.6044">
        <ele>1413.76</ele>
        <time>2019-08-03T12:55:49Z</time>
      </trkpt>
      <trkpt lat="44.141" lon="6.60426">
        <ele>1411.35</ele>
        <time>2019-08-03T12:56:04Z</time>
      </trkpt>
      <trkpt lat="44.14109" lon="6.60415">
        <ele>1408.47</ele>
        <time>2019-08-03T12:56:17Z</time>
      </trkpt>
      <trkpt lat="44.14109" lon="6.60412">
        <ele>1407.51</ele>
        <time>2019-08-03T12:56:19Z</time>
      </trkpt>
      <trkpt lat="44.14113" lon="6.60398">
        <ele>1404.62</ele>
        <time>2019-08-03T12:56:31Z</time>
      </trkpt>
      <trkpt lat="44.14107" lon="6.60375">
        <ele>1403.66</ele>
        <time>2019-08-03T12:56:44Z</time>
      </trkpt>
      <trkpt lat="44.14106" lon="6.60371">
        <ele>1403.18</ele>
        <time>2019-08-03T12:56:46Z</time>
      </trkpt>
      <trkpt lat="44.14109" lon="6.60358">
        <ele>1401.26</ele>
        <time>2019-08-03T12:57:00Z</time>
      </trkpt>
      <trkpt lat="44.14119" lon="6.60351">
        <ele>1398.86</ele>
        <time>2019-08-03T12:57:13Z</time>
      </trkpt>
      <trkpt lat="44.14134" lon="6.60351">
        <ele>1395.01</ele>
        <time>2019-08-03T12:57:27Z</time>
      </trkpt>
      <trkpt lat="44.14143" lon="6.60341">
        <ele>1394.05</ele>
        <time>2019-08-03T12:57:38Z</time>
      </trkpt>
      <trkpt lat="44.14139" lon="6.60333">
        <ele>1394.05</ele>
        <time>2019-08-03T12:57:53Z</time>
      </trkpt>
      <trkpt lat="44.1414" lon="6.60329">
        <ele>1393.57</ele>
        <time>2019-08-03T12:58:17Z</time>
      </trkpt>
      <trkpt lat="44.14136" lon="6.60324">
        <ele>1393.09</ele>
        <time>2019-08-03T12:58:33Z</time>
      </trkpt>
      <trkpt lat="44.14126" lon="6.60323">
        <ele>1394.53</ele>
        <time>2019-08-03T12:58:45Z</time>
      </trkpt>
      <trkpt lat="44.1412" lon="6.60319">
        <ele>1395.49</ele>
        <time>2019-08-03T12:58:56Z</time>
      </trkpt>
      <trkpt lat="44.14108" lon="6.60314">
        <ele>1396.45</ele>
        <time>2019-08-03T12:59:10Z</time>
      </trkpt>
      <trkpt lat="44.14104" lon="6.60317">
        <ele>1396.93</ele>
        <time>2019-08-03T12:59:26Z</time>
      </trkpt>
      <trkpt lat="44.14101" lon="6.60316">
        <ele>1396.45</ele>
        <time>2019-08-03T12:59:47Z</time>
      </trkpt>
      <trkpt lat="44.14102" lon="6.60321">
        <ele>1397.41</ele>
        <time>2019-08-03T13:00:08Z</time>
      </trkpt>
      <trkpt lat="44.14099" lon="6.60323">
        <ele>1396.45</ele>
        <time>2019-08-03T13:00:37Z</time>
      </trkpt>
      <trkpt lat="44.14092" lon="6.60321">
        <ele>1397.41</ele>
        <time>2019-08-03T13:00:49Z</time>
      </trkpt>
      <trkpt lat="44.14082" lon="6.6032">
        <ele>1398.37</ele>
        <time>2019-08-03T13:01:01Z</time>
      </trkpt>
      <trkpt lat="44.1407" lon="6.60317">
        <ele>1398.86</ele>
        <time>2019-08-03T13:01:14Z</time>
      </trkpt>
      <trkpt lat="44.14059" lon="6.60314">
        <ele>1399.34</ele>
        <time>2019-08-03T13:01:29Z</time>
      </trkpt>
      <trkpt lat="44.1405" lon="6.60314">
        <ele>1399.82</ele>
        <time>2019-08-03T13:01:41Z</time>
      </trkpt>
      <trkpt lat="44.14037" lon="6.60314">
        <ele>1399.82</ele>
        <time>2019-08-03T13:01:53Z</time>
      </trkpt>
      <trkpt lat="44.14022" lon="6.60316">
        <ele>1399.82</ele>
        <time>2019-08-03T13:02:07Z</time>
      </trkpt>
      <trkpt lat="44.14007" lon="6.60319">
        <ele>1400.3</ele>
        <time>2019-08-03T13:02:20Z</time>
      </trkpt>
      <trkpt lat="44.14003" lon="6.60321">
        <ele>1400.3</ele>
        <time>2019-08-03T13:02:23Z</time>
      </trkpt>
      <trkpt lat="44.13991" lon="6.60328">
        <ele>1400.78</ele>
        <time>2019-08-03T13:02:34Z</time>
      </trkpt>
      <trkpt lat="44.1398" lon="6.60332">
        <ele>1401.26</ele>
        <time>2019-08-03T13:02:44Z</time>
      </trkpt>
      <trkpt lat="44.13967" lon="6.60337">
        <ele>1401.74</ele>
        <time>2019-08-03T13:02:56Z</time>
      </trkpt>
      <trkpt lat="44.13954" lon="6.60344">
        <ele>1401.74</ele>
        <time>2019-08-03T13:03:09Z</time>
      </trkpt>
      <trkpt lat="44.13949" lon="6.60347">
        <ele>1401.74</ele>
        <time>2019-08-03T13:03:14Z</time>
      </trkpt>
      <trkpt lat="44.13938" lon="6.60358">
        <ele>1402.7</ele>
        <time>2019-08-03T13:03:27Z</time>
      </trkpt>
      <trkpt lat="44.13925" lon="6.60361">
        <ele>1402.7</ele>
        <time>2019-08-03T13:03:38Z</time>
      </trkpt>
      <trkpt lat="44.1391" lon="6.60365">
        <ele>1402.7</ele>
        <time>2019-08-03T13:03:51Z</time>
      </trkpt>
      <trkpt lat="44.13908" lon="6.60366">
        <ele>1402.7</ele>
        <time>2019-08-03T13:03:52Z</time>
      </trkpt>
      <trkpt lat="44.13904" lon="6.60367">
        <ele>1403.18</ele>
        <time>2019-08-03T13:03:56Z</time>
      </trkpt>
      <trkpt lat="44.139" lon="6.60369">
        <ele>1403.18</ele>
        <time>2019-08-03T13:03:59Z</time>
      </trkpt>
      <trkpt lat="44.13886" lon="6.60371">
        <ele>1403.66</ele>
        <time>2019-08-03T13:04:11Z</time>
      </trkpt>
      <trkpt lat="44.13871" lon="6.60379">
        <ele>1403.66</ele>
        <time>2019-08-03T13:04:24Z</time>
      </trkpt>
      <trkpt lat="44.13855" lon="6.6038">
        <ele>1403.66</ele>
        <time>2019-08-03T13:04:38Z</time>
      </trkpt>
      <trkpt lat="44.13836" lon="6.60377">
        <ele>1405.1</ele>
        <time>2019-08-03T13:04:53Z</time>
      </trkpt>
      <trkpt lat="44.13826" lon="6.60374">
        <ele>1405.58</ele>
        <time>2019-08-03T13:05:00Z</time>
      </trkpt>
      <trkpt lat="44.1382" lon="6.60373">
        <ele>1406.07</ele>
        <time>2019-08-03T13:05:04Z</time>
      </trkpt>
      <trkpt lat="44.13813" lon="6.60371">
        <ele>1406.55</ele>
        <time>2019-08-03T13:05:11Z</time>
      </trkpt>
      <trkpt lat="44.13798" lon="6.60364">
        <ele>1407.03</ele>
        <time>2019-08-03T13:05:25Z</time>
      </trkpt>
      <trkpt lat="44.13783" lon="6.60354">
        <ele>1407.03</ele>
        <time>2019-08-03T13:05:41Z</time>
      </trkpt>
      <trkpt lat="44.13771" lon="6.60333">
        <ele>1407.51</ele>
        <time>2019-08-03T13:05:55Z</time>
      </trkpt>
      <trkpt lat="44.13765" lon="6.60322">
        <ele>1407.99</ele>
        <time>2019-08-03T13:06:03Z</time>
      </trkpt>
      <trkpt lat="44.13764" lon="6.6032">
        <ele>1407.51</ele>
        <time>2019-08-03T13:06:06Z</time>
      </trkpt>
      <trkpt lat="44.13755" lon="6.603">
        <ele>1407.03</ele>
        <time>2019-08-03T13:06:18Z</time>
      </trkpt>
      <trkpt lat="44.13752" lon="6.60282">
        <ele>1406.07</ele>
        <time>2019-08-03T13:06:30Z</time>
      </trkpt>
      <trkpt lat="44.13747" lon="6.60265">
        <ele>1405.1</ele>
        <time>2019-08-03T13:06:39Z</time>
      </trkpt>
      <trkpt lat="44.13746" lon="6.60263">
        <ele>1405.1</ele>
        <time>2019-08-03T13:06:41Z</time>
      </trkpt>
      <trkpt lat="44.13746" lon="6.6026">
        <ele>1405.58</ele>
        <time>2019-08-03T13:06:43Z</time>
      </trkpt>
      <trkpt lat="44.13741" lon="6.60246">
        <ele>1403.66</ele>
        <time>2019-08-03T13:06:51Z</time>
      </trkpt>
      <trkpt lat="44.1374" lon="6.60241">
        <ele>1403.66</ele>
        <time>2019-08-03T13:06:54Z</time>
      </trkpt>
      <trkpt lat="44.13733" lon="6.60227">
        <ele>1403.18</ele>
        <time>2019-08-03T13:07:02Z</time>
      </trkpt>
      <trkpt lat="44.13719" lon="6.60207">
        <ele>1402.22</ele>
        <time>2019-08-03T13:07:18Z</time>
      </trkpt>
      <trkpt lat="44.13709" lon="6.60189">
        <ele>1400.78</ele>
        <time>2019-08-03T13:07:31Z</time>
      </trkpt>
      <trkpt lat="44.13703" lon="6.60173">
        <ele>1399.34</ele>
        <time>2019-08-03T13:07:40Z</time>
      </trkpt>
      <trkpt lat="44.13702" lon="6.60171">
        <ele>1398.86</ele>
        <time>2019-08-03T13:07:41Z</time>
      </trkpt>
      <trkpt lat="44.13698" lon="6.60149">
        <ele>1397.41</ele>
        <time>2019-08-03T13:07:56Z</time>
      </trkpt>
      <trkpt lat="44.13683" lon="6.60124">
        <ele>1395.97</ele>
        <time>2019-08-03T13:08:11Z</time>
      </trkpt>
      <trkpt lat="44.13668" lon="6.60115">
        <ele>1394.05</ele>
        <time>2019-08-03T13:08:25Z</time>
      </trkpt>
      <trkpt lat="44.13654" lon="6.60104">
        <ele>1392.13</ele>
        <time>2019-08-03T13:08:38Z</time>
      </trkpt>
      <trkpt lat="44.13646" lon="6.60096">
        <ele>1391.65</ele>
        <time>2019-08-03T13:08:46Z</time>
      </trkpt>
      <trkpt lat="44.13626" lon="6.60082">
        <ele>1389.24</ele>
        <time>2019-08-03T13:09:03Z</time>
      </trkpt>
      <trkpt lat="44.13618" lon="6.60078">
        <ele>1389.24</ele>
        <time>2019-08-03T13:09:10Z</time>
      </trkpt>
      <trkpt lat="44.13612" lon="6.60074">
        <ele>1387.32</ele>
        <time>2019-08-03T13:09:15Z</time>
      </trkpt>
      <trkpt lat="44.13594" lon="6.60079">
        <ele>1386.36</ele>
        <time>2019-08-03T13:09:29Z</time>
      </trkpt>
      <trkpt lat="44.1358" lon="6.60094">
        <ele>1384.44</ele>
        <time>2019-08-03T13:09:42Z</time>
      </trkpt>
      <trkpt lat="44.13561" lon="6.60103">
        <ele>1382.99</ele>
        <time>2019-08-03T13:09:58Z</time>
      </trkpt>
      <trkpt lat="44.13549" lon="6.60108">
        <ele>1381.55</ele>
        <time>2019-08-03T13:10:08Z</time>
      </trkpt>
      <trkpt lat="44.13543" lon="6.60108">
        <ele>1381.55</ele>
        <time>2019-08-03T13:10:14Z</time>
      </trkpt>
      <trkpt lat="44.1354" lon="6.60107">
        <ele>1381.07</ele>
        <time>2019-08-03T13:10:18Z</time>
      </trkpt>
      <trkpt lat="44.13526" lon="6.60093">
        <ele>1379.63</ele>
        <time>2019-08-03T13:10:33Z</time>
      </trkpt>
      <trkpt lat="44.13508" lon="6.60082">
        <ele>1377.71</ele>
        <time>2019-08-03T13:10:49Z</time>
      </trkpt>
      <trkpt lat="44.13488" lon="6.60068">
        <ele>1375.78</ele>
        <time>2019-08-03T13:11:06Z</time>
      </trkpt>
      <trkpt lat="44.13476" lon="6.60059">
        <ele>1375.3</ele>
        <time>2019-08-03T13:11:18Z</time>
      </trkpt>
      <trkpt lat="44.13459" lon="6.60051">
        <ele>1374.34</ele>
        <time>2019-08-03T13:11:33Z</time>
      </trkpt>
      <trkpt lat="44.13443" lon="6.6005">
        <ele>1371.94</ele>
        <time>2019-08-03T13:11:47Z</time>
      </trkpt>
      <trkpt lat="44.13435" lon="6.60052">
        <ele>1370.5</ele>
        <time>2019-08-03T13:11:53Z</time>
      </trkpt>
      <trkpt lat="44.13421" lon="6.60055">
        <ele>1369.05</ele>
        <time>2019-08-03T13:12:05Z</time>
      </trkpt>
      <trkpt lat="44.13407" lon="6.60054">
        <ele>1367.13</ele>
        <time>2019-08-03T13:12:18Z</time>
      </trkpt>
      <trkpt lat="44.13392" lon="6.60052">
        <ele>1367.13</ele>
        <time>2019-08-03T13:12:33Z</time>
      </trkpt>
      <trkpt lat="44.13375" lon="6.60042">
        <ele>1365.69</ele>
        <time>2019-08-03T13:12:48Z</time>
      </trkpt>
      <trkpt lat="44.13359" lon="6.60036">
        <ele>1364.25</ele>
        <time>2019-08-03T13:13:00Z</time>
      </trkpt>
      <trkpt lat="44.13342" lon="6.6003">
        <ele>1362.33</ele>
        <time>2019-08-03T13:13:16Z</time>
      </trkpt>
      <trkpt lat="44.13339" lon="6.60029">
        <ele>1362.33</ele>
        <time>2019-08-03T13:13:19Z</time>
      </trkpt>
      <trkpt lat="44.13332" lon="6.60026">
        <ele>1361.36</ele>
        <time>2019-08-03T13:13:26Z</time>
      </trkpt>
      <trkpt lat="44.13313" lon="6.60022">
        <ele>1359.44</ele>
        <time>2019-08-03T13:13:42Z</time>
      </trkpt>
      <trkpt lat="44.13291" lon="6.60011">
        <ele>1358.48</ele>
        <time>2019-08-03T13:13:59Z</time>
      </trkpt>
      <trkpt lat="44.13276" lon="6.60003">
        <ele>1356.56</ele>
        <time>2019-08-03T13:14:13Z</time>
      </trkpt>
      <trkpt lat="44.13272" lon="6.59996">
        <ele>1355.12</ele>
        <time>2019-08-03T13:14:19Z</time>
      </trkpt>
      <trkpt lat="44.13266" lon="6.59976">
        <ele>1354.63</ele>
        <time>2019-08-03T13:14:33Z</time>
      </trkpt>
      <trkpt lat="44.13254" lon="6.59962">
        <ele>1352.71</ele>
        <time>2019-08-03T13:14:48Z</time>
      </trkpt>
      <trkpt lat="44.13242" lon="6.59937">
        <ele>1350.79</ele>
        <time>2019-08-03T13:15:04Z</time>
      </trkpt>
      <trkpt lat="44.1324" lon="6.59921">
        <ele>1348.87</ele>
        <time>2019-08-03T13:15:16Z</time>
      </trkpt>
      <trkpt lat="44.13256" lon="6.59931">
        <ele>1346.46</ele>
        <time>2019-08-03T13:15:32Z</time>
      </trkpt>
      <trkpt lat="44.13265" lon="6.59948">
        <ele>1345.02</ele>
        <time>2019-08-03T13:15:45Z</time>
      </trkpt>
      <trkpt lat="44.13276" lon="6.59961">
        <ele>1341.66</ele>
        <time>2019-08-03T13:16:00Z</time>
      </trkpt>
      <trkpt lat="44.13279" lon="6.59961">
        <ele>1341.18</ele>
        <time>2019-08-03T13:16:04Z</time>
      </trkpt>
      <trkpt lat="44.13281" lon="6.59954">
        <ele>1339.73</ele>
        <time>2019-08-03T13:16:10Z</time>
      </trkpt>
      <trkpt lat="44.13276" lon="6.59944">
        <ele>1339.25</ele>
        <time>2019-08-03T13:16:26Z</time>
      </trkpt>
      <trkpt lat="44.13271" lon="6.59925">
        <ele>1337.33</ele>
        <time>2019-08-03T13:16:40Z</time>
      </trkpt>
      <trkpt lat="44.13268" lon="6.59908">
        <ele>1335.89</ele>
        <time>2019-08-03T13:16:53Z</time>
      </trkpt>
      <trkpt lat="44.13258" lon="6.59887">
        <ele>1334.93</ele>
        <time>2019-08-03T13:17:07Z</time>
      </trkpt>
      <trkpt lat="44.13257" lon="6.59886">
        <ele>1333.97</ele>
        <time>2019-08-03T13:17:08Z</time>
      </trkpt>
      <trkpt lat="44.13248" lon="6.59871">
        <ele>1333.01</ele>
        <time>2019-08-03T13:17:21Z</time>
      </trkpt>
      <trkpt lat="44.13242" lon="6.59851">
        <ele>1331.08</ele>
        <time>2019-08-03T13:17:37Z</time>
      </trkpt>
      <trkpt lat="44.13251" lon="6.59848">
        <ele>1329.64</ele>
        <time>2019-08-03T13:17:46Z</time>
      </trkpt>
      <trkpt lat="44.1326" lon="6.5985">
        <ele>1327.72</ele>
        <time>2019-08-03T13:18:02Z</time>
      </trkpt>
      <trkpt lat="44.13271" lon="6.59862">
        <ele>1325.31</ele>
        <time>2019-08-03T13:18:17Z</time>
      </trkpt>
      <trkpt lat="44.13275" lon="6.59868">
        <ele>1323.87</ele>
        <time>2019-08-03T13:18:23Z</time>
      </trkpt>
      <trkpt lat="44.13285" lon="6.59868">
        <ele>1321.95</ele>
        <time>2019-08-03T13:18:40Z</time>
      </trkpt>
      <trkpt lat="44.13283" lon="6.59856">
        <ele>1319.55</ele>
        <time>2019-08-03T13:18:57Z</time>
      </trkpt>
      <trkpt lat="44.13283" lon="6.59842">
        <ele>1318.59</ele>
        <time>2019-08-03T13:19:09Z</time>
      </trkpt>
      <trkpt lat="44.13276" lon="6.59824">
        <ele>1316.66</ele>
        <time>2019-08-03T13:19:20Z</time>
      </trkpt>
      <trkpt lat="44.13267" lon="6.5981">
        <ele>1316.18</ele>
        <time>2019-08-03T13:19:34Z</time>
      </trkpt>
      <trkpt lat="44.13255" lon="6.5979">
        <ele>1313.78</ele>
        <time>2019-08-03T13:19:49Z</time>
      </trkpt>
      <trkpt lat="44.13254" lon="6.59788">
        <ele>1313.3</ele>
        <time>2019-08-03T13:19:51Z</time>
      </trkpt>
      <trkpt lat="44.13251" lon="6.59786">
        <ele>1312.82</ele>
        <time>2019-08-03T13:19:54Z</time>
      </trkpt>
      <trkpt lat="44.13237" lon="6.59783">
        <ele>1312.82</ele>
        <time>2019-08-03T13:20:11Z</time>
      </trkpt>
      <trkpt lat="44.13225" lon="6.59778">
        <ele>1313.78</ele>
        <time>2019-08-03T13:20:23Z</time>
      </trkpt>
      <trkpt lat="44.13212" lon="6.59771">
        <ele>1314.74</ele>
        <time>2019-08-03T13:20:34Z</time>
      </trkpt>
      <trkpt lat="44.13201" lon="6.59772">
        <ele>1315.22</ele>
        <time>2019-08-03T13:20:46Z</time>
      </trkpt>
      <trkpt lat="44.13198" lon="6.59773">
        <ele>1315.22</ele>
        <time>2019-08-03T13:20:50Z</time>
      </trkpt>
      <trkpt lat="44.1318" lon="6.59776">
        <ele>1316.18</ele>
        <time>2019-08-03T13:21:04Z</time>
      </trkpt>
      <trkpt lat="44.13177" lon="6.59776">
        <ele>1316.18</ele>
        <time>2019-08-03T13:21:07Z</time>
      </trkpt>
      <trkpt lat="44.13163" lon="6.59777">
        <ele>1317.14</ele>
        <time>2019-08-03T13:21:19Z</time>
      </trkpt>
      <trkpt lat="44.13148" lon="6.59778">
        <ele>1316.66</ele>
        <time>2019-08-03T13:21:32Z</time>
      </trkpt>
      <trkpt lat="44.13143" lon="6.59779">
        <ele>1316.66</ele>
        <time>2019-08-03T13:21:36Z</time>
      </trkpt>
      <trkpt lat="44.1314" lon="6.59778">
        <ele>1316.66</ele>
        <time>2019-08-03T13:21:38Z</time>
      </trkpt>
      <trkpt lat="44.13135" lon="6.59778">
        <ele>1317.14</ele>
        <time>2019-08-03T13:21:42Z</time>
      </trkpt>
      <trkpt lat="44.13133" lon="6.59778">
        <ele>1316.66</ele>
        <time>2019-08-03T13:21:44Z</time>
      </trkpt>
      <trkpt lat="44.13128" lon="6.5978">
        <ele>1316.18</ele>
        <time>2019-08-03T13:21:48Z</time>
      </trkpt>
      <trkpt lat="44.13114" lon="6.59791">
        <ele>1317.62</ele>
        <time>2019-08-03T13:22:01Z</time>
      </trkpt>
      <trkpt lat="44.13108" lon="6.59798">
        <ele>1318.59</ele>
        <time>2019-08-03T13:22:08Z</time>
      </trkpt>
      <trkpt lat="44.13094" lon="6.59809">
        <ele>1318.1</ele>
        <time>2019-08-03T13:22:22Z</time>
      </trkpt>
      <trkpt lat="44.1309" lon="6.5981">
        <ele>1318.1</ele>
        <time>2019-08-03T13:22:25Z</time>
      </trkpt>
      <trkpt lat="44.13084" lon="6.59814">
        <ele>1317.62</ele>
        <time>2019-08-03T13:22:30Z</time>
      </trkpt>
      <trkpt lat="44.13068" lon="6.59821">
        <ele>1316.18</ele>
        <time>2019-08-03T13:22:45Z</time>
      </trkpt>
      <trkpt lat="44.13061" lon="6.59824">
        <ele>1315.7</ele>
        <time>2019-08-03T13:22:51Z</time>
      </trkpt>
      <trkpt lat="44.13044" lon="6.59836">
        <ele>1315.22</ele>
        <time>2019-08-03T13:23:05Z</time>
      </trkpt>
      <trkpt lat="44.13036" lon="6.59841">
        <ele>1317.62</ele>
        <time>2019-08-03T13:23:21Z</time>
      </trkpt>
      <trkpt lat="44.13034" lon="6.59843">
        <ele>1316.18</ele>
        <time>2019-08-03T13:23:32Z</time>
      </trkpt>
      <trkpt lat="44.13028" lon="6.59845">
        <ele>1316.18</ele>
        <time>2019-08-03T13:23:36Z</time>
      </trkpt>
      <trkpt lat="44.13013" lon="6.59849">
        <ele>1315.22</ele>
        <time>2019-08-03T13:23:49Z</time>
      </trkpt>
      <trkpt lat="44.12996" lon="6.59847">
        <ele>1312.82</ele>
        <time>2019-08-03T13:24:04Z</time>
      </trkpt>
      <trkpt lat="44.12977" lon="6.5985">
        <ele>1310.41</ele>
        <time>2019-08-03T13:24:20Z</time>
      </trkpt>
      <trkpt lat="44.12955" lon="6.5985">
        <ele>1308.97</ele>
        <time>2019-08-03T13:24:39Z</time>
      </trkpt>
      <trkpt lat="44.12937" lon="6.5985">
        <ele>1307.53</ele>
        <time>2019-08-03T13:24:53Z</time>
      </trkpt>
      <trkpt lat="44.12918" lon="6.59855">
        <ele>1306.09</ele>
        <time>2019-08-03T13:25:08Z</time>
      </trkpt>
      <trkpt lat="44.12905" lon="6.59859">
        <ele>1305.13</ele>
        <time>2019-08-03T13:25:20Z</time>
      </trkpt>
      <trkpt lat="44.12902" lon="6.59861">
        <ele>1305.13</ele>
        <time>2019-08-03T13:25:23Z</time>
      </trkpt>
      <trkpt lat="44.12883" lon="6.59871">
        <ele>1304.65</ele>
        <time>2019-08-03T13:25:41Z</time>
      </trkpt>
      <trkpt lat="44.12873" lon="6.5987">
        <ele>1303.69</ele>
        <time>2019-08-03T13:25:53Z</time>
      </trkpt>
      <trkpt lat="44.12871" lon="6.59871">
        <ele>1303.69</ele>
        <time>2019-08-03T13:25:55Z</time>
      </trkpt>
      <trkpt lat="44.12865" lon="6.59887">
        <ele>1302.72</ele>
        <time>2019-08-03T13:26:07Z</time>
      </trkpt>
      <trkpt lat="44.12863" lon="6.59889">
        <ele>1301.28</ele>
        <time>2019-08-03T13:26:19Z</time>
      </trkpt>
      <trkpt lat="44.1286" lon="6.59901">
        <ele>1298.4</ele>
        <time>2019-08-03T13:26:32Z</time>
      </trkpt>
      <trkpt lat="44.12853" lon="6.59903">
        <ele>1296.48</ele>
        <time>2019-08-03T13:26:41Z</time>
      </trkpt>
      <trkpt lat="44.12842" lon="6.59893">
        <ele>1293.11</ele>
        <time>2019-08-03T13:26:57Z</time>
      </trkpt>
      <trkpt lat="44.12842" lon="6.59892">
        <ele>1293.11</ele>
        <time>2019-08-03T13:26:58Z</time>
      </trkpt>
      <trkpt lat="44.1284" lon="6.59887">
        <ele>1292.63</ele>
        <time>2019-08-03T13:27:01Z</time>
      </trkpt>
      <trkpt lat="44.12837" lon="6.59884">
        <ele>1291.67</ele>
        <time>2019-08-03T13:27:04Z</time>
      </trkpt>
      <trkpt lat="44.12832" lon="6.59884">
        <ele>1291.19</ele>
        <time>2019-08-03T13:27:08Z</time>
      </trkpt>
      <trkpt lat="44.12825" lon="6.59886">
        <ele>1291.19</ele>
        <time>2019-08-03T13:27:22Z</time>
      </trkpt>
      <trkpt lat="44.12821" lon="6.59885">
        <ele>1290.71</ele>
        <time>2019-08-03T13:27:32Z</time>
      </trkpt>
      <trkpt lat="44.1282" lon="6.59875">
        <ele>1288.3</ele>
        <time>2019-08-03T13:27:42Z</time>
      </trkpt>
      <trkpt lat="44.12819" lon="6.59863">
        <ele>1287.82</ele>
        <time>2019-08-03T13:27:50Z</time>
      </trkpt>
      <trkpt lat="44.12817" lon="6.59859">
        <ele>1288.78</ele>
        <time>2019-08-03T13:28:04Z</time>
      </trkpt>
      <trkpt lat="44.12817" lon="6.59859">
        <ele>1284.94</ele>
        <time>2019-08-03T13:28:07Z</time>
      </trkpt>
      <trkpt lat="44.12817" lon="6.59859">
        <ele>1288.78</ele>
        <time>2019-08-03T13:28:08Z</time>
      </trkpt>
      <trkpt lat="44.12818" lon="6.5986">
        <ele>1285.42</ele>
        <time>2019-08-03T13:28:11Z</time>
      </trkpt>
      <trkpt lat="44.12818" lon="6.5986">
        <ele>1288.78</ele>
        <time>2019-08-03T13:28:12Z</time>
      </trkpt>
      <trkpt lat="44.12818" lon="6.5986">
        <ele>1284.94</ele>
        <time>2019-08-03T13:28:13Z</time>
      </trkpt>
      <trkpt lat="44.12818" lon="6.5986">
        <ele>1289.27</ele>
        <time>2019-08-03T13:28:15Z</time>
      </trkpt>
      <trkpt lat="44.12818" lon="6.5986">
        <ele>1285.9</ele>
        <time>2019-08-03T13:28:16Z</time>
      </trkpt>
    </trkseg>
  </trk>
</gpx>